<?xml version="1.0" encoding="UTF-8" standalone="no" ?>
<gpx xmlns="http://www.topografix.com/GPX/1/1" xmlns:xsi="http://www.w3.org/2001/XMLSchema-instance" xsi:schemaLocation="http://www.topografix.com/GPX/1/1 http://www.topografix.com/GPX/1/1/gpx.xsd" version="1.1" creator="VisuGPX - https://www.visugpx.com">
  <metadata>
    <name>Alzon - St Guiral</name>
    <desc><![CDATA[Une rando classique]]></desc>
  </metadata>
  <trk>
    <name><![CDATA[Alzon - St-Gural]]></name>
    <trkseg>
      <trkpt lat="43.9799" lon="3.44351">
        <ele>635</ele>
        <time>2011-12-28T10:34:58Z</time>
      </trkpt>
      <trkpt lat="43.97993" lon="3.44352">
        <ele>637</ele>
        <time>2011-12-28T10:35:04Z</time>
      </trkpt>
      <trkpt lat="43.97993" lon="3.44349">
        <ele>638</ele>
        <time>2011-12-28T10:35:14Z</time>
      </trkpt>
      <trkpt lat="43.97995" lon="3.44346">
        <ele>639</ele>
        <time>2011-12-28T10:35:23Z</time>
      </trkpt>
      <trkpt lat="43.97998" lon="3.44343">
        <ele>641</ele>
        <time>2011-12-28T10:35:31Z</time>
      </trkpt>
      <trkpt lat="43.97999" lon="3.44341">
        <ele>644</ele>
        <time>2011-12-28T10:35:40Z</time>
      </trkpt>
      <trkpt lat="43.98" lon="3.44338">
        <ele>645</ele>
        <time>2011-12-28T10:35:48Z</time>
      </trkpt>
      <trkpt lat="43.98004" lon="3.44335">
        <ele>646</ele>
        <time>2011-12-28T10:35:55Z</time>
      </trkpt>
      <trkpt lat="43.98008" lon="3.44333">
        <ele>649</ele>
        <time>2011-12-28T10:36:03Z</time>
      </trkpt>
      <trkpt lat="43.98015" lon="3.44334">
        <ele>650</ele>
        <time>2011-12-28T10:36:12Z</time>
      </trkpt>
      <trkpt lat="43.98022" lon="3.44333">
        <ele>650</ele>
        <time>2011-12-28T10:36:20Z</time>
      </trkpt>
      <trkpt lat="43.98027" lon="3.44333">
        <ele>652</ele>
        <time>2011-12-28T10:36:29Z</time>
      </trkpt>
      <trkpt lat="43.98034" lon="3.44333">
        <ele>652</ele>
        <time>2011-12-28T10:36:39Z</time>
      </trkpt>
      <trkpt lat="43.98036" lon="3.44333">
        <ele>653</ele>
        <time>2011-12-28T10:36:46Z</time>
      </trkpt>
      <trkpt lat="43.98037" lon="3.44332">
        <ele>654</ele>
        <time>2011-12-28T10:36:48Z</time>
      </trkpt>
      <trkpt lat="43.98042" lon="3.44333">
        <ele>656</ele>
        <time>2011-12-28T10:36:57Z</time>
      </trkpt>
      <trkpt lat="43.98049" lon="3.44331">
        <ele>657</ele>
        <time>2011-12-28T10:37:06Z</time>
      </trkpt>
      <trkpt lat="43.98055" lon="3.44331">
        <ele>658</ele>
        <time>2011-12-28T10:37:13Z</time>
      </trkpt>
      <trkpt lat="43.98061" lon="3.4433">
        <ele>659</ele>
        <time>2011-12-28T10:37:21Z</time>
      </trkpt>
      <trkpt lat="43.98067" lon="3.4433">
        <ele>660</ele>
        <time>2011-12-28T10:37:29Z</time>
      </trkpt>
      <trkpt lat="43.98074" lon="3.44329">
        <ele>662</ele>
        <time>2011-12-28T10:37:38Z</time>
      </trkpt>
      <trkpt lat="43.98079" lon="3.44329">
        <ele>663</ele>
        <time>2011-12-28T10:37:46Z</time>
      </trkpt>
      <trkpt lat="43.98085" lon="3.44328">
        <ele>664</ele>
        <time>2011-12-28T10:37:55Z</time>
      </trkpt>
      <trkpt lat="43.98091" lon="3.44329">
        <ele>666</ele>
        <time>2011-12-28T10:38:03Z</time>
      </trkpt>
      <trkpt lat="43.98096" lon="3.44331">
        <ele>668</ele>
        <time>2011-12-28T10:38:11Z</time>
      </trkpt>
      <trkpt lat="43.98101" lon="3.44331">
        <ele>669</ele>
        <time>2011-12-28T10:38:20Z</time>
      </trkpt>
      <trkpt lat="43.98107" lon="3.4433">
        <ele>670</ele>
        <time>2011-12-28T10:38:29Z</time>
      </trkpt>
      <trkpt lat="43.9811" lon="3.44329">
        <ele>672</ele>
        <time>2011-12-28T10:38:36Z</time>
      </trkpt>
      <trkpt lat="43.98116" lon="3.44329">
        <ele>673</ele>
        <time>2011-12-28T10:38:44Z</time>
      </trkpt>
      <trkpt lat="43.98117" lon="3.44329">
        <ele>673</ele>
        <time>2011-12-28T10:38:51Z</time>
      </trkpt>
      <trkpt lat="43.98122" lon="3.44328">
        <ele>674</ele>
        <time>2011-12-28T10:38:59Z</time>
      </trkpt>
      <trkpt lat="43.98127" lon="3.44327">
        <ele>675</ele>
        <time>2011-12-28T10:39:07Z</time>
      </trkpt>
      <trkpt lat="43.98131" lon="3.44325">
        <ele>677</ele>
        <time>2011-12-28T10:39:14Z</time>
      </trkpt>
      <trkpt lat="43.98133" lon="3.44325">
        <ele>677</ele>
        <time>2011-12-28T10:39:16Z</time>
      </trkpt>
      <trkpt lat="43.98139" lon="3.44323">
        <ele>678</ele>
        <time>2011-12-28T10:39:24Z</time>
      </trkpt>
      <trkpt lat="43.9814" lon="3.44323">
        <ele>678</ele>
        <time>2011-12-28T10:39:25Z</time>
      </trkpt>
      <trkpt lat="43.98147" lon="3.44321">
        <ele>678</ele>
        <time>2011-12-28T10:39:35Z</time>
      </trkpt>
      <trkpt lat="43.98151" lon="3.44319">
        <ele>678</ele>
        <time>2011-12-28T10:39:44Z</time>
      </trkpt>
      <trkpt lat="43.98154" lon="3.44317">
        <ele>680</ele>
        <time>2011-12-28T10:39:49Z</time>
      </trkpt>
      <trkpt lat="43.98156" lon="3.44316">
        <ele>680</ele>
        <time>2011-12-28T10:39:56Z</time>
      </trkpt>
      <trkpt lat="43.98161" lon="3.44315">
        <ele>681</ele>
        <time>2011-12-28T10:40:03Z</time>
      </trkpt>
      <trkpt lat="43.98168" lon="3.44311">
        <ele>683</ele>
        <time>2011-12-28T10:40:11Z</time>
      </trkpt>
      <trkpt lat="43.98173" lon="3.44308">
        <ele>683</ele>
        <time>2011-12-28T10:40:18Z</time>
      </trkpt>
      <trkpt lat="43.98177" lon="3.4431">
        <ele>684</ele>
        <time>2011-12-28T10:40:27Z</time>
      </trkpt>
      <trkpt lat="43.98177" lon="3.44313">
        <ele>685</ele>
        <time>2011-12-28T10:40:32Z</time>
      </trkpt>
      <trkpt lat="43.98173" lon="3.44323">
        <ele>686</ele>
        <time>2011-12-28T10:40:41Z</time>
      </trkpt>
      <trkpt lat="43.98177" lon="3.44332">
        <ele>687</ele>
        <time>2011-12-28T10:40:50Z</time>
      </trkpt>
      <trkpt lat="43.9818" lon="3.44331">
        <ele>687</ele>
        <time>2011-12-28T10:40:58Z</time>
      </trkpt>
      <trkpt lat="43.98181" lon="3.44329">
        <ele>688</ele>
        <time>2011-12-28T10:41:06Z</time>
      </trkpt>
      <trkpt lat="43.98181" lon="3.44329">
        <ele>690</ele>
        <time>2011-12-28T10:41:08Z</time>
      </trkpt>
      <trkpt lat="43.98184" lon="3.44326">
        <ele>692</ele>
        <time>2011-12-28T10:41:15Z</time>
      </trkpt>
      <trkpt lat="43.98188" lon="3.44323">
        <ele>692</ele>
        <time>2011-12-28T10:41:22Z</time>
      </trkpt>
      <trkpt lat="43.9819" lon="3.44317">
        <ele>691</ele>
        <time>2011-12-28T10:43:21Z</time>
      </trkpt>
      <trkpt lat="43.98194" lon="3.44315">
        <ele>691</ele>
        <time>2011-12-28T10:43:26Z</time>
      </trkpt>
      <trkpt lat="43.98201" lon="3.44316">
        <ele>692</ele>
        <time>2011-12-28T10:43:35Z</time>
      </trkpt>
      <trkpt lat="43.98206" lon="3.44316">
        <ele>693</ele>
        <time>2011-12-28T10:43:43Z</time>
      </trkpt>
      <trkpt lat="43.9821" lon="3.4432">
        <ele>695</ele>
        <time>2011-12-28T10:43:51Z</time>
      </trkpt>
      <trkpt lat="43.98212" lon="3.44325">
        <ele>696</ele>
        <time>2011-12-28T10:43:59Z</time>
      </trkpt>
      <trkpt lat="43.98213" lon="3.44327">
        <ele>698</ele>
        <time>2011-12-28T10:44:02Z</time>
      </trkpt>
      <trkpt lat="43.98217" lon="3.44327">
        <ele>699</ele>
        <time>2011-12-28T10:44:08Z</time>
      </trkpt>
      <trkpt lat="43.98221" lon="3.4433">
        <ele>700</ele>
        <time>2011-12-28T10:44:15Z</time>
      </trkpt>
      <trkpt lat="43.98224" lon="3.4433">
        <ele>702</ele>
        <time>2011-12-28T10:44:21Z</time>
      </trkpt>
      <trkpt lat="43.98229" lon="3.44328">
        <ele>704</ele>
        <time>2011-12-28T10:44:29Z</time>
      </trkpt>
      <trkpt lat="43.98233" lon="3.44329">
        <ele>705</ele>
        <time>2011-12-28T10:44:37Z</time>
      </trkpt>
      <trkpt lat="43.98238" lon="3.4433">
        <ele>707</ele>
        <time>2011-12-28T10:44:46Z</time>
      </trkpt>
      <trkpt lat="43.98243" lon="3.44329">
        <ele>708</ele>
        <time>2011-12-28T10:44:53Z</time>
      </trkpt>
      <trkpt lat="43.98247" lon="3.44326">
        <ele>708</ele>
        <time>2011-12-28T10:44:59Z</time>
      </trkpt>
      <trkpt lat="43.98254" lon="3.44323">
        <ele>709</ele>
        <time>2011-12-28T10:45:07Z</time>
      </trkpt>
      <trkpt lat="43.98259" lon="3.44322">
        <ele>710</ele>
        <time>2011-12-28T10:45:14Z</time>
      </trkpt>
      <trkpt lat="43.98266" lon="3.4432">
        <ele>711</ele>
        <time>2011-12-28T10:45:23Z</time>
      </trkpt>
      <trkpt lat="43.98274" lon="3.4432">
        <ele>712</ele>
        <time>2011-12-28T10:45:34Z</time>
      </trkpt>
      <trkpt lat="43.98281" lon="3.4432">
        <ele>713</ele>
        <time>2011-12-28T10:45:44Z</time>
      </trkpt>
      <trkpt lat="43.98285" lon="3.4432">
        <ele>714</ele>
        <time>2011-12-28T10:45:52Z</time>
      </trkpt>
      <trkpt lat="43.98288" lon="3.44315">
        <ele>715</ele>
        <time>2011-12-28T10:45:59Z</time>
      </trkpt>
      <trkpt lat="43.98294" lon="3.44313">
        <ele>715</ele>
        <time>2011-12-28T10:46:08Z</time>
      </trkpt>
      <trkpt lat="43.98301" lon="3.44312">
        <ele>716</ele>
        <time>2011-12-28T10:46:17Z</time>
      </trkpt>
      <trkpt lat="43.98304" lon="3.44312">
        <ele>718</ele>
        <time>2011-12-28T10:46:23Z</time>
      </trkpt>
      <trkpt lat="43.98305" lon="3.44313">
        <ele>718</ele>
        <time>2011-12-28T10:46:24Z</time>
      </trkpt>
      <trkpt lat="43.98311" lon="3.44317">
        <ele>720</ele>
        <time>2011-12-28T10:46:33Z</time>
      </trkpt>
      <trkpt lat="43.98316" lon="3.44319">
        <ele>721</ele>
        <time>2011-12-28T10:46:41Z</time>
      </trkpt>
      <trkpt lat="43.98324" lon="3.44321">
        <ele>721</ele>
        <time>2011-12-28T10:46:50Z</time>
      </trkpt>
      <trkpt lat="43.98324" lon="3.44321">
        <ele>722</ele>
        <time>2011-12-28T10:46:51Z</time>
      </trkpt>
      <trkpt lat="43.9833" lon="3.44323">
        <ele>722</ele>
        <time>2011-12-28T10:46:58Z</time>
      </trkpt>
      <trkpt lat="43.98338" lon="3.44324">
        <ele>723</ele>
        <time>2011-12-28T10:47:08Z</time>
      </trkpt>
      <trkpt lat="43.98346" lon="3.44324">
        <ele>722</ele>
        <time>2011-12-28T10:47:17Z</time>
      </trkpt>
      <trkpt lat="43.98354" lon="3.44326">
        <ele>722</ele>
        <time>2011-12-28T10:47:26Z</time>
      </trkpt>
      <trkpt lat="43.9836" lon="3.44327">
        <ele>724</ele>
        <time>2011-12-28T10:47:33Z</time>
      </trkpt>
      <trkpt lat="43.98364" lon="3.44327">
        <ele>725</ele>
        <time>2011-12-28T10:47:41Z</time>
      </trkpt>
      <trkpt lat="43.98369" lon="3.44327">
        <ele>726</ele>
        <time>2011-12-28T10:47:49Z</time>
      </trkpt>
      <trkpt lat="43.98374" lon="3.44328">
        <ele>728</ele>
        <time>2011-12-28T10:47:56Z</time>
      </trkpt>
      <trkpt lat="43.9838" lon="3.44332">
        <ele>729</ele>
        <time>2011-12-28T10:48:04Z</time>
      </trkpt>
      <trkpt lat="43.98386" lon="3.44332">
        <ele>730</ele>
        <time>2011-12-28T10:48:12Z</time>
      </trkpt>
      <trkpt lat="43.98394" lon="3.44331">
        <ele>732</ele>
        <time>2011-12-28T10:48:21Z</time>
      </trkpt>
      <trkpt lat="43.98399" lon="3.44329">
        <ele>732</ele>
        <time>2011-12-28T10:48:29Z</time>
      </trkpt>
      <trkpt lat="43.98404" lon="3.44328">
        <ele>734</ele>
        <time>2011-12-28T10:48:38Z</time>
      </trkpt>
      <trkpt lat="43.98408" lon="3.44329">
        <ele>735</ele>
        <time>2011-12-28T10:48:46Z</time>
      </trkpt>
      <trkpt lat="43.98412" lon="3.4433">
        <ele>736</ele>
        <time>2011-12-28T10:48:54Z</time>
      </trkpt>
      <trkpt lat="43.98411" lon="3.44327">
        <ele>737</ele>
        <time>2011-12-28T10:49:00Z</time>
      </trkpt>
      <trkpt lat="43.98414" lon="3.44322">
        <ele>740</ele>
        <time>2011-12-28T10:49:07Z</time>
      </trkpt>
      <trkpt lat="43.98415" lon="3.44321">
        <ele>741</ele>
        <time>2011-12-28T10:49:10Z</time>
      </trkpt>
      <trkpt lat="43.98424" lon="3.44317">
        <ele>740</ele>
        <time>2011-12-28T10:49:19Z</time>
      </trkpt>
      <trkpt lat="43.98427" lon="3.44318">
        <ele>740</ele>
        <time>2011-12-28T10:49:23Z</time>
      </trkpt>
      <trkpt lat="43.98432" lon="3.4432">
        <ele>741</ele>
        <time>2011-12-28T10:49:28Z</time>
      </trkpt>
      <trkpt lat="43.98439" lon="3.44318">
        <ele>742</ele>
        <time>2011-12-28T10:49:37Z</time>
      </trkpt>
      <trkpt lat="43.98446" lon="3.44317">
        <ele>743</ele>
        <time>2011-12-28T10:49:45Z</time>
      </trkpt>
      <trkpt lat="43.98451" lon="3.44317">
        <ele>745</ele>
        <time>2011-12-28T10:49:53Z</time>
      </trkpt>
      <trkpt lat="43.98456" lon="3.44316">
        <ele>747</ele>
        <time>2011-12-28T10:50:00Z</time>
      </trkpt>
      <trkpt lat="43.98462" lon="3.44316">
        <ele>748</ele>
        <time>2011-12-28T10:50:09Z</time>
      </trkpt>
      <trkpt lat="43.98463" lon="3.44315">
        <ele>749</ele>
        <time>2011-12-28T10:50:13Z</time>
      </trkpt>
      <trkpt lat="43.98468" lon="3.44314">
        <ele>751</ele>
        <time>2011-12-28T10:50:21Z</time>
      </trkpt>
      <trkpt lat="43.98474" lon="3.44315">
        <ele>752</ele>
        <time>2011-12-28T10:50:29Z</time>
      </trkpt>
      <trkpt lat="43.98478" lon="3.44317">
        <ele>753</ele>
        <time>2011-12-28T10:50:36Z</time>
      </trkpt>
      <trkpt lat="43.98483" lon="3.44318">
        <ele>753</ele>
        <time>2011-12-28T10:50:43Z</time>
      </trkpt>
      <trkpt lat="43.98485" lon="3.44322">
        <ele>755</ele>
        <time>2011-12-28T10:50:51Z</time>
      </trkpt>
      <trkpt lat="43.98487" lon="3.44326">
        <ele>756</ele>
        <time>2011-12-28T10:50:58Z</time>
      </trkpt>
      <trkpt lat="43.98492" lon="3.44327">
        <ele>758</ele>
        <time>2011-12-28T10:51:06Z</time>
      </trkpt>
      <trkpt lat="43.98497" lon="3.44325">
        <ele>760</ele>
        <time>2011-12-28T10:51:14Z</time>
      </trkpt>
      <trkpt lat="43.98502" lon="3.44323">
        <ele>761</ele>
        <time>2011-12-28T10:51:24Z</time>
      </trkpt>
      <trkpt lat="43.98505" lon="3.44322">
        <ele>762</ele>
        <time>2011-12-28T10:51:29Z</time>
      </trkpt>
      <trkpt lat="43.98512" lon="3.44324">
        <ele>764</ele>
        <time>2011-12-28T10:51:38Z</time>
      </trkpt>
      <trkpt lat="43.98512" lon="3.44324">
        <ele>764</ele>
        <time>2011-12-28T10:51:39Z</time>
      </trkpt>
      <trkpt lat="43.98517" lon="3.44326">
        <ele>765</ele>
        <time>2011-12-28T10:51:47Z</time>
      </trkpt>
      <trkpt lat="43.98523" lon="3.44324">
        <ele>768</ele>
        <time>2011-12-28T10:51:56Z</time>
      </trkpt>
      <trkpt lat="43.98523" lon="3.44323">
        <ele>769</ele>
        <time>2011-12-28T10:51:57Z</time>
      </trkpt>
      <trkpt lat="43.98525" lon="3.44316">
        <ele>768</ele>
        <time>2011-12-28T10:52:06Z</time>
      </trkpt>
      <trkpt lat="43.9853" lon="3.44316">
        <ele>769</ele>
        <time>2011-12-28T10:52:14Z</time>
      </trkpt>
      <trkpt lat="43.98535" lon="3.44316">
        <ele>770</ele>
        <time>2011-12-28T10:52:23Z</time>
      </trkpt>
      <trkpt lat="43.9854" lon="3.44314">
        <ele>773</ele>
        <time>2011-12-28T10:52:32Z</time>
      </trkpt>
      <trkpt lat="43.98543" lon="3.44315">
        <ele>773</ele>
        <time>2011-12-28T10:52:39Z</time>
      </trkpt>
      <trkpt lat="43.98546" lon="3.44316">
        <ele>774</ele>
        <time>2011-12-28T10:52:47Z</time>
      </trkpt>
      <trkpt lat="43.98547" lon="3.44315">
        <ele>776</ele>
        <time>2011-12-28T10:52:51Z</time>
      </trkpt>
      <trkpt lat="43.9855" lon="3.44315">
        <ele>778</ele>
        <time>2011-12-28T10:52:58Z</time>
      </trkpt>
      <trkpt lat="43.98552" lon="3.44316">
        <ele>779</ele>
        <time>2011-12-28T10:53:04Z</time>
      </trkpt>
      <trkpt lat="43.98556" lon="3.44318">
        <ele>780</ele>
        <time>2011-12-28T10:53:11Z</time>
      </trkpt>
      <trkpt lat="43.98558" lon="3.44316">
        <ele>782</ele>
        <time>2011-12-28T10:53:15Z</time>
      </trkpt>
      <trkpt lat="43.9856" lon="3.44315">
        <ele>784</ele>
        <time>2011-12-28T10:53:18Z</time>
      </trkpt>
      <trkpt lat="43.98565" lon="3.44314">
        <ele>785</ele>
        <time>2011-12-28T10:53:28Z</time>
      </trkpt>
      <trkpt lat="43.98569" lon="3.44311">
        <ele>786</ele>
        <time>2011-12-28T10:53:36Z</time>
      </trkpt>
      <trkpt lat="43.98575" lon="3.44309">
        <ele>787</ele>
        <time>2011-12-28T10:53:46Z</time>
      </trkpt>
      <trkpt lat="43.98581" lon="3.44308">
        <ele>789</ele>
        <time>2011-12-28T10:53:54Z</time>
      </trkpt>
      <trkpt lat="43.98587" lon="3.4431">
        <ele>791</ele>
        <time>2011-12-28T10:54:03Z</time>
      </trkpt>
      <trkpt lat="43.98593" lon="3.44312">
        <ele>793</ele>
        <time>2011-12-28T10:54:12Z</time>
      </trkpt>
      <trkpt lat="43.98596" lon="3.44311">
        <ele>794</ele>
        <time>2011-12-28T10:54:19Z</time>
      </trkpt>
      <trkpt lat="43.986" lon="3.44308">
        <ele>796</ele>
        <time>2011-12-28T10:54:27Z</time>
      </trkpt>
      <trkpt lat="43.98606" lon="3.44305">
        <ele>797</ele>
        <time>2011-12-28T10:54:36Z</time>
      </trkpt>
      <trkpt lat="43.9861" lon="3.44302">
        <ele>798</ele>
        <time>2011-12-28T10:54:43Z</time>
      </trkpt>
      <trkpt lat="43.98616" lon="3.44297">
        <ele>799</ele>
        <time>2011-12-28T10:54:52Z</time>
      </trkpt>
      <trkpt lat="43.98618" lon="3.44297">
        <ele>800</ele>
        <time>2011-12-28T10:54:56Z</time>
      </trkpt>
      <trkpt lat="43.98621" lon="3.44296">
        <ele>801</ele>
        <time>2011-12-28T10:55:04Z</time>
      </trkpt>
      <trkpt lat="43.98629" lon="3.44289">
        <ele>803</ele>
        <time>2011-12-28T10:55:14Z</time>
      </trkpt>
      <trkpt lat="43.98635" lon="3.44285">
        <ele>803</ele>
        <time>2011-12-28T10:55:23Z</time>
      </trkpt>
      <trkpt lat="43.9864" lon="3.44281">
        <ele>805</ele>
        <time>2011-12-28T10:55:31Z</time>
      </trkpt>
      <trkpt lat="43.98646" lon="3.44277">
        <ele>805</ele>
        <time>2011-12-28T10:55:39Z</time>
      </trkpt>
      <trkpt lat="43.98652" lon="3.44276">
        <ele>806</ele>
        <time>2011-12-28T10:55:47Z</time>
      </trkpt>
      <trkpt lat="43.9866" lon="3.44274">
        <ele>807</ele>
        <time>2011-12-28T10:55:56Z</time>
      </trkpt>
      <trkpt lat="43.98661" lon="3.44273">
        <ele>808</ele>
        <time>2011-12-28T10:55:58Z</time>
      </trkpt>
      <trkpt lat="43.98668" lon="3.4427">
        <ele>810</ele>
        <time>2011-12-28T10:56:07Z</time>
      </trkpt>
      <trkpt lat="43.98674" lon="3.44268">
        <ele>811</ele>
        <time>2011-12-28T10:56:15Z</time>
      </trkpt>
      <trkpt lat="43.98681" lon="3.44267">
        <ele>812</ele>
        <time>2011-12-28T10:56:25Z</time>
      </trkpt>
      <trkpt lat="43.98688" lon="3.44264">
        <ele>814</ele>
        <time>2011-12-28T10:56:34Z</time>
      </trkpt>
      <trkpt lat="43.98696" lon="3.44264">
        <ele>815</ele>
        <time>2011-12-28T10:56:43Z</time>
      </trkpt>
      <trkpt lat="43.98704" lon="3.44267">
        <ele>816</ele>
        <time>2011-12-28T10:56:52Z</time>
      </trkpt>
      <trkpt lat="43.98711" lon="3.44271">
        <ele>815</ele>
        <time>2011-12-28T10:57:00Z</time>
      </trkpt>
      <trkpt lat="43.98715" lon="3.44271">
        <ele>816</ele>
        <time>2011-12-28T10:57:07Z</time>
      </trkpt>
      <trkpt lat="43.9872" lon="3.4427">
        <ele>818</ele>
        <time>2011-12-28T10:57:15Z</time>
      </trkpt>
      <trkpt lat="43.98723" lon="3.44266">
        <ele>820</ele>
        <time>2011-12-28T10:57:23Z</time>
      </trkpt>
      <trkpt lat="43.98728" lon="3.44264">
        <ele>821</ele>
        <time>2011-12-28T10:57:32Z</time>
      </trkpt>
      <trkpt lat="43.98732" lon="3.44262">
        <ele>823</ele>
        <time>2011-12-28T10:57:39Z</time>
      </trkpt>
      <trkpt lat="43.98737" lon="3.44261">
        <ele>825</ele>
        <time>2011-12-28T10:57:47Z</time>
      </trkpt>
      <trkpt lat="43.98742" lon="3.44259">
        <ele>827</ele>
        <time>2011-12-28T10:57:56Z</time>
      </trkpt>
      <trkpt lat="43.98745" lon="3.44257">
        <ele>828</ele>
        <time>2011-12-28T10:58:02Z</time>
      </trkpt>
      <trkpt lat="43.9875" lon="3.44251">
        <ele>829</ele>
        <time>2011-12-28T10:58:11Z</time>
      </trkpt>
      <trkpt lat="43.98754" lon="3.44247">
        <ele>831</ele>
        <time>2011-12-28T10:58:19Z</time>
      </trkpt>
      <trkpt lat="43.98757" lon="3.44242">
        <ele>833</ele>
        <time>2011-12-28T10:58:28Z</time>
      </trkpt>
      <trkpt lat="43.98761" lon="3.44238">
        <ele>835</ele>
        <time>2011-12-28T10:58:35Z</time>
      </trkpt>
      <trkpt lat="43.98767" lon="3.44232">
        <ele>836</ele>
        <time>2011-12-28T10:58:45Z</time>
      </trkpt>
      <trkpt lat="43.98771" lon="3.4423">
        <ele>837</ele>
        <time>2011-12-28T10:58:53Z</time>
      </trkpt>
      <trkpt lat="43.98777" lon="3.44229">
        <ele>839</ele>
        <time>2011-12-28T10:59:03Z</time>
      </trkpt>
      <trkpt lat="43.98784" lon="3.4423">
        <ele>840</ele>
        <time>2011-12-28T10:59:12Z</time>
      </trkpt>
      <trkpt lat="43.98792" lon="3.44229">
        <ele>841</ele>
        <time>2011-12-28T10:59:21Z</time>
      </trkpt>
      <trkpt lat="43.98798" lon="3.44227">
        <ele>842</ele>
        <time>2011-12-28T10:59:28Z</time>
      </trkpt>
      <trkpt lat="43.98804" lon="3.44226">
        <ele>844</ele>
        <time>2011-12-28T10:59:35Z</time>
      </trkpt>
      <trkpt lat="43.9881" lon="3.44226">
        <ele>846</ele>
        <time>2011-12-28T10:59:41Z</time>
      </trkpt>
      <trkpt lat="43.98811" lon="3.44225">
        <ele>846</ele>
        <time>2011-12-28T10:59:42Z</time>
      </trkpt>
      <trkpt lat="43.9882" lon="3.44226">
        <ele>847</ele>
        <time>2011-12-28T10:59:53Z</time>
      </trkpt>
      <trkpt lat="43.98826" lon="3.44225">
        <ele>847</ele>
        <time>2011-12-28T11:00:03Z</time>
      </trkpt>
      <trkpt lat="43.98831" lon="3.44227">
        <ele>845</ele>
        <time>2011-12-28T11:05:51Z</time>
      </trkpt>
      <trkpt lat="43.98837" lon="3.4423">
        <ele>846</ele>
        <time>2011-12-28T11:05:59Z</time>
      </trkpt>
      <trkpt lat="43.98847" lon="3.44233">
        <ele>847</ele>
        <time>2011-12-28T11:06:09Z</time>
      </trkpt>
      <trkpt lat="43.98858" lon="3.44236">
        <ele>847</ele>
        <time>2011-12-28T11:06:20Z</time>
      </trkpt>
      <trkpt lat="43.9887" lon="3.44241">
        <ele>848</ele>
        <time>2011-12-28T11:06:32Z</time>
      </trkpt>
      <trkpt lat="43.98876" lon="3.44244">
        <ele>850</ele>
        <time>2011-12-28T11:06:41Z</time>
      </trkpt>
      <trkpt lat="43.98879" lon="3.44245">
        <ele>851</ele>
        <time>2011-12-28T11:06:45Z</time>
      </trkpt>
      <trkpt lat="43.98885" lon="3.44248">
        <ele>853</ele>
        <time>2011-12-28T11:06:55Z</time>
      </trkpt>
      <trkpt lat="43.98893" lon="3.44253">
        <ele>854</ele>
        <time>2011-12-28T11:07:05Z</time>
      </trkpt>
      <trkpt lat="43.98902" lon="3.44257">
        <ele>856</ele>
        <time>2011-12-28T11:07:15Z</time>
      </trkpt>
      <trkpt lat="43.9891" lon="3.44263">
        <ele>857</ele>
        <time>2011-12-28T11:07:26Z</time>
      </trkpt>
      <trkpt lat="43.98917" lon="3.44267">
        <ele>859</ele>
        <time>2011-12-28T11:07:36Z</time>
      </trkpt>
      <trkpt lat="43.98923" lon="3.44271">
        <ele>861</ele>
        <time>2011-12-28T11:07:44Z</time>
      </trkpt>
      <trkpt lat="43.98928" lon="3.44275">
        <ele>862</ele>
        <time>2011-12-28T11:07:52Z</time>
      </trkpt>
      <trkpt lat="43.98935" lon="3.44279">
        <ele>864</ele>
        <time>2011-12-28T11:08:01Z</time>
      </trkpt>
      <trkpt lat="43.9894" lon="3.44283">
        <ele>864</ele>
        <time>2011-12-28T11:08:09Z</time>
      </trkpt>
      <trkpt lat="43.98946" lon="3.44287">
        <ele>866</ele>
        <time>2011-12-28T11:08:18Z</time>
      </trkpt>
      <trkpt lat="43.98951" lon="3.4429">
        <ele>868</ele>
        <time>2011-12-28T11:08:25Z</time>
      </trkpt>
      <trkpt lat="43.98958" lon="3.44296">
        <ele>870</ele>
        <time>2011-12-28T11:08:36Z</time>
      </trkpt>
      <trkpt lat="43.98964" lon="3.443">
        <ele>872</ele>
        <time>2011-12-28T11:08:45Z</time>
      </trkpt>
      <trkpt lat="43.98971" lon="3.44303">
        <ele>873</ele>
        <time>2011-12-28T11:08:53Z</time>
      </trkpt>
      <trkpt lat="43.98978" lon="3.44307">
        <ele>874</ele>
        <time>2011-12-28T11:09:02Z</time>
      </trkpt>
      <trkpt lat="43.98985" lon="3.44311">
        <ele>875</ele>
        <time>2011-12-28T11:09:11Z</time>
      </trkpt>
      <trkpt lat="43.98995" lon="3.44316">
        <ele>877</ele>
        <time>2011-12-28T11:09:21Z</time>
      </trkpt>
      <trkpt lat="43.99004" lon="3.44317">
        <ele>877</ele>
        <time>2011-12-28T11:09:30Z</time>
      </trkpt>
      <trkpt lat="43.99012" lon="3.44319">
        <ele>877</ele>
        <time>2011-12-28T11:09:39Z</time>
      </trkpt>
      <trkpt lat="43.99024" lon="3.4432">
        <ele>877</ele>
        <time>2011-12-28T11:09:49Z</time>
      </trkpt>
      <trkpt lat="43.99037" lon="3.4432">
        <ele>877</ele>
        <time>2011-12-28T11:10:01Z</time>
      </trkpt>
      <trkpt lat="43.99048" lon="3.44319">
        <ele>878</ele>
        <time>2011-12-28T11:10:11Z</time>
      </trkpt>
      <trkpt lat="43.99058" lon="3.44318">
        <ele>880</ele>
        <time>2011-12-28T11:10:21Z</time>
      </trkpt>
      <trkpt lat="43.9907" lon="3.44316">
        <ele>883</ele>
        <time>2011-12-28T11:10:32Z</time>
      </trkpt>
      <trkpt lat="43.99079" lon="3.44314">
        <ele>883</ele>
        <time>2011-12-28T11:10:41Z</time>
      </trkpt>
      <trkpt lat="43.99088" lon="3.44313">
        <ele>885</ele>
        <time>2011-12-28T11:10:51Z</time>
      </trkpt>
      <trkpt lat="43.99097" lon="3.44312">
        <ele>886</ele>
        <time>2011-12-28T11:11:00Z</time>
      </trkpt>
      <trkpt lat="43.99106" lon="3.44312">
        <ele>887</ele>
        <time>2011-12-28T11:11:09Z</time>
      </trkpt>
      <trkpt lat="43.99114" lon="3.44311">
        <ele>888</ele>
        <time>2011-12-28T11:11:17Z</time>
      </trkpt>
      <trkpt lat="43.99122" lon="3.44311">
        <ele>888</ele>
        <time>2011-12-28T11:11:24Z</time>
      </trkpt>
      <trkpt lat="43.99131" lon="3.44311">
        <ele>889</ele>
        <time>2011-12-28T11:11:33Z</time>
      </trkpt>
      <trkpt lat="43.9914" lon="3.44312">
        <ele>890</ele>
        <time>2011-12-28T11:11:42Z</time>
      </trkpt>
      <trkpt lat="43.99149" lon="3.44312">
        <ele>890</ele>
        <time>2011-12-28T11:11:50Z</time>
      </trkpt>
      <trkpt lat="43.99161" lon="3.44313">
        <ele>892</ele>
        <time>2011-12-28T11:12:01Z</time>
      </trkpt>
      <trkpt lat="43.99172" lon="3.44315">
        <ele>892</ele>
        <time>2011-12-28T11:12:11Z</time>
      </trkpt>
      <trkpt lat="43.99184" lon="3.44317">
        <ele>894</ele>
        <time>2011-12-28T11:12:22Z</time>
      </trkpt>
      <trkpt lat="43.99198" lon="3.4432">
        <ele>894</ele>
        <time>2011-12-28T11:12:34Z</time>
      </trkpt>
      <trkpt lat="43.99205" lon="3.4432">
        <ele>895</ele>
        <time>2011-12-28T11:12:40Z</time>
      </trkpt>
      <trkpt lat="43.99218" lon="3.44319">
        <ele>896</ele>
        <time>2011-12-28T11:12:51Z</time>
      </trkpt>
      <trkpt lat="43.99227" lon="3.44318">
        <ele>897</ele>
        <time>2011-12-28T11:13:01Z</time>
      </trkpt>
      <trkpt lat="43.99236" lon="3.44318">
        <ele>898</ele>
        <time>2011-12-28T11:13:10Z</time>
      </trkpt>
      <trkpt lat="43.99244" lon="3.44316">
        <ele>897</ele>
        <time>2011-12-28T11:13:18Z</time>
      </trkpt>
      <trkpt lat="43.99247" lon="3.44316">
        <ele>897</ele>
        <time>2011-12-28T11:13:21Z</time>
      </trkpt>
      <trkpt lat="43.99251" lon="3.44315">
        <ele>898</ele>
        <time>2011-12-28T11:13:25Z</time>
      </trkpt>
      <trkpt lat="43.99261" lon="3.44314">
        <ele>898</ele>
        <time>2011-12-28T11:13:34Z</time>
      </trkpt>
      <trkpt lat="43.99271" lon="3.44312">
        <ele>898</ele>
        <time>2011-12-28T11:13:43Z</time>
      </trkpt>
      <trkpt lat="43.99279" lon="3.44309">
        <ele>899</ele>
        <time>2011-12-28T11:13:51Z</time>
      </trkpt>
      <trkpt lat="43.99288" lon="3.44304">
        <ele>901</ele>
        <time>2011-12-28T11:14:01Z</time>
      </trkpt>
      <trkpt lat="43.99297" lon="3.44299">
        <ele>904</ele>
        <time>2011-12-28T11:14:10Z</time>
      </trkpt>
      <trkpt lat="43.99306" lon="3.44293">
        <ele>905</ele>
        <time>2011-12-28T11:14:20Z</time>
      </trkpt>
      <trkpt lat="43.99312" lon="3.44288">
        <ele>904</ele>
        <time>2011-12-28T11:14:27Z</time>
      </trkpt>
      <trkpt lat="43.99323" lon="3.44282">
        <ele>905</ele>
        <time>2011-12-28T11:14:38Z</time>
      </trkpt>
      <trkpt lat="43.99333" lon="3.44275">
        <ele>905</ele>
        <time>2011-12-28T11:14:49Z</time>
      </trkpt>
      <trkpt lat="43.99334" lon="3.44275">
        <ele>906</ele>
        <time>2011-12-28T11:14:50Z</time>
      </trkpt>
      <trkpt lat="43.99336" lon="3.44274">
        <ele>906</ele>
        <time>2011-12-28T11:14:52Z</time>
      </trkpt>
      <trkpt lat="43.99339" lon="3.44272">
        <ele>906</ele>
        <time>2011-12-28T11:14:56Z</time>
      </trkpt>
      <trkpt lat="43.99342" lon="3.44271">
        <ele>906</ele>
        <time>2011-12-28T11:14:59Z</time>
      </trkpt>
      <trkpt lat="43.99351" lon="3.44267">
        <ele>907</ele>
        <time>2011-12-28T11:15:07Z</time>
      </trkpt>
      <trkpt lat="43.9936" lon="3.44264">
        <ele>907</ele>
        <time>2011-12-28T11:15:15Z</time>
      </trkpt>
      <trkpt lat="43.99369" lon="3.4426">
        <ele>907</ele>
        <time>2011-12-28T11:15:24Z</time>
      </trkpt>
      <trkpt lat="43.99379" lon="3.44257">
        <ele>908</ele>
        <time>2011-12-28T11:15:33Z</time>
      </trkpt>
      <trkpt lat="43.99389" lon="3.44254">
        <ele>908</ele>
        <time>2011-12-28T11:15:41Z</time>
      </trkpt>
      <trkpt lat="43.99392" lon="3.44253">
        <ele>909</ele>
        <time>2011-12-28T11:15:44Z</time>
      </trkpt>
      <trkpt lat="43.99397" lon="3.44253">
        <ele>909</ele>
        <time>2011-12-28T11:15:48Z</time>
      </trkpt>
      <trkpt lat="43.99406" lon="3.44249">
        <ele>910</ele>
        <time>2011-12-28T11:15:57Z</time>
      </trkpt>
      <trkpt lat="43.99412" lon="3.44247">
        <ele>910</ele>
        <time>2011-12-28T11:16:03Z</time>
      </trkpt>
      <trkpt lat="43.99415" lon="3.44246">
        <ele>911</ele>
        <time>2011-12-28T11:16:06Z</time>
      </trkpt>
      <trkpt lat="43.9942" lon="3.44244">
        <ele>911</ele>
        <time>2011-12-28T11:16:11Z</time>
      </trkpt>
      <trkpt lat="43.9943" lon="3.44242">
        <ele>912</ele>
        <time>2011-12-28T11:16:21Z</time>
      </trkpt>
      <trkpt lat="43.99439" lon="3.44241">
        <ele>913</ele>
        <time>2011-12-28T11:16:31Z</time>
      </trkpt>
      <trkpt lat="43.99444" lon="3.4424">
        <ele>914</ele>
        <time>2011-12-28T11:16:37Z</time>
      </trkpt>
      <trkpt lat="43.99452" lon="3.44238">
        <ele>915</ele>
        <time>2011-12-28T11:16:47Z</time>
      </trkpt>
      <trkpt lat="43.9946" lon="3.44237">
        <ele>916</ele>
        <time>2011-12-28T11:16:56Z</time>
      </trkpt>
      <trkpt lat="43.99469" lon="3.44235">
        <ele>916</ele>
        <time>2011-12-28T11:17:06Z</time>
      </trkpt>
      <trkpt lat="43.99478" lon="3.44234">
        <ele>917</ele>
        <time>2011-12-28T11:17:16Z</time>
      </trkpt>
      <trkpt lat="43.99482" lon="3.44234">
        <ele>918</ele>
        <time>2011-12-28T11:17:21Z</time>
      </trkpt>
      <trkpt lat="43.99489" lon="3.44233">
        <ele>919</ele>
        <time>2011-12-28T11:17:29Z</time>
      </trkpt>
      <trkpt lat="43.99498" lon="3.44233">
        <ele>922</ele>
        <time>2011-12-28T11:17:40Z</time>
      </trkpt>
      <trkpt lat="43.99503" lon="3.44233">
        <ele>923</ele>
        <time>2011-12-28T11:17:47Z</time>
      </trkpt>
      <trkpt lat="43.9951" lon="3.44234">
        <ele>923</ele>
        <time>2011-12-28T11:17:56Z</time>
      </trkpt>
      <trkpt lat="43.99515" lon="3.44234">
        <ele>924</ele>
        <time>2011-12-28T11:18:03Z</time>
      </trkpt>
      <trkpt lat="43.9952" lon="3.44235">
        <ele>925</ele>
        <time>2011-12-28T11:18:10Z</time>
      </trkpt>
      <trkpt lat="43.99525" lon="3.44234">
        <ele>925</ele>
        <time>2011-12-28T11:18:17Z</time>
      </trkpt>
      <trkpt lat="43.99528" lon="3.44235">
        <ele>926</ele>
        <time>2011-12-28T11:18:23Z</time>
      </trkpt>
      <trkpt lat="43.99532" lon="3.44234">
        <ele>928</ele>
        <time>2011-12-28T11:18:31Z</time>
      </trkpt>
      <trkpt lat="43.99537" lon="3.44233">
        <ele>928</ele>
        <time>2011-12-28T11:18:37Z</time>
      </trkpt>
      <trkpt lat="43.99541" lon="3.44233">
        <ele>929</ele>
        <time>2011-12-28T11:18:44Z</time>
      </trkpt>
      <trkpt lat="43.99543" lon="3.44234">
        <ele>929</ele>
        <time>2011-12-28T11:18:53Z</time>
      </trkpt>
      <trkpt lat="43.99543" lon="3.44235">
        <ele>930</ele>
        <time>2011-12-28T11:19:02Z</time>
      </trkpt>
      <trkpt lat="43.99544" lon="3.44237">
        <ele>930</ele>
        <time>2011-12-28T11:19:18Z</time>
      </trkpt>
      <trkpt lat="43.99545" lon="3.44239">
        <ele>932</ele>
        <time>2011-12-28T11:19:28Z</time>
      </trkpt>
      <trkpt lat="43.99548" lon="3.44242">
        <ele>932</ele>
        <time>2011-12-28T11:19:36Z</time>
      </trkpt>
      <trkpt lat="43.9955" lon="3.44241">
        <ele>933</ele>
        <time>2011-12-28T11:19:45Z</time>
      </trkpt>
      <trkpt lat="43.99553" lon="3.4424">
        <ele>934</ele>
        <time>2011-12-28T11:19:54Z</time>
      </trkpt>
      <trkpt lat="43.99554" lon="3.44238">
        <ele>934</ele>
        <time>2011-12-28T11:20:03Z</time>
      </trkpt>
      <trkpt lat="43.99558" lon="3.44238">
        <ele>936</ele>
        <time>2011-12-28T11:20:10Z</time>
      </trkpt>
      <trkpt lat="43.99558" lon="3.44238">
        <ele>936</ele>
        <time>2011-12-28T11:20:11Z</time>
      </trkpt>
      <trkpt lat="43.99562" lon="3.44238">
        <ele>937</ele>
        <time>2011-12-28T11:20:17Z</time>
      </trkpt>
      <trkpt lat="43.99568" lon="3.44236">
        <ele>939</ele>
        <time>2011-12-28T11:20:27Z</time>
      </trkpt>
      <trkpt lat="43.99572" lon="3.44236">
        <ele>940</ele>
        <time>2011-12-28T11:20:34Z</time>
      </trkpt>
      <trkpt lat="43.99575" lon="3.44237">
        <ele>941</ele>
        <time>2011-12-28T11:20:39Z</time>
      </trkpt>
      <trkpt lat="43.99578" lon="3.44238">
        <ele>941</ele>
        <time>2011-12-28T11:20:45Z</time>
      </trkpt>
      <trkpt lat="43.99583" lon="3.44237">
        <ele>942</ele>
        <time>2011-12-28T11:20:53Z</time>
      </trkpt>
      <trkpt lat="43.9959" lon="3.44236">
        <ele>944</ele>
        <time>2011-12-28T11:21:02Z</time>
      </trkpt>
      <trkpt lat="43.99596" lon="3.44235">
        <ele>947</ele>
        <time>2011-12-28T11:21:11Z</time>
      </trkpt>
      <trkpt lat="43.99604" lon="3.4423">
        <ele>947</ele>
        <time>2011-12-28T11:21:21Z</time>
      </trkpt>
      <trkpt lat="43.9961" lon="3.44225">
        <ele>947</ele>
        <time>2011-12-28T11:21:30Z</time>
      </trkpt>
      <trkpt lat="43.99617" lon="3.4422">
        <ele>949</ele>
        <time>2011-12-28T11:21:39Z</time>
      </trkpt>
      <trkpt lat="43.99624" lon="3.44218">
        <ele>949</ele>
        <time>2011-12-28T11:21:48Z</time>
      </trkpt>
      <trkpt lat="43.99633" lon="3.44211">
        <ele>949</ele>
        <time>2011-12-28T11:22:00Z</time>
      </trkpt>
      <trkpt lat="43.99635" lon="3.44209">
        <ele>949</ele>
        <time>2011-12-28T11:22:07Z</time>
      </trkpt>
      <trkpt lat="43.99637" lon="3.44205">
        <ele>951</ele>
        <time>2011-12-28T11:22:15Z</time>
      </trkpt>
      <trkpt lat="43.99639" lon="3.44196">
        <ele>951</ele>
        <time>2011-12-28T11:22:24Z</time>
      </trkpt>
      <trkpt lat="43.99646" lon="3.44184">
        <ele>953</ele>
        <time>2011-12-28T11:22:35Z</time>
      </trkpt>
      <trkpt lat="43.99649" lon="3.4418">
        <ele>954</ele>
        <time>2011-12-28T11:22:43Z</time>
      </trkpt>
      <trkpt lat="43.99652" lon="3.44178">
        <ele>955</ele>
        <time>2011-12-28T11:22:49Z</time>
      </trkpt>
      <trkpt lat="43.99657" lon="3.44172">
        <ele>956</ele>
        <time>2011-12-28T11:22:59Z</time>
      </trkpt>
      <trkpt lat="43.9966" lon="3.44166">
        <ele>957</ele>
        <time>2011-12-28T11:23:09Z</time>
      </trkpt>
      <trkpt lat="43.99662" lon="3.44162">
        <ele>959</ele>
        <time>2011-12-28T11:23:15Z</time>
      </trkpt>
      <trkpt lat="43.99665" lon="3.44158">
        <ele>960</ele>
        <time>2011-12-28T11:23:23Z</time>
      </trkpt>
      <trkpt lat="43.99668" lon="3.44155">
        <ele>962</ele>
        <time>2011-12-28T11:23:30Z</time>
      </trkpt>
      <trkpt lat="43.99671" lon="3.44153">
        <ele>962</ele>
        <time>2011-12-28T11:23:38Z</time>
      </trkpt>
      <trkpt lat="43.99675" lon="3.4415">
        <ele>965</ele>
        <time>2011-12-28T11:23:47Z</time>
      </trkpt>
      <trkpt lat="43.99678" lon="3.44147">
        <ele>966</ele>
        <time>2011-12-28T11:23:54Z</time>
      </trkpt>
      <trkpt lat="43.99682" lon="3.44144">
        <ele>967</ele>
        <time>2011-12-28T11:24:04Z</time>
      </trkpt>
      <trkpt lat="43.99685" lon="3.44142">
        <ele>969</ele>
        <time>2011-12-28T11:24:13Z</time>
      </trkpt>
      <trkpt lat="43.99687" lon="3.4414">
        <ele>970</ele>
        <time>2011-12-28T11:24:20Z</time>
      </trkpt>
      <trkpt lat="43.9969" lon="3.44138">
        <ele>970</ele>
        <time>2011-12-28T11:24:27Z</time>
      </trkpt>
      <trkpt lat="43.99692" lon="3.44134">
        <ele>972</ele>
        <time>2011-12-28T11:24:35Z</time>
      </trkpt>
      <trkpt lat="43.99695" lon="3.44129">
        <ele>973</ele>
        <time>2011-12-28T11:24:44Z</time>
      </trkpt>
      <trkpt lat="43.99698" lon="3.44124">
        <ele>974</ele>
        <time>2011-12-28T11:24:52Z</time>
      </trkpt>
      <trkpt lat="43.99701" lon="3.44121">
        <ele>977</ele>
        <time>2011-12-28T11:25:00Z</time>
      </trkpt>
      <trkpt lat="43.99703" lon="3.44119">
        <ele>978</ele>
        <time>2011-12-28T11:25:06Z</time>
      </trkpt>
      <trkpt lat="43.99706" lon="3.44116">
        <ele>980</ele>
        <time>2011-12-28T11:25:13Z</time>
      </trkpt>
      <trkpt lat="43.99709" lon="3.44113">
        <ele>981</ele>
        <time>2011-12-28T11:25:22Z</time>
      </trkpt>
      <trkpt lat="43.99711" lon="3.44108">
        <ele>984</ele>
        <time>2011-12-28T11:25:30Z</time>
      </trkpt>
      <trkpt lat="43.99713" lon="3.44104">
        <ele>985</ele>
        <time>2011-12-28T11:25:39Z</time>
      </trkpt>
      <trkpt lat="43.99716" lon="3.44098">
        <ele>986</ele>
        <time>2011-12-28T11:25:47Z</time>
      </trkpt>
      <trkpt lat="43.99719" lon="3.44094">
        <ele>986</ele>
        <time>2011-12-28T11:25:56Z</time>
      </trkpt>
      <trkpt lat="43.9972" lon="3.44094">
        <ele>987</ele>
        <time>2011-12-28T11:26:07Z</time>
      </trkpt>
      <trkpt lat="43.99726" lon="3.44094">
        <ele>987</ele>
        <time>2011-12-28T11:26:42Z</time>
      </trkpt>
      <trkpt lat="43.99729" lon="3.44091">
        <ele>987</ele>
        <time>2011-12-28T11:26:51Z</time>
      </trkpt>
      <trkpt lat="43.99731" lon="3.44089">
        <ele>989</ele>
        <time>2011-12-28T11:26:58Z</time>
      </trkpt>
      <trkpt lat="43.99733" lon="3.44087">
        <ele>991</ele>
        <time>2011-12-28T11:27:07Z</time>
      </trkpt>
      <trkpt lat="43.99736" lon="3.44083">
        <ele>993</ele>
        <time>2011-12-28T11:27:16Z</time>
      </trkpt>
      <trkpt lat="43.99739" lon="3.44081">
        <ele>995</ele>
        <time>2011-12-28T11:27:22Z</time>
      </trkpt>
      <trkpt lat="43.99743" lon="3.44076">
        <ele>997</ele>
        <time>2011-12-28T11:27:32Z</time>
      </trkpt>
      <trkpt lat="43.99747" lon="3.44073">
        <ele>998</ele>
        <time>2011-12-28T11:27:39Z</time>
      </trkpt>
      <trkpt lat="43.9975" lon="3.4407">
        <ele>998</ele>
        <time>2011-12-28T11:27:47Z</time>
      </trkpt>
      <trkpt lat="43.99754" lon="3.44065">
        <ele>1000</ele>
        <time>2011-12-28T11:27:55Z</time>
      </trkpt>
      <trkpt lat="43.99755" lon="3.44062">
        <ele>1001</ele>
        <time>2011-12-28T11:28:00Z</time>
      </trkpt>
      <trkpt lat="43.99759" lon="3.44057">
        <ele>1003</ele>
        <time>2011-12-28T11:28:09Z</time>
      </trkpt>
      <trkpt lat="43.99762" lon="3.44052">
        <ele>1005</ele>
        <time>2011-12-28T11:28:19Z</time>
      </trkpt>
      <trkpt lat="43.99765" lon="3.44048">
        <ele>1006</ele>
        <time>2011-12-28T11:28:27Z</time>
      </trkpt>
      <trkpt lat="43.99768" lon="3.44044">
        <ele>1007</ele>
        <time>2011-12-28T11:28:35Z</time>
      </trkpt>
      <trkpt lat="43.99772" lon="3.44042">
        <ele>1008</ele>
        <time>2011-12-28T11:28:44Z</time>
      </trkpt>
      <trkpt lat="43.99776" lon="3.44037">
        <ele>1010</ele>
        <time>2011-12-28T11:28:53Z</time>
      </trkpt>
      <trkpt lat="43.99782" lon="3.44031">
        <ele>1011</ele>
        <time>2011-12-28T11:29:03Z</time>
      </trkpt>
      <trkpt lat="43.99787" lon="3.4403">
        <ele>1012</ele>
        <time>2011-12-28T11:29:12Z</time>
      </trkpt>
      <trkpt lat="43.9979" lon="3.44029">
        <ele>1013</ele>
        <time>2011-12-28T11:29:16Z</time>
      </trkpt>
      <trkpt lat="43.99796" lon="3.44027">
        <ele>1014</ele>
        <time>2011-12-28T11:29:24Z</time>
      </trkpt>
      <trkpt lat="43.99803" lon="3.44021">
        <ele>1016</ele>
        <time>2011-12-28T11:29:34Z</time>
      </trkpt>
      <trkpt lat="43.99807" lon="3.44018">
        <ele>1017</ele>
        <time>2011-12-28T11:29:40Z</time>
      </trkpt>
      <trkpt lat="43.99811" lon="3.44018">
        <ele>1015</ele>
        <time>2011-12-28T11:29:43Z</time>
      </trkpt>
      <trkpt lat="43.99813" lon="3.4402">
        <ele>1016</ele>
        <time>2011-12-28T11:29:45Z</time>
      </trkpt>
      <trkpt lat="43.99814" lon="3.44022">
        <ele>1015</ele>
        <time>2011-12-28T11:29:47Z</time>
      </trkpt>
      <trkpt lat="43.99816" lon="3.44025">
        <ele>1014</ele>
        <time>2011-12-28T11:29:49Z</time>
      </trkpt>
      <trkpt lat="43.99824" lon="3.44034">
        <ele>1012</ele>
        <time>2011-12-28T11:29:59Z</time>
      </trkpt>
      <trkpt lat="43.99834" lon="3.44042">
        <ele>1012</ele>
        <time>2011-12-28T11:30:10Z</time>
      </trkpt>
      <trkpt lat="43.99844" lon="3.44049">
        <ele>1011</ele>
        <time>2011-12-28T11:30:20Z</time>
      </trkpt>
      <trkpt lat="43.99855" lon="3.44056">
        <ele>1008</ele>
        <time>2011-12-28T11:30:31Z</time>
      </trkpt>
      <trkpt lat="43.99865" lon="3.44062">
        <ele>1006</ele>
        <time>2011-12-28T11:30:41Z</time>
      </trkpt>
      <trkpt lat="43.99878" lon="3.44071">
        <ele>1006</ele>
        <time>2011-12-28T11:30:52Z</time>
      </trkpt>
      <trkpt lat="43.99888" lon="3.44079">
        <ele>1007</ele>
        <time>2011-12-28T11:31:03Z</time>
      </trkpt>
      <trkpt lat="43.99897" lon="3.44084">
        <ele>1008</ele>
        <time>2011-12-28T11:31:13Z</time>
      </trkpt>
      <trkpt lat="43.99904" lon="3.4409">
        <ele>1009</ele>
        <time>2011-12-28T11:31:21Z</time>
      </trkpt>
      <trkpt lat="43.99908" lon="3.44093">
        <ele>1010</ele>
        <time>2011-12-28T11:31:28Z</time>
      </trkpt>
      <trkpt lat="43.9991" lon="3.44095">
        <ele>1010</ele>
        <time>2011-12-28T11:31:34Z</time>
      </trkpt>
      <trkpt lat="43.99912" lon="3.44099">
        <ele>1010</ele>
        <time>2011-12-28T11:31:38Z</time>
      </trkpt>
      <trkpt lat="43.99915" lon="3.44103">
        <ele>1011</ele>
        <time>2011-12-28T11:31:45Z</time>
      </trkpt>
      <trkpt lat="43.99916" lon="3.44105">
        <ele>1010</ele>
        <time>2011-12-28T11:31:46Z</time>
      </trkpt>
      <trkpt lat="43.99923" lon="3.44113">
        <ele>1008</ele>
        <time>2011-12-28T11:31:54Z</time>
      </trkpt>
      <trkpt lat="43.99931" lon="3.44122">
        <ele>1005</ele>
        <time>2011-12-28T11:32:04Z</time>
      </trkpt>
      <trkpt lat="43.99945" lon="3.4413">
        <ele>1003</ele>
        <time>2011-12-28T11:32:16Z</time>
      </trkpt>
      <trkpt lat="43.99948" lon="3.44131">
        <ele>1004</ele>
        <time>2011-12-28T11:32:18Z</time>
      </trkpt>
      <trkpt lat="43.99957" lon="3.44136">
        <ele>1005</ele>
        <time>2011-12-28T11:32:27Z</time>
      </trkpt>
      <trkpt lat="43.99967" lon="3.44143">
        <ele>1006</ele>
        <time>2011-12-28T11:32:38Z</time>
      </trkpt>
      <trkpt lat="43.99975" lon="3.44147">
        <ele>1006</ele>
        <time>2011-12-28T11:32:46Z</time>
      </trkpt>
      <trkpt lat="43.99983" lon="3.44151">
        <ele>1006</ele>
        <time>2011-12-28T11:32:54Z</time>
      </trkpt>
      <trkpt lat="43.99988" lon="3.44153">
        <ele>1007</ele>
        <time>2011-12-28T11:33:01Z</time>
      </trkpt>
      <trkpt lat="43.99991" lon="3.44154">
        <ele>1010</ele>
        <time>2011-12-28T11:33:06Z</time>
      </trkpt>
      <trkpt lat="43.99995" lon="3.44155">
        <ele>1011</ele>
        <time>2011-12-28T11:33:14Z</time>
      </trkpt>
      <trkpt lat="44.00003" lon="3.4416">
        <ele>1010</ele>
        <time>2011-12-28T11:33:22Z</time>
      </trkpt>
      <trkpt lat="44.00014" lon="3.4417">
        <ele>1010</ele>
        <time>2011-12-28T11:33:34Z</time>
      </trkpt>
      <trkpt lat="44.00023" lon="3.44179">
        <ele>1010</ele>
        <time>2011-12-28T11:33:45Z</time>
      </trkpt>
      <trkpt lat="44.00032" lon="3.44191">
        <ele>1010</ele>
        <time>2011-12-28T11:33:57Z</time>
      </trkpt>
      <trkpt lat="44.00037" lon="3.44199">
        <ele>1011</ele>
        <time>2011-12-28T11:34:06Z</time>
      </trkpt>
      <trkpt lat="44.00044" lon="3.44207">
        <ele>1011</ele>
        <time>2011-12-28T11:34:16Z</time>
      </trkpt>
      <trkpt lat="44.00052" lon="3.44213">
        <ele>1013</ele>
        <time>2011-12-28T11:34:26Z</time>
      </trkpt>
      <trkpt lat="44.0006" lon="3.44218">
        <ele>1013</ele>
        <time>2011-12-28T11:34:36Z</time>
      </trkpt>
      <trkpt lat="44.00062" lon="3.44219">
        <ele>1015</ele>
        <time>2011-12-28T11:34:39Z</time>
      </trkpt>
      <trkpt lat="44.00069" lon="3.44225">
        <ele>1017</ele>
        <time>2011-12-28T11:34:48Z</time>
      </trkpt>
      <trkpt lat="44.00076" lon="3.44234">
        <ele>1017</ele>
        <time>2011-12-28T11:34:58Z</time>
      </trkpt>
      <trkpt lat="44.0008" lon="3.44238">
        <ele>1019</ele>
        <time>2011-12-28T11:35:05Z</time>
      </trkpt>
      <trkpt lat="44.00086" lon="3.44246">
        <ele>1019</ele>
        <time>2011-12-28T11:35:14Z</time>
      </trkpt>
      <trkpt lat="44.00091" lon="3.44252">
        <ele>1021</ele>
        <time>2011-12-28T11:35:21Z</time>
      </trkpt>
      <trkpt lat="44.00096" lon="3.44258">
        <ele>1022</ele>
        <time>2011-12-28T11:35:29Z</time>
      </trkpt>
      <trkpt lat="44.00102" lon="3.44264">
        <ele>1024</ele>
        <time>2011-12-28T11:35:38Z</time>
      </trkpt>
      <trkpt lat="44.00106" lon="3.44269">
        <ele>1024</ele>
        <time>2011-12-28T11:35:45Z</time>
      </trkpt>
      <trkpt lat="44.00115" lon="3.44275">
        <ele>1026</ele>
        <time>2011-12-28T11:35:56Z</time>
      </trkpt>
      <trkpt lat="44.00122" lon="3.4428">
        <ele>1027</ele>
        <time>2011-12-28T11:36:05Z</time>
      </trkpt>
      <trkpt lat="44.0013" lon="3.44285">
        <ele>1027</ele>
        <time>2011-12-28T11:36:14Z</time>
      </trkpt>
      <trkpt lat="44.00137" lon="3.44289">
        <ele>1029</ele>
        <time>2011-12-28T11:36:22Z</time>
      </trkpt>
      <trkpt lat="44.00146" lon="3.44292">
        <ele>1030</ele>
        <time>2011-12-28T11:36:31Z</time>
      </trkpt>
      <trkpt lat="44.00155" lon="3.44296">
        <ele>1032</ele>
        <time>2011-12-28T11:36:41Z</time>
      </trkpt>
      <trkpt lat="44.00164" lon="3.443">
        <ele>1034</ele>
        <time>2011-12-28T11:36:51Z</time>
      </trkpt>
      <trkpt lat="44.00173" lon="3.44305">
        <ele>1035</ele>
        <time>2011-12-28T11:37:01Z</time>
      </trkpt>
      <trkpt lat="44.00177" lon="3.44307">
        <ele>1036</ele>
        <time>2011-12-28T11:37:05Z</time>
      </trkpt>
      <trkpt lat="44.00185" lon="3.44311">
        <ele>1036</ele>
        <time>2011-12-28T11:37:14Z</time>
      </trkpt>
      <trkpt lat="44.00192" lon="3.44315">
        <ele>1037</ele>
        <time>2011-12-28T11:37:23Z</time>
      </trkpt>
      <trkpt lat="44.00197" lon="3.44319">
        <ele>1039</ele>
        <time>2011-12-28T11:37:31Z</time>
      </trkpt>
      <trkpt lat="44.00204" lon="3.44325">
        <ele>1039</ele>
        <time>2011-12-28T11:37:39Z</time>
      </trkpt>
      <trkpt lat="44.00211" lon="3.44331">
        <ele>1039</ele>
        <time>2011-12-28T11:37:48Z</time>
      </trkpt>
      <trkpt lat="44.00214" lon="3.44334">
        <ele>1040</ele>
        <time>2011-12-28T11:37:51Z</time>
      </trkpt>
      <trkpt lat="44.00221" lon="3.44341">
        <ele>1042</ele>
        <time>2011-12-28T11:38:01Z</time>
      </trkpt>
      <trkpt lat="44.00224" lon="3.44345">
        <ele>1043</ele>
        <time>2011-12-28T11:38:05Z</time>
      </trkpt>
      <trkpt lat="44.00232" lon="3.44351">
        <ele>1043</ele>
        <time>2011-12-28T11:38:14Z</time>
      </trkpt>
      <trkpt lat="44.00241" lon="3.44358">
        <ele>1044</ele>
        <time>2011-12-28T11:38:24Z</time>
      </trkpt>
      <trkpt lat="44.00249" lon="3.44365">
        <ele>1045</ele>
        <time>2011-12-28T11:38:33Z</time>
      </trkpt>
      <trkpt lat="44.00258" lon="3.44372">
        <ele>1044</ele>
        <time>2011-12-28T11:38:43Z</time>
      </trkpt>
      <trkpt lat="44.00271" lon="3.4438">
        <ele>1043</ele>
        <time>2011-12-28T11:38:55Z</time>
      </trkpt>
      <trkpt lat="44.0028" lon="3.44386">
        <ele>1043</ele>
        <time>2011-12-28T11:39:05Z</time>
      </trkpt>
      <trkpt lat="44.00283" lon="3.44389">
        <ele>1047</ele>
        <time>2011-12-28T11:39:09Z</time>
      </trkpt>
      <trkpt lat="44.00288" lon="3.44396">
        <ele>1046</ele>
        <time>2011-12-28T11:39:17Z</time>
      </trkpt>
      <trkpt lat="44.00291" lon="3.44401">
        <ele>1047</ele>
        <time>2011-12-28T11:39:22Z</time>
      </trkpt>
      <trkpt lat="44.00296" lon="3.44408">
        <ele>1048</ele>
        <time>2011-12-28T11:39:31Z</time>
      </trkpt>
      <trkpt lat="44.00298" lon="3.4441">
        <ele>1050</ele>
        <time>2011-12-28T11:39:34Z</time>
      </trkpt>
      <trkpt lat="44.00301" lon="3.44413">
        <ele>1051</ele>
        <time>2011-12-28T11:39:40Z</time>
      </trkpt>
      <trkpt lat="44.00305" lon="3.44417">
        <ele>1051</ele>
        <time>2011-12-28T11:39:47Z</time>
      </trkpt>
      <trkpt lat="44.00309" lon="3.44422">
        <ele>1050</ele>
        <time>2011-12-28T11:39:55Z</time>
      </trkpt>
      <trkpt lat="44.00314" lon="3.44427">
        <ele>1052</ele>
        <time>2011-12-28T11:40:04Z</time>
      </trkpt>
      <trkpt lat="44.0032" lon="3.44433">
        <ele>1051</ele>
        <time>2011-12-28T11:40:13Z</time>
      </trkpt>
      <trkpt lat="44.00328" lon="3.44442">
        <ele>1054</ele>
        <time>2011-12-28T11:40:24Z</time>
      </trkpt>
      <trkpt lat="44.00336" lon="3.4445">
        <ele>1054</ele>
        <time>2011-12-28T11:40:34Z</time>
      </trkpt>
      <trkpt lat="44.00342" lon="3.44456">
        <ele>1056</ele>
        <time>2011-12-28T11:40:43Z</time>
      </trkpt>
      <trkpt lat="44.00346" lon="3.44459">
        <ele>1058</ele>
        <time>2011-12-28T11:40:51Z</time>
      </trkpt>
      <trkpt lat="44.00349" lon="3.44463">
        <ele>1059</ele>
        <time>2011-12-28T11:40:58Z</time>
      </trkpt>
      <trkpt lat="44.00355" lon="3.44469">
        <ele>1059</ele>
        <time>2011-12-28T11:41:09Z</time>
      </trkpt>
      <trkpt lat="44.00359" lon="3.44473">
        <ele>1060</ele>
        <time>2011-12-28T11:41:17Z</time>
      </trkpt>
      <trkpt lat="44.00362" lon="3.44476">
        <ele>1061</ele>
        <time>2011-12-28T11:41:24Z</time>
      </trkpt>
      <trkpt lat="44.00364" lon="3.4448">
        <ele>1063</ele>
        <time>2011-12-28T11:41:30Z</time>
      </trkpt>
      <trkpt lat="44.00367" lon="3.44483">
        <ele>1063</ele>
        <time>2011-12-28T11:41:37Z</time>
      </trkpt>
      <trkpt lat="44.0037" lon="3.44487">
        <ele>1065</ele>
        <time>2011-12-28T11:41:45Z</time>
      </trkpt>
      <trkpt lat="44.00373" lon="3.44491">
        <ele>1066</ele>
        <time>2011-12-28T11:41:53Z</time>
      </trkpt>
      <trkpt lat="44.00376" lon="3.44495">
        <ele>1067</ele>
        <time>2011-12-28T11:41:59Z</time>
      </trkpt>
      <trkpt lat="44.00377" lon="3.44496">
        <ele>1069</ele>
        <time>2011-12-28T11:42:01Z</time>
      </trkpt>
      <trkpt lat="44.0038" lon="3.445">
        <ele>1068</ele>
        <time>2011-12-28T11:42:10Z</time>
      </trkpt>
      <trkpt lat="44.00384" lon="3.44505">
        <ele>1068</ele>
        <time>2011-12-28T11:42:20Z</time>
      </trkpt>
      <trkpt lat="44.00385" lon="3.44506">
        <ele>1070</ele>
        <time>2011-12-28T11:42:23Z</time>
      </trkpt>
      <trkpt lat="44.00388" lon="3.4451">
        <ele>1070</ele>
        <time>2011-12-28T11:42:31Z</time>
      </trkpt>
      <trkpt lat="44.00391" lon="3.44513">
        <ele>1071</ele>
        <time>2011-12-28T11:42:38Z</time>
      </trkpt>
      <trkpt lat="44.00392" lon="3.44516">
        <ele>1073</ele>
        <time>2011-12-28T11:42:43Z</time>
      </trkpt>
      <trkpt lat="44.00395" lon="3.44519">
        <ele>1073</ele>
        <time>2011-12-28T11:42:50Z</time>
      </trkpt>
      <trkpt lat="44.00397" lon="3.44522">
        <ele>1074</ele>
        <time>2011-12-28T11:42:58Z</time>
      </trkpt>
      <trkpt lat="44.004" lon="3.44525">
        <ele>1075</ele>
        <time>2011-12-28T11:43:06Z</time>
      </trkpt>
      <trkpt lat="44.00403" lon="3.44528">
        <ele>1078</ele>
        <time>2011-12-28T11:43:13Z</time>
      </trkpt>
      <trkpt lat="44.00403" lon="3.44529">
        <ele>1078</ele>
        <time>2011-12-28T11:43:14Z</time>
      </trkpt>
      <trkpt lat="44.00405" lon="3.4453">
        <ele>1080</ele>
        <time>2011-12-28T11:43:17Z</time>
      </trkpt>
      <trkpt lat="44.00409" lon="3.44535">
        <ele>1080</ele>
        <time>2011-12-28T11:43:27Z</time>
      </trkpt>
      <trkpt lat="44.00413" lon="3.4454">
        <ele>1081</ele>
        <time>2011-12-28T11:43:36Z</time>
      </trkpt>
      <trkpt lat="44.00415" lon="3.44542">
        <ele>1081</ele>
        <time>2011-12-28T11:43:44Z</time>
      </trkpt>
      <trkpt lat="44.00417" lon="3.44546">
        <ele>1084</ele>
        <time>2011-12-28T11:43:50Z</time>
      </trkpt>
      <trkpt lat="44.00421" lon="3.44548">
        <ele>1084</ele>
        <time>2011-12-28T11:43:59Z</time>
      </trkpt>
      <trkpt lat="44.00427" lon="3.44553">
        <ele>1086</ele>
        <time>2011-12-28T11:44:09Z</time>
      </trkpt>
      <trkpt lat="44.00429" lon="3.44555">
        <ele>1086</ele>
        <time>2011-12-28T11:44:16Z</time>
      </trkpt>
      <trkpt lat="44.00434" lon="3.44559">
        <ele>1088</ele>
        <time>2011-12-28T11:44:24Z</time>
      </trkpt>
      <trkpt lat="44.00439" lon="3.44562">
        <ele>1090</ele>
        <time>2011-12-28T11:44:32Z</time>
      </trkpt>
      <trkpt lat="44.00445" lon="3.44569">
        <ele>1091</ele>
        <time>2011-12-28T11:44:44Z</time>
      </trkpt>
      <trkpt lat="44.00449" lon="3.44572">
        <ele>1093</ele>
        <time>2011-12-28T11:44:51Z</time>
      </trkpt>
      <trkpt lat="44.00453" lon="3.44577">
        <ele>1093</ele>
        <time>2011-12-28T11:45:00Z</time>
      </trkpt>
      <trkpt lat="44.00458" lon="3.4458">
        <ele>1094</ele>
        <time>2011-12-28T11:45:08Z</time>
      </trkpt>
      <trkpt lat="44.00463" lon="3.44583">
        <ele>1096</ele>
        <time>2011-12-28T11:45:16Z</time>
      </trkpt>
      <trkpt lat="44.00468" lon="3.44587">
        <ele>1096</ele>
        <time>2011-12-28T11:45:25Z</time>
      </trkpt>
      <trkpt lat="44.00472" lon="3.4459">
        <ele>1097</ele>
        <time>2011-12-28T11:45:34Z</time>
      </trkpt>
      <trkpt lat="44.00476" lon="3.44592">
        <ele>1098</ele>
        <time>2011-12-28T11:45:41Z</time>
      </trkpt>
      <trkpt lat="44.0048" lon="3.44595">
        <ele>1099</ele>
        <time>2011-12-28T11:45:49Z</time>
      </trkpt>
      <trkpt lat="44.00485" lon="3.44599">
        <ele>1100</ele>
        <time>2011-12-28T11:46:00Z</time>
      </trkpt>
      <trkpt lat="44.0049" lon="3.44601">
        <ele>1101</ele>
        <time>2011-12-28T11:46:09Z</time>
      </trkpt>
      <trkpt lat="44.00494" lon="3.44602">
        <ele>1102</ele>
        <time>2011-12-28T11:46:17Z</time>
      </trkpt>
      <trkpt lat="44.00496" lon="3.44602">
        <ele>1104</ele>
        <time>2011-12-28T11:46:21Z</time>
      </trkpt>
      <trkpt lat="44.005" lon="3.44602">
        <ele>1104</ele>
        <time>2011-12-28T11:46:28Z</time>
      </trkpt>
      <trkpt lat="44.00504" lon="3.44603">
        <ele>1105</ele>
        <time>2011-12-28T11:46:36Z</time>
      </trkpt>
      <trkpt lat="44.00508" lon="3.44603">
        <ele>1107</ele>
        <time>2011-12-28T11:46:45Z</time>
      </trkpt>
      <trkpt lat="44.00514" lon="3.44603">
        <ele>1109</ele>
        <time>2011-12-28T11:46:55Z</time>
      </trkpt>
      <trkpt lat="44.00519" lon="3.44603">
        <ele>1110</ele>
        <time>2011-12-28T11:47:02Z</time>
      </trkpt>
      <trkpt lat="44.00521" lon="3.44604">
        <ele>1112</ele>
        <time>2011-12-28T11:47:06Z</time>
      </trkpt>
      <trkpt lat="44.00526" lon="3.44605">
        <ele>1112</ele>
        <time>2011-12-28T11:47:14Z</time>
      </trkpt>
      <trkpt lat="44.0053" lon="3.44604">
        <ele>1112</ele>
        <time>2011-12-28T11:47:22Z</time>
      </trkpt>
      <trkpt lat="44.00533" lon="3.44604">
        <ele>1116</ele>
        <time>2011-12-28T11:47:28Z</time>
      </trkpt>
      <trkpt lat="44.00537" lon="3.44604">
        <ele>1116</ele>
        <time>2011-12-28T11:47:35Z</time>
      </trkpt>
      <trkpt lat="44.00542" lon="3.44604">
        <ele>1118</ele>
        <time>2011-12-28T11:47:44Z</time>
      </trkpt>
      <trkpt lat="44.00546" lon="3.44604">
        <ele>1119</ele>
        <time>2011-12-28T11:47:54Z</time>
      </trkpt>
      <trkpt lat="44.00549" lon="3.44604">
        <ele>1119</ele>
        <time>2011-12-28T11:48:01Z</time>
      </trkpt>
      <trkpt lat="44.00552" lon="3.44604">
        <ele>1120</ele>
        <time>2011-12-28T11:48:09Z</time>
      </trkpt>
      <trkpt lat="44.00555" lon="3.44604">
        <ele>1121</ele>
        <time>2011-12-28T11:48:16Z</time>
      </trkpt>
      <trkpt lat="44.00556" lon="3.44605">
        <ele>1122</ele>
        <time>2011-12-28T11:48:19Z</time>
      </trkpt>
      <trkpt lat="44.00561" lon="3.44605">
        <ele>1124</ele>
        <time>2011-12-28T11:48:30Z</time>
      </trkpt>
      <trkpt lat="44.00565" lon="3.44605">
        <ele>1125</ele>
        <time>2011-12-28T11:48:39Z</time>
      </trkpt>
      <trkpt lat="44.00569" lon="3.44604">
        <ele>1126</ele>
        <time>2011-12-28T11:48:47Z</time>
      </trkpt>
      <trkpt lat="44.00573" lon="3.44604">
        <ele>1129</ele>
        <time>2011-12-28T11:48:54Z</time>
      </trkpt>
      <trkpt lat="44.00576" lon="3.44603">
        <ele>1131</ele>
        <time>2011-12-28T11:49:01Z</time>
      </trkpt>
      <trkpt lat="44.0058" lon="3.44603">
        <ele>1131</ele>
        <time>2011-12-28T11:49:09Z</time>
      </trkpt>
      <trkpt lat="44.00585" lon="3.44601">
        <ele>1132</ele>
        <time>2011-12-28T11:49:19Z</time>
      </trkpt>
      <trkpt lat="44.0059" lon="3.44601">
        <ele>1134</ele>
        <time>2011-12-28T11:49:27Z</time>
      </trkpt>
      <trkpt lat="44.00594" lon="3.446">
        <ele>1134</ele>
        <time>2011-12-28T11:49:34Z</time>
      </trkpt>
      <trkpt lat="44.00597" lon="3.44598">
        <ele>1135</ele>
        <time>2011-12-28T11:49:39Z</time>
      </trkpt>
      <trkpt lat="44.00602" lon="3.44597">
        <ele>1137</ele>
        <time>2011-12-28T11:49:47Z</time>
      </trkpt>
      <trkpt lat="44.00609" lon="3.44594">
        <ele>1137</ele>
        <time>2011-12-28T11:49:57Z</time>
      </trkpt>
      <trkpt lat="44.00612" lon="3.44594">
        <ele>1139</ele>
        <time>2011-12-28T11:50:01Z</time>
      </trkpt>
      <trkpt lat="44.00615" lon="3.44594">
        <ele>1140</ele>
        <time>2011-12-28T11:50:08Z</time>
      </trkpt>
      <trkpt lat="44.00621" lon="3.44595">
        <ele>1138</ele>
        <time>2011-12-28T11:59:00Z</time>
      </trkpt>
      <trkpt lat="44.00622" lon="3.44595">
        <ele>1139</ele>
        <time>2011-12-28T11:59:10Z</time>
      </trkpt>
      <trkpt lat="44.00625" lon="3.44595">
        <ele>1138</ele>
        <time>2011-12-28T11:59:20Z</time>
      </trkpt>
      <trkpt lat="44.00628" lon="3.44596">
        <ele>1140</ele>
        <time>2011-12-28T11:59:24Z</time>
      </trkpt>
      <trkpt lat="44.00632" lon="3.44597">
        <ele>1139</ele>
        <time>2011-12-28T11:59:28Z</time>
      </trkpt>
      <trkpt lat="44.00635" lon="3.44596">
        <ele>1142</ele>
        <time>2011-12-28T11:59:31Z</time>
      </trkpt>
      <trkpt lat="44.00645" lon="3.44598">
        <ele>1141</ele>
        <time>2011-12-28T11:59:41Z</time>
      </trkpt>
      <trkpt lat="44.00656" lon="3.44603">
        <ele>1141</ele>
        <time>2011-12-28T11:59:52Z</time>
      </trkpt>
      <trkpt lat="44.00657" lon="3.44603">
        <ele>1141</ele>
        <time>2011-12-28T11:59:53Z</time>
      </trkpt>
      <trkpt lat="44.00665" lon="3.44608">
        <ele>1140</ele>
        <time>2011-12-28T12:00:02Z</time>
      </trkpt>
      <trkpt lat="44.00674" lon="3.44611">
        <ele>1141</ele>
        <time>2011-12-28T12:00:10Z</time>
      </trkpt>
      <trkpt lat="44.00685" lon="3.44618">
        <ele>1143</ele>
        <time>2011-12-28T12:00:21Z</time>
      </trkpt>
      <trkpt lat="44.00691" lon="3.4462">
        <ele>1144</ele>
        <time>2011-12-28T12:00:28Z</time>
      </trkpt>
      <trkpt lat="44.00697" lon="3.44619">
        <ele>1145</ele>
        <time>2011-12-28T12:00:34Z</time>
      </trkpt>
      <trkpt lat="44.00708" lon="3.44614">
        <ele>1148</ele>
        <time>2011-12-28T12:00:45Z</time>
      </trkpt>
      <trkpt lat="44.00721" lon="3.44611">
        <ele>1146</ele>
        <time>2011-12-28T12:00:56Z</time>
      </trkpt>
      <trkpt lat="44.00724" lon="3.44611">
        <ele>1147</ele>
        <time>2011-12-28T12:01:03Z</time>
      </trkpt>
      <trkpt lat="44.00731" lon="3.44613">
        <ele>1147</ele>
        <time>2011-12-28T12:01:10Z</time>
      </trkpt>
      <trkpt lat="44.00745" lon="3.44616">
        <ele>1148</ele>
        <time>2011-12-28T12:01:23Z</time>
      </trkpt>
      <trkpt lat="44.00756" lon="3.44618">
        <ele>1148</ele>
        <time>2011-12-28T12:01:32Z</time>
      </trkpt>
      <trkpt lat="44.00765" lon="3.4462">
        <ele>1149</ele>
        <time>2011-12-28T12:01:40Z</time>
      </trkpt>
      <trkpt lat="44.0078" lon="3.44625">
        <ele>1148</ele>
        <time>2011-12-28T12:01:53Z</time>
      </trkpt>
      <trkpt lat="44.00785" lon="3.44626">
        <ele>1148</ele>
        <time>2011-12-28T12:01:59Z</time>
      </trkpt>
      <trkpt lat="44.00797" lon="3.44629">
        <ele>1149</ele>
        <time>2011-12-28T12:02:10Z</time>
      </trkpt>
      <trkpt lat="44.00813" lon="3.44632">
        <ele>1148</ele>
        <time>2011-12-28T12:02:23Z</time>
      </trkpt>
      <trkpt lat="44.00819" lon="3.44634">
        <ele>1147</ele>
        <time>2011-12-28T12:02:28Z</time>
      </trkpt>
      <trkpt lat="44.0083" lon="3.44637">
        <ele>1146</ele>
        <time>2011-12-28T12:02:38Z</time>
      </trkpt>
      <trkpt lat="44.00835" lon="3.44637">
        <ele>1146</ele>
        <time>2011-12-28T12:02:43Z</time>
      </trkpt>
      <trkpt lat="44.00838" lon="3.44638">
        <ele>1144</ele>
        <time>2011-12-28T12:02:46Z</time>
      </trkpt>
      <trkpt lat="44.00847" lon="3.4464">
        <ele>1146</ele>
        <time>2011-12-28T12:02:55Z</time>
      </trkpt>
      <trkpt lat="44.00852" lon="3.44641">
        <ele>1144</ele>
        <time>2011-12-28T12:03:00Z</time>
      </trkpt>
      <trkpt lat="44.00856" lon="3.44642">
        <ele>1146</ele>
        <time>2011-12-28T12:03:04Z</time>
      </trkpt>
      <trkpt lat="44.00863" lon="3.44643">
        <ele>1146</ele>
        <time>2011-12-28T12:03:12Z</time>
      </trkpt>
      <trkpt lat="44.00865" lon="3.44644">
        <ele>1147</ele>
        <time>2011-12-28T12:03:14Z</time>
      </trkpt>
      <trkpt lat="44.00877" lon="3.44647">
        <ele>1147</ele>
        <time>2011-12-28T12:03:25Z</time>
      </trkpt>
      <trkpt lat="44.00885" lon="3.4465">
        <ele>1147</ele>
        <time>2011-12-28T12:03:33Z</time>
      </trkpt>
      <trkpt lat="44.00896" lon="3.44656">
        <ele>1147</ele>
        <time>2011-12-28T12:03:44Z</time>
      </trkpt>
      <trkpt lat="44.00905" lon="3.44662">
        <ele>1148</ele>
        <time>2011-12-28T12:03:54Z</time>
      </trkpt>
      <trkpt lat="44.0091" lon="3.44665">
        <ele>1149</ele>
        <time>2011-12-28T12:04:00Z</time>
      </trkpt>
      <trkpt lat="44.00916" lon="3.44667">
        <ele>1151</ele>
        <time>2011-12-28T12:04:06Z</time>
      </trkpt>
      <trkpt lat="44.00926" lon="3.44672">
        <ele>1152</ele>
        <time>2011-12-28T12:04:15Z</time>
      </trkpt>
      <trkpt lat="44.0094" lon="3.44677">
        <ele>1152</ele>
        <time>2011-12-28T12:04:28Z</time>
      </trkpt>
      <trkpt lat="44.00953" lon="3.44683">
        <ele>1153</ele>
        <time>2011-12-28T12:04:41Z</time>
      </trkpt>
      <trkpt lat="44.00964" lon="3.4469">
        <ele>1154</ele>
        <time>2011-12-28T12:04:52Z</time>
      </trkpt>
      <trkpt lat="44.00973" lon="3.44695">
        <ele>1154</ele>
        <time>2011-12-28T12:05:01Z</time>
      </trkpt>
      <trkpt lat="44.00984" lon="3.44704">
        <ele>1156</ele>
        <time>2011-12-28T12:05:13Z</time>
      </trkpt>
      <trkpt lat="44.00992" lon="3.44714">
        <ele>1158</ele>
        <time>2011-12-28T12:05:23Z</time>
      </trkpt>
      <trkpt lat="44.00994" lon="3.44715">
        <ele>1159</ele>
        <time>2011-12-28T12:05:25Z</time>
      </trkpt>
      <trkpt lat="44.01001" lon="3.44722">
        <ele>1159</ele>
        <time>2011-12-28T12:05:35Z</time>
      </trkpt>
      <trkpt lat="44.01008" lon="3.4473">
        <ele>1162</ele>
        <time>2011-12-28T12:05:44Z</time>
      </trkpt>
      <trkpt lat="44.01009" lon="3.44732">
        <ele>1163</ele>
        <time>2011-12-28T12:05:46Z</time>
      </trkpt>
      <trkpt lat="44.01015" lon="3.4474">
        <ele>1163</ele>
        <time>2011-12-28T12:05:55Z</time>
      </trkpt>
      <trkpt lat="44.01022" lon="3.44747">
        <ele>1164</ele>
        <time>2011-12-28T12:06:04Z</time>
      </trkpt>
      <trkpt lat="44.01024" lon="3.44749">
        <ele>1165</ele>
        <time>2011-12-28T12:06:07Z</time>
      </trkpt>
      <trkpt lat="44.0103" lon="3.44756">
        <ele>1165</ele>
        <time>2011-12-28T12:06:16Z</time>
      </trkpt>
      <trkpt lat="44.01035" lon="3.44763">
        <ele>1166</ele>
        <time>2011-12-28T12:06:24Z</time>
      </trkpt>
      <trkpt lat="44.01038" lon="3.44766">
        <ele>1167</ele>
        <time>2011-12-28T12:06:28Z</time>
      </trkpt>
      <trkpt lat="44.01043" lon="3.44772">
        <ele>1169</ele>
        <time>2011-12-28T12:06:37Z</time>
      </trkpt>
      <trkpt lat="44.01047" lon="3.44778">
        <ele>1170</ele>
        <time>2011-12-28T12:06:45Z</time>
      </trkpt>
      <trkpt lat="44.01053" lon="3.44783">
        <ele>1172</ele>
        <time>2011-12-28T12:06:54Z</time>
      </trkpt>
      <trkpt lat="44.01056" lon="3.44787">
        <ele>1173</ele>
        <time>2011-12-28T12:07:00Z</time>
      </trkpt>
      <trkpt lat="44.0106" lon="3.44793">
        <ele>1174</ele>
        <time>2011-12-28T12:07:10Z</time>
      </trkpt>
      <trkpt lat="44.01064" lon="3.44799">
        <ele>1176</ele>
        <time>2011-12-28T12:07:19Z</time>
      </trkpt>
      <trkpt lat="44.01068" lon="3.44807">
        <ele>1177</ele>
        <time>2011-12-28T12:07:28Z</time>
      </trkpt>
      <trkpt lat="44.0107" lon="3.44812">
        <ele>1179</ele>
        <time>2011-12-28T12:07:35Z</time>
      </trkpt>
      <trkpt lat="44.01074" lon="3.44817">
        <ele>1180</ele>
        <time>2011-12-28T12:07:42Z</time>
      </trkpt>
      <trkpt lat="44.01077" lon="3.44822">
        <ele>1182</ele>
        <time>2011-12-28T12:07:50Z</time>
      </trkpt>
      <trkpt lat="44.0108" lon="3.4483">
        <ele>1183</ele>
        <time>2011-12-28T12:07:58Z</time>
      </trkpt>
      <trkpt lat="44.01084" lon="3.44835">
        <ele>1185</ele>
        <time>2011-12-28T12:08:05Z</time>
      </trkpt>
      <trkpt lat="44.0109" lon="3.44843">
        <ele>1186</ele>
        <time>2011-12-28T12:08:15Z</time>
      </trkpt>
      <trkpt lat="44.01094" lon="3.44851">
        <ele>1187</ele>
        <time>2011-12-28T12:08:23Z</time>
      </trkpt>
      <trkpt lat="44.01099" lon="3.44858">
        <ele>1187</ele>
        <time>2011-12-28T12:08:31Z</time>
      </trkpt>
      <trkpt lat="44.01105" lon="3.44867">
        <ele>1188</ele>
        <time>2011-12-28T12:08:40Z</time>
      </trkpt>
      <trkpt lat="44.01111" lon="3.44875">
        <ele>1188</ele>
        <time>2011-12-28T12:08:49Z</time>
      </trkpt>
      <trkpt lat="44.01117" lon="3.44883">
        <ele>1189</ele>
        <time>2011-12-28T12:08:59Z</time>
      </trkpt>
      <trkpt lat="44.01121" lon="3.44888">
        <ele>1191</ele>
        <time>2011-12-28T12:09:05Z</time>
      </trkpt>
      <trkpt lat="44.01127" lon="3.44899">
        <ele>1188</ele>
        <time>2011-12-28T12:09:15Z</time>
      </trkpt>
      <trkpt lat="44.01132" lon="3.44907">
        <ele>1189</ele>
        <time>2011-12-28T12:09:24Z</time>
      </trkpt>
      <trkpt lat="44.01137" lon="3.44914">
        <ele>1190</ele>
        <time>2011-12-28T12:09:32Z</time>
      </trkpt>
      <trkpt lat="44.01142" lon="3.4492">
        <ele>1194</ele>
        <time>2011-12-28T12:09:39Z</time>
      </trkpt>
      <trkpt lat="44.01143" lon="3.4492">
        <ele>1194</ele>
        <time>2011-12-28T12:09:40Z</time>
      </trkpt>
      <trkpt lat="44.01152" lon="3.44928">
        <ele>1194</ele>
        <time>2011-12-28T12:09:51Z</time>
      </trkpt>
      <trkpt lat="44.01154" lon="3.4493">
        <ele>1192</ele>
        <time>2011-12-28T12:09:54Z</time>
      </trkpt>
      <trkpt lat="44.01161" lon="3.44936">
        <ele>1190</ele>
        <time>2011-12-28T12:10:03Z</time>
      </trkpt>
      <trkpt lat="44.0117" lon="3.44941">
        <ele>1190</ele>
        <time>2011-12-28T12:10:13Z</time>
      </trkpt>
      <trkpt lat="44.0118" lon="3.44947">
        <ele>1191</ele>
        <time>2011-12-28T12:10:23Z</time>
      </trkpt>
      <trkpt lat="44.01186" lon="3.44951">
        <ele>1190</ele>
        <time>2011-12-28T12:10:30Z</time>
      </trkpt>
      <trkpt lat="44.01188" lon="3.44951">
        <ele>1192</ele>
        <time>2011-12-28T12:10:32Z</time>
      </trkpt>
      <trkpt lat="44.012" lon="3.44955">
        <ele>1193</ele>
        <time>2011-12-28T12:10:43Z</time>
      </trkpt>
      <trkpt lat="44.01201" lon="3.44955">
        <ele>1193</ele>
        <time>2011-12-28T12:10:44Z</time>
      </trkpt>
      <trkpt lat="44.0121" lon="3.44954">
        <ele>1193</ele>
        <time>2011-12-28T12:10:55Z</time>
      </trkpt>
      <trkpt lat="44.01212" lon="3.44955">
        <ele>1190</ele>
        <time>2011-12-28T12:10:58Z</time>
      </trkpt>
      <trkpt lat="44.01222" lon="3.44954">
        <ele>1190</ele>
        <time>2011-12-28T12:11:08Z</time>
      </trkpt>
      <trkpt lat="44.01229" lon="3.44948">
        <ele>1190</ele>
        <time>2011-12-28T12:11:18Z</time>
      </trkpt>
      <trkpt lat="44.01234" lon="3.44944">
        <ele>1192</ele>
        <time>2011-12-28T12:11:24Z</time>
      </trkpt>
      <trkpt lat="44.01236" lon="3.44943">
        <ele>1191</ele>
        <time>2011-12-28T12:11:26Z</time>
      </trkpt>
      <trkpt lat="44.01247" lon="3.44939">
        <ele>1190</ele>
        <time>2011-12-28T12:11:37Z</time>
      </trkpt>
      <trkpt lat="44.01258" lon="3.44931">
        <ele>1189</ele>
        <time>2011-12-28T12:11:48Z</time>
      </trkpt>
      <trkpt lat="44.01269" lon="3.44927">
        <ele>1188</ele>
        <time>2011-12-28T12:11:58Z</time>
      </trkpt>
      <trkpt lat="44.01278" lon="3.44929">
        <ele>1189</ele>
        <time>2011-12-28T12:12:08Z</time>
      </trkpt>
      <trkpt lat="44.01286" lon="3.44932">
        <ele>1189</ele>
        <time>2011-12-28T12:12:18Z</time>
      </trkpt>
      <trkpt lat="44.01292" lon="3.44934">
        <ele>1190</ele>
        <time>2011-12-28T12:12:26Z</time>
      </trkpt>
      <trkpt lat="44.01301" lon="3.44933">
        <ele>1189</ele>
        <time>2011-12-28T12:12:36Z</time>
      </trkpt>
      <trkpt lat="44.01308" lon="3.44932">
        <ele>1186</ele>
        <time>2011-12-28T12:12:45Z</time>
      </trkpt>
      <trkpt lat="44.01319" lon="3.44928">
        <ele>1184</ele>
        <time>2011-12-28T12:12:57Z</time>
      </trkpt>
      <trkpt lat="44.01328" lon="3.44923">
        <ele>1183</ele>
        <time>2011-12-28T12:13:07Z</time>
      </trkpt>
      <trkpt lat="44.01335" lon="3.44922">
        <ele>1183</ele>
        <time>2011-12-28T12:13:15Z</time>
      </trkpt>
      <trkpt lat="44.01342" lon="3.44921">
        <ele>1184</ele>
        <time>2011-12-28T12:13:23Z</time>
      </trkpt>
      <trkpt lat="44.01354" lon="3.44919">
        <ele>1184</ele>
        <time>2011-12-28T12:13:33Z</time>
      </trkpt>
      <trkpt lat="44.01363" lon="3.44917">
        <ele>1184</ele>
        <time>2011-12-28T12:13:42Z</time>
      </trkpt>
      <trkpt lat="44.01374" lon="3.44921">
        <ele>1186</ele>
        <time>2011-12-28T12:13:52Z</time>
      </trkpt>
      <trkpt lat="44.01382" lon="3.44925">
        <ele>1189</ele>
        <time>2011-12-28T12:14:01Z</time>
      </trkpt>
      <trkpt lat="44.01383" lon="3.44925">
        <ele>1190</ele>
        <time>2011-12-28T12:14:03Z</time>
      </trkpt>
      <trkpt lat="44.01392" lon="3.44925">
        <ele>1191</ele>
        <time>2011-12-28T12:14:13Z</time>
      </trkpt>
      <trkpt lat="44.01398" lon="3.44925">
        <ele>1192</ele>
        <time>2011-12-28T12:14:22Z</time>
      </trkpt>
      <trkpt lat="44.01405" lon="3.44924">
        <ele>1194</ele>
        <time>2011-12-28T12:14:29Z</time>
      </trkpt>
      <trkpt lat="44.01412" lon="3.44924">
        <ele>1196</ele>
        <time>2011-12-28T12:14:39Z</time>
      </trkpt>
      <trkpt lat="44.01417" lon="3.44928">
        <ele>1196</ele>
        <time>2011-12-28T12:14:47Z</time>
      </trkpt>
      <trkpt lat="44.01424" lon="3.4493">
        <ele>1199</ele>
        <time>2011-12-28T12:14:57Z</time>
      </trkpt>
      <trkpt lat="44.01429" lon="3.4493">
        <ele>1199</ele>
        <time>2011-12-28T12:15:05Z</time>
      </trkpt>
      <trkpt lat="44.01432" lon="3.44932">
        <ele>1200</ele>
        <time>2011-12-28T12:15:12Z</time>
      </trkpt>
      <trkpt lat="44.01434" lon="3.44935">
        <ele>1201</ele>
        <time>2011-12-28T12:15:18Z</time>
      </trkpt>
      <trkpt lat="44.01436" lon="3.44936">
        <ele>1203</ele>
        <time>2011-12-28T12:15:24Z</time>
      </trkpt>
      <trkpt lat="44.0144" lon="3.44937">
        <ele>1203</ele>
        <time>2011-12-28T12:15:31Z</time>
      </trkpt>
      <trkpt lat="44.01444" lon="3.44939">
        <ele>1205</ele>
        <time>2011-12-28T12:15:38Z</time>
      </trkpt>
      <trkpt lat="44.01447" lon="3.44938">
        <ele>1208</ele>
        <time>2011-12-28T12:15:44Z</time>
      </trkpt>
      <trkpt lat="44.01447" lon="3.44938">
        <ele>1209</ele>
        <time>2011-12-28T12:15:45Z</time>
      </trkpt>
      <trkpt lat="44.0145" lon="3.44939">
        <ele>1209</ele>
        <time>2011-12-28T12:15:51Z</time>
      </trkpt>
      <trkpt lat="44.01454" lon="3.44938">
        <ele>1209</ele>
        <time>2011-12-28T12:15:59Z</time>
      </trkpt>
      <trkpt lat="44.01455" lon="3.44935">
        <ele>1209</ele>
        <time>2011-12-28T12:16:02Z</time>
      </trkpt>
      <trkpt lat="44.01459" lon="3.4493">
        <ele>1210</ele>
        <time>2011-12-28T12:16:10Z</time>
      </trkpt>
      <trkpt lat="44.01463" lon="3.44926">
        <ele>1210</ele>
        <time>2011-12-28T12:16:17Z</time>
      </trkpt>
      <trkpt lat="44.01467" lon="3.44924">
        <ele>1211</ele>
        <time>2011-12-28T12:16:24Z</time>
      </trkpt>
      <trkpt lat="44.01471" lon="3.44921">
        <ele>1212</ele>
        <time>2011-12-28T12:16:32Z</time>
      </trkpt>
      <trkpt lat="44.01475" lon="3.44921">
        <ele>1215</ele>
        <time>2011-12-28T12:16:38Z</time>
      </trkpt>
      <trkpt lat="44.0148" lon="3.44921">
        <ele>1216</ele>
        <time>2011-12-28T12:16:47Z</time>
      </trkpt>
      <trkpt lat="44.01484" lon="3.44919">
        <ele>1218</ele>
        <time>2011-12-28T12:16:54Z</time>
      </trkpt>
      <trkpt lat="44.01488" lon="3.44917">
        <ele>1219</ele>
        <time>2011-12-28T12:17:01Z</time>
      </trkpt>
      <trkpt lat="44.01493" lon="3.44915">
        <ele>1220</ele>
        <time>2011-12-28T12:17:09Z</time>
      </trkpt>
      <trkpt lat="44.01497" lon="3.44913">
        <ele>1221</ele>
        <time>2011-12-28T12:17:17Z</time>
      </trkpt>
      <trkpt lat="44.01501" lon="3.4491">
        <ele>1222</ele>
        <time>2011-12-28T12:17:24Z</time>
      </trkpt>
      <trkpt lat="44.01506" lon="3.4491">
        <ele>1224</ele>
        <time>2011-12-28T12:17:31Z</time>
      </trkpt>
      <trkpt lat="44.01506" lon="3.44911">
        <ele>1224</ele>
        <time>2011-12-28T12:17:32Z</time>
      </trkpt>
      <trkpt lat="44.01509" lon="3.44911">
        <ele>1226</ele>
        <time>2011-12-28T12:17:36Z</time>
      </trkpt>
      <trkpt lat="44.0151" lon="3.44912">
        <ele>1225</ele>
        <time>2011-12-28T12:17:38Z</time>
      </trkpt>
      <trkpt lat="44.01521" lon="3.44912">
        <ele>1226</ele>
        <time>2011-12-28T12:17:49Z</time>
      </trkpt>
      <trkpt lat="44.01522" lon="3.44911">
        <ele>1227</ele>
        <time>2011-12-28T12:17:50Z</time>
      </trkpt>
      <trkpt lat="44.01527" lon="3.44904">
        <ele>1229</ele>
        <time>2011-12-28T12:17:59Z</time>
      </trkpt>
      <trkpt lat="44.01531" lon="3.44898">
        <ele>1231</ele>
        <time>2011-12-28T12:18:09Z</time>
      </trkpt>
      <trkpt lat="44.01535" lon="3.4489">
        <ele>1232</ele>
        <time>2011-12-28T12:18:17Z</time>
      </trkpt>
      <trkpt lat="44.0154" lon="3.44883">
        <ele>1233</ele>
        <time>2011-12-28T12:18:26Z</time>
      </trkpt>
      <trkpt lat="44.01543" lon="3.44881">
        <ele>1234</ele>
        <time>2011-12-28T12:18:31Z</time>
      </trkpt>
      <trkpt lat="44.01547" lon="3.44875">
        <ele>1235</ele>
        <time>2011-12-28T12:18:40Z</time>
      </trkpt>
      <trkpt lat="44.01554" lon="3.4487">
        <ele>1236</ele>
        <time>2011-12-28T12:18:49Z</time>
      </trkpt>
      <trkpt lat="44.01558" lon="3.44868">
        <ele>1238</ele>
        <time>2011-12-28T12:18:55Z</time>
      </trkpt>
      <trkpt lat="44.01564" lon="3.44863">
        <ele>1238</ele>
        <time>2011-12-28T12:19:05Z</time>
      </trkpt>
      <trkpt lat="44.01567" lon="3.44863">
        <ele>1240</ele>
        <time>2011-12-28T12:19:09Z</time>
      </trkpt>
      <trkpt lat="44.01575" lon="3.44861">
        <ele>1241</ele>
        <time>2011-12-28T12:19:18Z</time>
      </trkpt>
      <trkpt lat="44.0158" lon="3.44859">
        <ele>1244</ele>
        <time>2011-12-28T12:19:25Z</time>
      </trkpt>
      <trkpt lat="44.01585" lon="3.44857">
        <ele>1244</ele>
        <time>2011-12-28T12:19:32Z</time>
      </trkpt>
      <trkpt lat="44.01588" lon="3.44855">
        <ele>1245</ele>
        <time>2011-12-28T12:19:36Z</time>
      </trkpt>
      <trkpt lat="44.01593" lon="3.44848">
        <ele>1246</ele>
        <time>2011-12-28T12:19:45Z</time>
      </trkpt>
      <trkpt lat="44.01598" lon="3.4484">
        <ele>1247</ele>
        <time>2011-12-28T12:19:55Z</time>
      </trkpt>
      <trkpt lat="44.01603" lon="3.44839">
        <ele>1249</ele>
        <time>2011-12-28T12:20:03Z</time>
      </trkpt>
      <trkpt lat="44.01604" lon="3.44836">
        <ele>1249</ele>
        <time>2011-12-28T12:20:10Z</time>
      </trkpt>
      <trkpt lat="44.01604" lon="3.44835">
        <ele>1250</ele>
        <time>2011-12-28T12:20:20Z</time>
      </trkpt>
      <trkpt lat="44.01606" lon="3.44831">
        <ele>1250</ele>
        <time>2011-12-28T12:20:28Z</time>
      </trkpt>
      <trkpt lat="44.01608" lon="3.44827">
        <ele>1251</ele>
        <time>2011-12-28T12:20:35Z</time>
      </trkpt>
      <trkpt lat="44.01612" lon="3.44823">
        <ele>1252</ele>
        <time>2011-12-28T12:20:41Z</time>
      </trkpt>
      <trkpt lat="44.01615" lon="3.4482">
        <ele>1254</ele>
        <time>2011-12-28T12:20:45Z</time>
      </trkpt>
      <trkpt lat="44.01619" lon="3.44817">
        <ele>1256</ele>
        <time>2011-12-28T12:20:50Z</time>
      </trkpt>
      <trkpt lat="44.01626" lon="3.4481">
        <ele>1257</ele>
        <time>2011-12-28T12:21:00Z</time>
      </trkpt>
      <trkpt lat="44.01634" lon="3.44809">
        <ele>1257</ele>
        <time>2011-12-28T12:21:09Z</time>
      </trkpt>
      <trkpt lat="44.01641" lon="3.44807">
        <ele>1257</ele>
        <time>2011-12-28T12:21:16Z</time>
      </trkpt>
      <trkpt lat="44.01649" lon="3.44809">
        <ele>1259</ele>
        <time>2011-12-28T12:21:25Z</time>
      </trkpt>
      <trkpt lat="44.01655" lon="3.4481">
        <ele>1258</ele>
        <time>2011-12-28T12:21:32Z</time>
      </trkpt>
      <trkpt lat="44.01659" lon="3.4481">
        <ele>1258</ele>
        <time>2011-12-28T12:21:38Z</time>
      </trkpt>
      <trkpt lat="44.01665" lon="3.4481">
        <ele>1259</ele>
        <time>2011-12-28T12:21:47Z</time>
      </trkpt>
      <trkpt lat="44.01668" lon="3.44809">
        <ele>1261</ele>
        <time>2011-12-28T12:21:51Z</time>
      </trkpt>
      <trkpt lat="44.01672" lon="3.44807">
        <ele>1262</ele>
        <time>2011-12-28T12:21:57Z</time>
      </trkpt>
      <trkpt lat="44.01678" lon="3.44805">
        <ele>1263</ele>
        <time>2011-12-28T12:22:06Z</time>
      </trkpt>
      <trkpt lat="44.01682" lon="3.448">
        <ele>1264</ele>
        <time>2011-12-28T12:22:13Z</time>
      </trkpt>
      <trkpt lat="44.01687" lon="3.44796">
        <ele>1265</ele>
        <time>2011-12-28T12:22:21Z</time>
      </trkpt>
      <trkpt lat="44.01693" lon="3.44796">
        <ele>1265</ele>
        <time>2011-12-28T12:22:29Z</time>
      </trkpt>
      <trkpt lat="44.01696" lon="3.44796">
        <ele>1266</ele>
        <time>2011-12-28T12:22:35Z</time>
      </trkpt>
      <trkpt lat="44.01699" lon="3.44796">
        <ele>1267</ele>
        <time>2011-12-28T12:22:41Z</time>
      </trkpt>
      <trkpt lat="44.01701" lon="3.44795">
        <ele>1267</ele>
        <time>2011-12-28T12:22:46Z</time>
      </trkpt>
      <trkpt lat="44.01704" lon="3.44794">
        <ele>1271</ele>
        <time>2011-12-28T12:27:01Z</time>
      </trkpt>
      <trkpt lat="44.01707" lon="3.44793">
        <ele>1271</ele>
        <time>2011-12-28T12:27:08Z</time>
      </trkpt>
      <trkpt lat="44.01714" lon="3.4479">
        <ele>1272</ele>
        <time>2011-12-28T12:27:16Z</time>
      </trkpt>
      <trkpt lat="44.0172" lon="3.44788">
        <ele>1272</ele>
        <time>2011-12-28T12:27:23Z</time>
      </trkpt>
      <trkpt lat="44.01722" lon="3.44789">
        <ele>1274</ele>
        <time>2011-12-28T12:27:25Z</time>
      </trkpt>
      <trkpt lat="44.01726" lon="3.44792">
        <ele>1274</ele>
        <time>2011-12-28T12:27:32Z</time>
      </trkpt>
      <trkpt lat="44.01731" lon="3.44796">
        <ele>1276</ele>
        <time>2011-12-28T12:27:38Z</time>
      </trkpt>
      <trkpt lat="44.01735" lon="3.44802">
        <ele>1276</ele>
        <time>2011-12-28T12:27:46Z</time>
      </trkpt>
      <trkpt lat="44.01737" lon="3.44804">
        <ele>1277</ele>
        <time>2011-12-28T12:27:51Z</time>
      </trkpt>
      <trkpt lat="44.01741" lon="3.44812">
        <ele>1278</ele>
        <time>2011-12-28T12:27:59Z</time>
      </trkpt>
      <trkpt lat="44.01741" lon="3.44816">
        <ele>1279</ele>
        <time>2011-12-28T12:28:05Z</time>
      </trkpt>
      <trkpt lat="44.01747" lon="3.44825">
        <ele>1282</ele>
        <time>2011-12-28T12:28:15Z</time>
      </trkpt>
      <trkpt lat="44.01749" lon="3.44824">
        <ele>1282</ele>
        <time>2011-12-28T12:28:17Z</time>
      </trkpt>
      <trkpt lat="44.01753" lon="3.44822">
        <ele>1284</ele>
        <time>2011-12-28T12:28:22Z</time>
      </trkpt>
      <trkpt lat="44.0176" lon="3.4482">
        <ele>1284</ele>
        <time>2011-12-28T12:28:30Z</time>
      </trkpt>
      <trkpt lat="44.01762" lon="3.44824">
        <ele>1285</ele>
        <time>2011-12-28T12:28:38Z</time>
      </trkpt>
      <trkpt lat="44.01763" lon="3.44827">
        <ele>1287</ele>
        <time>2011-12-28T12:28:43Z</time>
      </trkpt>
      <trkpt lat="44.01768" lon="3.44825">
        <ele>1290</ele>
        <time>2011-12-28T12:28:51Z</time>
      </trkpt>
      <trkpt lat="44.01769" lon="3.44825">
        <ele>1288</ele>
        <time>2011-12-28T12:28:56Z</time>
      </trkpt>
      <trkpt lat="44.01772" lon="3.44824">
        <ele>1288</ele>
        <time>2011-12-28T12:29:05Z</time>
      </trkpt>
      <trkpt lat="44.01778" lon="3.44821">
        <ele>1286</ele>
        <time>2011-12-28T12:29:12Z</time>
      </trkpt>
      <trkpt lat="44.01782" lon="3.44825">
        <ele>1288</ele>
        <time>2011-12-28T12:29:19Z</time>
      </trkpt>
      <trkpt lat="44.01782" lon="3.44829">
        <ele>1289</ele>
        <time>2011-12-28T12:29:23Z</time>
      </trkpt>
      <trkpt lat="44.01787" lon="3.44831">
        <ele>1291</ele>
        <time>2011-12-28T12:29:30Z</time>
      </trkpt>
      <trkpt lat="44.01789" lon="3.44829">
        <ele>1292</ele>
        <time>2011-12-28T12:29:32Z</time>
      </trkpt>
      <trkpt lat="44.01794" lon="3.44824">
        <ele>1290</ele>
        <time>2011-12-28T12:29:39Z</time>
      </trkpt>
      <trkpt lat="44.01796" lon="3.44825">
        <ele>1292</ele>
        <time>2011-12-28T12:29:42Z</time>
      </trkpt>
      <trkpt lat="44.01797" lon="3.44826">
        <ele>1292</ele>
        <time>2011-12-28T12:29:44Z</time>
      </trkpt>
      <trkpt lat="44.01808" lon="3.44827">
        <ele>1293</ele>
        <time>2011-12-28T12:29:55Z</time>
      </trkpt>
      <trkpt lat="44.01817" lon="3.44831">
        <ele>1293</ele>
        <time>2011-12-28T12:30:04Z</time>
      </trkpt>
      <trkpt lat="44.01826" lon="3.4484">
        <ele>1294</ele>
        <time>2011-12-28T12:30:14Z</time>
      </trkpt>
      <trkpt lat="44.01836" lon="3.44841">
        <ele>1295</ele>
        <time>2011-12-28T12:30:24Z</time>
      </trkpt>
      <trkpt lat="44.01844" lon="3.44839">
        <ele>1295</ele>
        <time>2011-12-28T12:30:32Z</time>
      </trkpt>
      <trkpt lat="44.01853" lon="3.44837">
        <ele>1294</ele>
        <time>2011-12-28T12:30:41Z</time>
      </trkpt>
      <trkpt lat="44.01858" lon="3.44836">
        <ele>1293</ele>
        <time>2011-12-28T12:30:46Z</time>
      </trkpt>
      <trkpt lat="44.0186" lon="3.44835">
        <ele>1294</ele>
        <time>2011-12-28T12:30:49Z</time>
      </trkpt>
      <trkpt lat="44.01872" lon="3.44835">
        <ele>1296</ele>
        <time>2011-12-28T12:30:59Z</time>
      </trkpt>
      <trkpt lat="44.01878" lon="3.44834">
        <ele>1293</ele>
        <time>2011-12-28T12:31:05Z</time>
      </trkpt>
      <trkpt lat="44.01881" lon="3.44833">
        <ele>1294</ele>
        <time>2011-12-28T12:31:08Z</time>
      </trkpt>
      <trkpt lat="44.01884" lon="3.44831">
        <ele>1296</ele>
        <time>2011-12-28T12:31:11Z</time>
      </trkpt>
      <trkpt lat="44.0189" lon="3.44831">
        <ele>1295</ele>
        <time>2011-12-28T12:31:16Z</time>
      </trkpt>
      <trkpt lat="44.01894" lon="3.44834">
        <ele>1295</ele>
        <time>2011-12-28T12:31:20Z</time>
      </trkpt>
      <trkpt lat="44.01903" lon="3.44833">
        <ele>1295</ele>
        <time>2011-12-28T12:31:28Z</time>
      </trkpt>
      <trkpt lat="44.01912" lon="3.44834">
        <ele>1296</ele>
        <time>2011-12-28T12:31:37Z</time>
      </trkpt>
      <trkpt lat="44.01917" lon="3.44834">
        <ele>1296</ele>
        <time>2011-12-28T12:31:42Z</time>
      </trkpt>
      <trkpt lat="44.01922" lon="3.44838">
        <ele>1295</ele>
        <time>2011-12-28T12:31:48Z</time>
      </trkpt>
      <trkpt lat="44.01924" lon="3.4484">
        <ele>1298</ele>
        <time>2011-12-28T12:31:50Z</time>
      </trkpt>
      <trkpt lat="44.0193" lon="3.44841">
        <ele>1297</ele>
        <time>2011-12-28T12:31:55Z</time>
      </trkpt>
      <trkpt lat="44.01939" lon="3.44838">
        <ele>1298</ele>
        <time>2011-12-28T12:32:03Z</time>
      </trkpt>
      <trkpt lat="44.01947" lon="3.4484">
        <ele>1297</ele>
        <time>2011-12-28T12:32:11Z</time>
      </trkpt>
      <trkpt lat="44.01952" lon="3.44841">
        <ele>1296</ele>
        <time>2011-12-28T12:32:15Z</time>
      </trkpt>
      <trkpt lat="44.01959" lon="3.44839">
        <ele>1297</ele>
        <time>2011-12-28T12:32:24Z</time>
      </trkpt>
      <trkpt lat="44.01963" lon="3.44837">
        <ele>1298</ele>
        <time>2011-12-28T12:32:31Z</time>
      </trkpt>
      <trkpt lat="44.01963" lon="3.4484">
        <ele>1296</ele>
        <time>2011-12-28T12:32:42Z</time>
      </trkpt>
      <trkpt lat="44.01963" lon="3.44845">
        <ele>1296</ele>
        <time>2011-12-28T12:32:50Z</time>
      </trkpt>
      <trkpt lat="44.01963" lon="3.44848">
        <ele>1296</ele>
        <time>2011-12-28T12:32:56Z</time>
      </trkpt>
      <trkpt lat="44.01963" lon="3.4485">
        <ele>1295</ele>
        <time>2011-12-28T12:33:12Z</time>
      </trkpt>
      <trkpt lat="44.01963" lon="3.44852">
        <ele>1296</ele>
        <time>2011-12-28T12:33:20Z</time>
      </trkpt>
      <trkpt lat="44.01966" lon="3.44857">
        <ele>1296</ele>
        <time>2011-12-28T12:33:26Z</time>
      </trkpt>
      <trkpt lat="44.01968" lon="3.44859">
        <ele>1296</ele>
        <time>2011-12-28T12:33:34Z</time>
      </trkpt>
      <trkpt lat="44.01967" lon="3.44857">
        <ele>1296</ele>
        <time>2011-12-28T12:33:37Z</time>
      </trkpt>
      <trkpt lat="44.01965" lon="3.44851">
        <ele>1296</ele>
        <time>2011-12-28T12:33:46Z</time>
      </trkpt>
      <trkpt lat="44.01963" lon="3.44842">
        <ele>1296</ele>
        <time>2011-12-28T12:34:08Z</time>
      </trkpt>
      <trkpt lat="44.0197" lon="3.44837">
        <ele>1296</ele>
        <time>2011-12-28T12:34:16Z</time>
      </trkpt>
      <trkpt lat="44.01971" lon="3.44836">
        <ele>1296</ele>
        <time>2011-12-28T12:34:17Z</time>
      </trkpt>
      <trkpt lat="44.01981" lon="3.44835">
        <ele>1295</ele>
        <time>2011-12-28T12:34:27Z</time>
      </trkpt>
      <trkpt lat="44.01989" lon="3.44834">
        <ele>1295</ele>
        <time>2011-12-28T12:34:35Z</time>
      </trkpt>
      <trkpt lat="44.01997" lon="3.44835">
        <ele>1296</ele>
        <time>2011-12-28T12:34:43Z</time>
      </trkpt>
      <trkpt lat="44.02004" lon="3.44835">
        <ele>1295</ele>
        <time>2011-12-28T12:34:51Z</time>
      </trkpt>
      <trkpt lat="44.02013" lon="3.44833">
        <ele>1295</ele>
        <time>2011-12-28T12:35:02Z</time>
      </trkpt>
      <trkpt lat="44.02016" lon="3.44832">
        <ele>1295</ele>
        <time>2011-12-28T12:35:05Z</time>
      </trkpt>
      <trkpt lat="44.02023" lon="3.44832">
        <ele>1296</ele>
        <time>2011-12-28T12:35:13Z</time>
      </trkpt>
      <trkpt lat="44.02032" lon="3.44828">
        <ele>1296</ele>
        <time>2011-12-28T12:35:21Z</time>
      </trkpt>
      <trkpt lat="44.02039" lon="3.44823">
        <ele>1296</ele>
        <time>2011-12-28T12:35:29Z</time>
      </trkpt>
      <trkpt lat="44.02047" lon="3.44819">
        <ele>1296</ele>
        <time>2011-12-28T12:35:37Z</time>
      </trkpt>
      <trkpt lat="44.02054" lon="3.44819">
        <ele>1297</ele>
        <time>2011-12-28T12:35:47Z</time>
      </trkpt>
      <trkpt lat="44.02061" lon="3.44814">
        <ele>1298</ele>
        <time>2011-12-28T12:35:57Z</time>
      </trkpt>
      <trkpt lat="44.02067" lon="3.44811">
        <ele>1299</ele>
        <time>2011-12-28T12:36:04Z</time>
      </trkpt>
      <trkpt lat="44.02074" lon="3.44808">
        <ele>1300</ele>
        <time>2011-12-28T12:36:13Z</time>
      </trkpt>
      <trkpt lat="44.02081" lon="3.44802">
        <ele>1301</ele>
        <time>2011-12-28T12:36:22Z</time>
      </trkpt>
      <trkpt lat="44.0209" lon="3.44794">
        <ele>1302</ele>
        <time>2011-12-28T12:36:33Z</time>
      </trkpt>
      <trkpt lat="44.02096" lon="3.44787">
        <ele>1303</ele>
        <time>2011-12-28T12:36:41Z</time>
      </trkpt>
      <trkpt lat="44.02102" lon="3.4478">
        <ele>1303</ele>
        <time>2011-12-28T12:36:48Z</time>
      </trkpt>
      <trkpt lat="44.02107" lon="3.44776">
        <ele>1301</ele>
        <time>2011-12-28T12:36:55Z</time>
      </trkpt>
      <trkpt lat="44.02108" lon="3.44776">
        <ele>1293</ele>
        <time>2011-12-28T12:36:57Z</time>
      </trkpt>
      <trkpt lat="44.0211" lon="3.44778">
        <ele>1308</ele>
        <time>2011-12-28T12:37:05Z</time>
      </trkpt>
      <trkpt lat="44.02111" lon="3.44779">
        <ele>1297</ele>
        <time>2011-12-28T12:37:06Z</time>
      </trkpt>
      <trkpt lat="44.02112" lon="3.44779">
        <ele>1301</ele>
        <time>2011-12-28T12:37:08Z</time>
      </trkpt>
      <trkpt lat="44.02112" lon="3.4478">
        <ele>1305</ele>
        <time>2011-12-28T12:37:10Z</time>
      </trkpt>
      <trkpt lat="44.02112" lon="3.4478">
        <ele>1304</ele>
        <time>2011-12-28T12:37:11Z</time>
      </trkpt>
      <trkpt lat="44.02113" lon="3.44783">
        <ele>1301</ele>
        <time>2011-12-28T12:37:15Z</time>
      </trkpt>
      <trkpt lat="44.02113" lon="3.44786">
        <ele>1301</ele>
        <time>2011-12-28T12:37:18Z</time>
      </trkpt>
      <trkpt lat="44.02113" lon="3.44789">
        <ele>1302</ele>
        <time>2011-12-28T12:37:20Z</time>
      </trkpt>
      <trkpt lat="44.02114" lon="3.44809">
        <ele>1302</ele>
        <time>2011-12-28T12:37:33Z</time>
      </trkpt>
      <trkpt lat="44.02114" lon="3.44823">
        <ele>1302</ele>
        <time>2011-12-28T12:37:43Z</time>
      </trkpt>
      <trkpt lat="44.02114" lon="3.44836">
        <ele>1303</ele>
        <time>2011-12-28T12:37:51Z</time>
      </trkpt>
      <trkpt lat="44.02114" lon="3.44853">
        <ele>1305</ele>
        <time>2011-12-28T12:38:02Z</time>
      </trkpt>
      <trkpt lat="44.02114" lon="3.44869">
        <ele>1305</ele>
        <time>2011-12-28T12:38:13Z</time>
      </trkpt>
      <trkpt lat="44.02115" lon="3.44882">
        <ele>1307</ele>
        <time>2011-12-28T12:38:22Z</time>
      </trkpt>
      <trkpt lat="44.02116" lon="3.44889">
        <ele>1307</ele>
        <time>2011-12-28T12:38:30Z</time>
      </trkpt>
      <trkpt lat="44.02117" lon="3.44892">
        <ele>1308</ele>
        <time>2011-12-28T12:38:38Z</time>
      </trkpt>
      <trkpt lat="44.02118" lon="3.44904">
        <ele>1309</ele>
        <time>2011-12-28T12:38:47Z</time>
      </trkpt>
      <trkpt lat="44.02119" lon="3.44916">
        <ele>1311</ele>
        <time>2011-12-28T12:38:56Z</time>
      </trkpt>
      <trkpt lat="44.0212" lon="3.44931">
        <ele>1312</ele>
        <time>2011-12-28T12:39:06Z</time>
      </trkpt>
      <trkpt lat="44.02121" lon="3.44936">
        <ele>1312</ele>
        <time>2011-12-28T12:39:10Z</time>
      </trkpt>
      <trkpt lat="44.02123" lon="3.44942">
        <ele>1312</ele>
        <time>2011-12-28T12:39:14Z</time>
      </trkpt>
      <trkpt lat="44.02126" lon="3.44954">
        <ele>1314</ele>
        <time>2011-12-28T12:39:23Z</time>
      </trkpt>
      <trkpt lat="44.02129" lon="3.44961">
        <ele>1315</ele>
        <time>2011-12-28T12:39:30Z</time>
      </trkpt>
      <trkpt lat="44.02132" lon="3.44973">
        <ele>1315</ele>
        <time>2011-12-28T12:39:40Z</time>
      </trkpt>
      <trkpt lat="44.02135" lon="3.44985">
        <ele>1317</ele>
        <time>2011-12-28T12:39:49Z</time>
      </trkpt>
      <trkpt lat="44.0214" lon="3.44999">
        <ele>1318</ele>
        <time>2011-12-28T12:39:59Z</time>
      </trkpt>
      <trkpt lat="44.02144" lon="3.45013">
        <ele>1320</ele>
        <time>2011-12-28T12:40:10Z</time>
      </trkpt>
      <trkpt lat="44.02149" lon="3.45024">
        <ele>1321</ele>
        <time>2011-12-28T12:40:20Z</time>
      </trkpt>
      <trkpt lat="44.02152" lon="3.45029">
        <ele>1322</ele>
        <time>2011-12-28T12:40:26Z</time>
      </trkpt>
      <trkpt lat="44.02158" lon="3.4504">
        <ele>1323</ele>
        <time>2011-12-28T12:40:36Z</time>
      </trkpt>
      <trkpt lat="44.02162" lon="3.45052">
        <ele>1324</ele>
        <time>2011-12-28T12:40:46Z</time>
      </trkpt>
      <trkpt lat="44.02164" lon="3.45063">
        <ele>1326</ele>
        <time>2011-12-28T12:40:55Z</time>
      </trkpt>
      <trkpt lat="44.02165" lon="3.45082">
        <ele>1327</ele>
        <time>2011-12-28T12:41:08Z</time>
      </trkpt>
      <trkpt lat="44.02165" lon="3.45085">
        <ele>1327</ele>
        <time>2011-12-28T12:41:10Z</time>
      </trkpt>
      <trkpt lat="44.02166" lon="3.4509">
        <ele>1329</ele>
        <time>2011-12-28T12:41:14Z</time>
      </trkpt>
      <trkpt lat="44.02167" lon="3.45104">
        <ele>1331</ele>
        <time>2011-12-28T12:41:23Z</time>
      </trkpt>
      <trkpt lat="44.02168" lon="3.45119">
        <ele>1331</ele>
        <time>2011-12-28T12:41:33Z</time>
      </trkpt>
      <trkpt lat="44.02172" lon="3.45136">
        <ele>1332</ele>
        <time>2011-12-28T12:41:46Z</time>
      </trkpt>
      <trkpt lat="44.02177" lon="3.4515">
        <ele>1331</ele>
        <time>2011-12-28T12:41:56Z</time>
      </trkpt>
      <trkpt lat="44.02181" lon="3.45164">
        <ele>1332</ele>
        <time>2011-12-28T12:42:07Z</time>
      </trkpt>
      <trkpt lat="44.02184" lon="3.45177">
        <ele>1332</ele>
        <time>2011-12-28T12:42:17Z</time>
      </trkpt>
      <trkpt lat="44.02186" lon="3.45191">
        <ele>1332</ele>
        <time>2011-12-28T12:42:28Z</time>
      </trkpt>
      <trkpt lat="44.02186" lon="3.45199">
        <ele>1332</ele>
        <time>2011-12-28T12:42:34Z</time>
      </trkpt>
      <trkpt lat="44.02189" lon="3.4521">
        <ele>1333</ele>
        <time>2011-12-28T12:42:45Z</time>
      </trkpt>
      <trkpt lat="44.02195" lon="3.45215">
        <ele>1334</ele>
        <time>2011-12-28T12:47:53Z</time>
      </trkpt>
      <trkpt lat="44.02197" lon="3.45221">
        <ele>1333</ele>
        <time>2011-12-28T12:48:00Z</time>
      </trkpt>
      <trkpt lat="44.02201" lon="3.45229">
        <ele>1333</ele>
        <time>2011-12-28T12:48:07Z</time>
      </trkpt>
      <trkpt lat="44.02207" lon="3.45244">
        <ele>1332</ele>
        <time>2011-12-28T12:56:54Z</time>
      </trkpt>
      <trkpt lat="44.02213" lon="3.45252">
        <ele>1333</ele>
        <time>2011-12-28T12:57:05Z</time>
      </trkpt>
      <trkpt lat="44.0222" lon="3.45262">
        <ele>1333</ele>
        <time>2011-12-28T12:57:16Z</time>
      </trkpt>
      <trkpt lat="44.02223" lon="3.45264">
        <ele>1333</ele>
        <time>2011-12-28T12:57:20Z</time>
      </trkpt>
      <trkpt lat="44.02227" lon="3.45269">
        <ele>1333</ele>
        <time>2011-12-28T12:57:27Z</time>
      </trkpt>
      <trkpt lat="44.02233" lon="3.45277">
        <ele>1335</ele>
        <time>2011-12-28T12:57:37Z</time>
      </trkpt>
      <trkpt lat="44.02234" lon="3.45288">
        <ele>1335</ele>
        <time>2011-12-28T12:57:47Z</time>
      </trkpt>
      <trkpt lat="44.02237" lon="3.45305">
        <ele>1334</ele>
        <time>2011-12-28T12:57:59Z</time>
      </trkpt>
      <trkpt lat="44.02241" lon="3.45316">
        <ele>1335</ele>
        <time>2011-12-28T12:58:08Z</time>
      </trkpt>
      <trkpt lat="44.02244" lon="3.45321">
        <ele>1335</ele>
        <time>2011-12-28T12:58:14Z</time>
      </trkpt>
      <trkpt lat="44.02246" lon="3.45322">
        <ele>1335</ele>
        <time>2011-12-28T12:58:16Z</time>
      </trkpt>
      <trkpt lat="44.02247" lon="3.45327">
        <ele>1336</ele>
        <time>2011-12-28T12:58:20Z</time>
      </trkpt>
      <trkpt lat="44.02251" lon="3.45335">
        <ele>1335</ele>
        <time>2011-12-28T12:58:27Z</time>
      </trkpt>
      <trkpt lat="44.02252" lon="3.45348">
        <ele>1335</ele>
        <time>2011-12-28T12:58:35Z</time>
      </trkpt>
      <trkpt lat="44.0225" lon="3.45362">
        <ele>1335</ele>
        <time>2011-12-28T12:58:44Z</time>
      </trkpt>
      <trkpt lat="44.02249" lon="3.45364">
        <ele>1337</ele>
        <time>2011-12-28T12:58:46Z</time>
      </trkpt>
      <trkpt lat="44.02249" lon="3.4537">
        <ele>1338</ele>
        <time>2011-12-28T12:58:51Z</time>
      </trkpt>
      <trkpt lat="44.02246" lon="3.45376">
        <ele>1338</ele>
        <time>2011-12-28T12:58:59Z</time>
      </trkpt>
      <trkpt lat="44.02245" lon="3.45379">
        <ele>1339</ele>
        <time>2011-12-28T12:59:07Z</time>
      </trkpt>
      <trkpt lat="44.02242" lon="3.45381">
        <ele>1340</ele>
        <time>2011-12-28T12:59:16Z</time>
      </trkpt>
      <trkpt lat="44.02242" lon="3.45384">
        <ele>1341</ele>
        <time>2011-12-28T12:59:25Z</time>
      </trkpt>
      <trkpt lat="44.02241" lon="3.45386">
        <ele>1345</ele>
        <time>2011-12-28T12:59:31Z</time>
      </trkpt>
      <trkpt lat="44.02241" lon="3.45387">
        <ele>1345</ele>
        <time>2011-12-28T12:59:32Z</time>
      </trkpt>
      <trkpt lat="44.02241" lon="3.4539">
        <ele>1344</ele>
        <time>2011-12-28T12:59:35Z</time>
      </trkpt>
      <trkpt lat="44.02242" lon="3.45391">
        <ele>1346</ele>
        <time>2011-12-28T12:59:43Z</time>
      </trkpt>
      <trkpt lat="44.02243" lon="3.45393">
        <ele>1347</ele>
        <time>2011-12-28T12:59:50Z</time>
      </trkpt>
      <trkpt lat="44.02246" lon="3.45398">
        <ele>1347</ele>
        <time>2011-12-28T12:59:58Z</time>
      </trkpt>
      <trkpt lat="44.02247" lon="3.454">
        <ele>1348</ele>
        <time>2011-12-28T13:00:06Z</time>
      </trkpt>
      <trkpt lat="44.02249" lon="3.45399">
        <ele>1350</ele>
        <time>2011-12-28T13:00:10Z</time>
      </trkpt>
      <trkpt lat="44.02251" lon="3.45398">
        <ele>1350</ele>
        <time>2011-12-28T13:00:17Z</time>
      </trkpt>
      <trkpt lat="44.02253" lon="3.45397">
        <ele>1353</ele>
        <time>2011-12-28T13:00:27Z</time>
      </trkpt>
      <trkpt lat="44.02256" lon="3.45399">
        <ele>1356</ele>
        <time>2011-12-28T13:00:41Z</time>
      </trkpt>
      <trkpt lat="44.02258" lon="3.45402">
        <ele>1356</ele>
        <time>2011-12-28T13:00:50Z</time>
      </trkpt>
      <trkpt lat="44.02261" lon="3.454">
        <ele>1358</ele>
        <time>2011-12-28T13:01:14Z</time>
      </trkpt>
      <trkpt lat="44.02261" lon="3.45399">
        <ele>1354</ele>
        <time>2011-12-28T13:01:17Z</time>
      </trkpt>
      <trkpt lat="44.02263" lon="3.45399">
        <ele>1357</ele>
        <time>2011-12-28T13:01:20Z</time>
      </trkpt>
      <trkpt lat="44.02266" lon="3.454">
        <ele>1354</ele>
        <time>2011-12-28T13:01:23Z</time>
      </trkpt>
      <trkpt lat="44.02268" lon="3.45403">
        <ele>1355</ele>
        <time>2011-12-28T13:01:28Z</time>
      </trkpt>
      <trkpt lat="44.02267" lon="3.45409">
        <ele>1360</ele>
        <time>2011-12-28T13:01:34Z</time>
      </trkpt>
      <trkpt lat="44.02268" lon="3.45411">
        <ele>1359</ele>
        <time>2011-12-28T13:01:35Z</time>
      </trkpt>
      <trkpt lat="44.02267" lon="3.45416">
        <ele>1361</ele>
        <time>2011-12-28T13:01:39Z</time>
      </trkpt>
      <trkpt lat="44.02266" lon="3.4542">
        <ele>1369</ele>
        <time>2011-12-28T13:01:43Z</time>
      </trkpt>
      <trkpt lat="44.02263" lon="3.45418">
        <ele>1371</ele>
        <time>2011-12-28T13:01:46Z</time>
      </trkpt>
      <trkpt lat="44.02261" lon="3.45421">
        <ele>1371</ele>
        <time>2011-12-28T13:01:50Z</time>
      </trkpt>
      <trkpt lat="44.02262" lon="3.45424">
        <ele>1372</ele>
        <time>2011-12-28T13:01:53Z</time>
      </trkpt>
      <trkpt lat="44.02263" lon="3.45428">
        <ele>1372</ele>
        <time>2011-12-28T13:02:01Z</time>
      </trkpt>
      <trkpt lat="44.02262" lon="3.45433">
        <ele>1373</ele>
        <time>2011-12-28T13:02:09Z</time>
      </trkpt>
      <trkpt lat="44.02261" lon="3.45433">
        <ele>1372</ele>
        <time>2011-12-28T13:02:21Z</time>
      </trkpt>
      <trkpt lat="44.0226" lon="3.45433">
        <ele>1373</ele>
        <time>2011-12-28T13:02:29Z</time>
      </trkpt>
      <trkpt lat="44.0226" lon="3.45432">
        <ele>1377</ele>
        <time>2011-12-28T13:02:31Z</time>
      </trkpt>
      <trkpt lat="44.02263" lon="3.45426">
        <ele>1366</ele>
        <time>2011-12-28T13:12:44Z</time>
      </trkpt>
      <trkpt lat="44.02264" lon="3.45417">
        <ele>1364</ele>
        <time>2011-12-28T13:12:57Z</time>
      </trkpt>
      <trkpt lat="44.02265" lon="3.45417">
        <ele>1367</ele>
        <time>2011-12-28T13:12:58Z</time>
      </trkpt>
      <trkpt lat="44.02266" lon="3.45419">
        <ele>1360</ele>
        <time>2011-12-28T13:13:01Z</time>
      </trkpt>
      <trkpt lat="44.02269" lon="3.45417">
        <ele>1360</ele>
        <time>2011-12-28T13:13:06Z</time>
      </trkpt>
      <trkpt lat="44.0227" lon="3.45413">
        <ele>1357</ele>
        <time>2011-12-28T13:13:10Z</time>
      </trkpt>
      <trkpt lat="44.0227" lon="3.45411">
        <ele>1353</ele>
        <time>2011-12-28T13:13:12Z</time>
      </trkpt>
      <trkpt lat="44.02269" lon="3.45409">
        <ele>1355</ele>
        <time>2011-12-28T13:13:15Z</time>
      </trkpt>
      <trkpt lat="44.02269" lon="3.45405">
        <ele>1356</ele>
        <time>2011-12-28T13:13:19Z</time>
      </trkpt>
      <trkpt lat="44.02267" lon="3.45401">
        <ele>1355</ele>
        <time>2011-12-28T13:13:24Z</time>
      </trkpt>
      <trkpt lat="44.02265" lon="3.45401">
        <ele>1360</ele>
        <time>2011-12-28T13:13:26Z</time>
      </trkpt>
      <trkpt lat="44.02263" lon="3.45401">
        <ele>1361</ele>
        <time>2011-12-28T13:13:28Z</time>
      </trkpt>
      <trkpt lat="44.02263" lon="3.454">
        <ele>1360</ele>
        <time>2011-12-28T13:13:30Z</time>
      </trkpt>
      <trkpt lat="44.02262" lon="3.454">
        <ele>1358</ele>
        <time>2011-12-28T13:13:37Z</time>
      </trkpt>
      <trkpt lat="44.02257" lon="3.45399">
        <ele>1355</ele>
        <time>2011-12-28T13:13:53Z</time>
      </trkpt>
      <trkpt lat="44.02256" lon="3.45398">
        <ele>1355</ele>
        <time>2011-12-28T13:13:54Z</time>
      </trkpt>
      <trkpt lat="44.02254" lon="3.45396">
        <ele>1353</ele>
        <time>2011-12-28T13:13:58Z</time>
      </trkpt>
      <trkpt lat="44.02252" lon="3.45396">
        <ele>1351</ele>
        <time>2011-12-28T13:14:05Z</time>
      </trkpt>
      <trkpt lat="44.02249" lon="3.45395">
        <ele>1349</ele>
        <time>2011-12-28T13:14:14Z</time>
      </trkpt>
      <trkpt lat="44.02246" lon="3.45393">
        <ele>1346</ele>
        <time>2011-12-28T13:14:20Z</time>
      </trkpt>
      <trkpt lat="44.02246" lon="3.45392">
        <ele>1344</ele>
        <time>2011-12-28T13:14:25Z</time>
      </trkpt>
      <trkpt lat="44.02244" lon="3.45385">
        <ele>1342</ele>
        <time>2011-12-28T13:14:35Z</time>
      </trkpt>
      <trkpt lat="44.02244" lon="3.45381">
        <ele>1341</ele>
        <time>2011-12-28T13:14:38Z</time>
      </trkpt>
      <trkpt lat="44.02244" lon="3.45375">
        <ele>1337</ele>
        <time>2011-12-28T13:14:44Z</time>
      </trkpt>
      <trkpt lat="44.02244" lon="3.45372">
        <ele>1333</ele>
        <time>2011-12-28T13:14:47Z</time>
      </trkpt>
      <trkpt lat="44.02249" lon="3.45357">
        <ele>1333</ele>
        <time>2011-12-28T13:14:54Z</time>
      </trkpt>
      <trkpt lat="44.02251" lon="3.45357">
        <ele>1333</ele>
        <time>2011-12-28T13:14:56Z</time>
      </trkpt>
      <trkpt lat="44.0225" lon="3.45352">
        <ele>1333</ele>
        <time>2011-12-28T13:15:03Z</time>
      </trkpt>
      <trkpt lat="44.0226" lon="3.45353">
        <ele>1333</ele>
        <time>2011-12-28T14:08:50Z</time>
      </trkpt>
      <trkpt lat="44.02266" lon="3.45358">
        <ele>1332</ele>
        <time>2011-12-28T14:08:58Z</time>
      </trkpt>
      <trkpt lat="44.02272" lon="3.45362">
        <ele>1330</ele>
        <time>2011-12-28T14:09:07Z</time>
      </trkpt>
      <trkpt lat="44.02275" lon="3.45362">
        <ele>1329</ele>
        <time>2011-12-28T14:09:12Z</time>
      </trkpt>
      <trkpt lat="44.02278" lon="3.45363">
        <ele>1328</ele>
        <time>2011-12-28T14:09:19Z</time>
      </trkpt>
      <trkpt lat="44.02281" lon="3.45363">
        <ele>1328</ele>
        <time>2011-12-28T14:09:23Z</time>
      </trkpt>
      <trkpt lat="44.02285" lon="3.45367">
        <ele>1327</ele>
        <time>2011-12-28T14:09:31Z</time>
      </trkpt>
      <trkpt lat="44.0229" lon="3.4537">
        <ele>1326</ele>
        <time>2011-12-28T14:09:38Z</time>
      </trkpt>
      <trkpt lat="44.02294" lon="3.45374">
        <ele>1323</ele>
        <time>2011-12-28T14:09:45Z</time>
      </trkpt>
      <trkpt lat="44.023" lon="3.45379">
        <ele>1319</ele>
        <time>2011-12-28T14:09:54Z</time>
      </trkpt>
      <trkpt lat="44.023" lon="3.4538">
        <ele>1319</ele>
        <time>2011-12-28T14:09:55Z</time>
      </trkpt>
      <trkpt lat="44.02304" lon="3.45383">
        <ele>1320</ele>
        <time>2011-12-28T14:10:00Z</time>
      </trkpt>
      <trkpt lat="44.02306" lon="3.45385">
        <ele>1318</ele>
        <time>2011-12-28T14:10:03Z</time>
      </trkpt>
      <trkpt lat="44.02311" lon="3.45389">
        <ele>1318</ele>
        <time>2011-12-28T14:10:10Z</time>
      </trkpt>
      <trkpt lat="44.02312" lon="3.45393">
        <ele>1317</ele>
        <time>2011-12-28T14:10:17Z</time>
      </trkpt>
      <trkpt lat="44.02313" lon="3.45396">
        <ele>1315</ele>
        <time>2011-12-28T14:10:24Z</time>
      </trkpt>
      <trkpt lat="44.02316" lon="3.45399">
        <ele>1315</ele>
        <time>2011-12-28T14:10:31Z</time>
      </trkpt>
      <trkpt lat="44.02319" lon="3.45402">
        <ele>1313</ele>
        <time>2011-12-28T14:10:41Z</time>
      </trkpt>
      <trkpt lat="44.0232" lon="3.45403">
        <ele>1312</ele>
        <time>2011-12-28T14:10:43Z</time>
      </trkpt>
      <trkpt lat="44.02324" lon="3.45409">
        <ele>1310</ele>
        <time>2011-12-28T14:10:50Z</time>
      </trkpt>
      <trkpt lat="44.02327" lon="3.45416">
        <ele>1310</ele>
        <time>2011-12-28T14:10:59Z</time>
      </trkpt>
      <trkpt lat="44.02328" lon="3.45421">
        <ele>1307</ele>
        <time>2011-12-28T14:11:04Z</time>
      </trkpt>
      <trkpt lat="44.02331" lon="3.45428">
        <ele>1305</ele>
        <time>2011-12-28T14:11:12Z</time>
      </trkpt>
      <trkpt lat="44.02334" lon="3.45432">
        <ele>1305</ele>
        <time>2011-12-28T14:11:16Z</time>
      </trkpt>
      <trkpt lat="44.02334" lon="3.45438">
        <ele>1303</ele>
        <time>2011-12-28T14:11:20Z</time>
      </trkpt>
      <trkpt lat="44.02334" lon="3.45441">
        <ele>1303</ele>
        <time>2011-12-28T14:11:22Z</time>
      </trkpt>
      <trkpt lat="44.02333" lon="3.45447">
        <ele>1303</ele>
        <time>2011-12-28T14:11:27Z</time>
      </trkpt>
      <trkpt lat="44.0233" lon="3.45458">
        <ele>1301</ele>
        <time>2011-12-28T14:11:36Z</time>
      </trkpt>
      <trkpt lat="44.02329" lon="3.4547">
        <ele>1301</ele>
        <time>2011-12-28T14:11:43Z</time>
      </trkpt>
      <trkpt lat="44.02328" lon="3.45476">
        <ele>1301</ele>
        <time>2011-12-28T14:11:47Z</time>
      </trkpt>
      <trkpt lat="44.02329" lon="3.45481">
        <ele>1300</ele>
        <time>2011-12-28T14:11:50Z</time>
      </trkpt>
      <trkpt lat="44.02328" lon="3.45487">
        <ele>1300</ele>
        <time>2011-12-28T14:11:54Z</time>
      </trkpt>
      <trkpt lat="44.02325" lon="3.45493">
        <ele>1299</ele>
        <time>2011-12-28T14:11:59Z</time>
      </trkpt>
      <trkpt lat="44.02323" lon="3.45503">
        <ele>1300</ele>
        <time>2011-12-28T14:12:05Z</time>
      </trkpt>
      <trkpt lat="44.02319" lon="3.45521">
        <ele>1300</ele>
        <time>2011-12-28T14:12:15Z</time>
      </trkpt>
      <trkpt lat="44.02318" lon="3.45534">
        <ele>1301</ele>
        <time>2011-12-28T14:12:23Z</time>
      </trkpt>
      <trkpt lat="44.02317" lon="3.45539">
        <ele>1301</ele>
        <time>2011-12-28T14:12:26Z</time>
      </trkpt>
      <trkpt lat="44.02314" lon="3.45546">
        <ele>1301</ele>
        <time>2011-12-28T14:12:31Z</time>
      </trkpt>
      <trkpt lat="44.0231" lon="3.45558">
        <ele>1303</ele>
        <time>2011-12-28T14:12:39Z</time>
      </trkpt>
      <trkpt lat="44.02305" lon="3.45574">
        <ele>1304</ele>
        <time>2011-12-28T14:12:50Z</time>
      </trkpt>
      <trkpt lat="44.02301" lon="3.45585">
        <ele>1303</ele>
        <time>2011-12-28T14:12:58Z</time>
      </trkpt>
      <trkpt lat="44.02292" lon="3.45597">
        <ele>1302</ele>
        <time>2011-12-28T14:13:06Z</time>
      </trkpt>
      <trkpt lat="44.02277" lon="3.45613">
        <ele>1303</ele>
        <time>2011-12-28T14:13:19Z</time>
      </trkpt>
      <trkpt lat="44.02266" lon="3.45621">
        <ele>1302</ele>
        <time>2011-12-28T14:13:29Z</time>
      </trkpt>
      <trkpt lat="44.02261" lon="3.45625">
        <ele>1301</ele>
        <time>2011-12-28T14:13:34Z</time>
      </trkpt>
      <trkpt lat="44.02259" lon="3.45626">
        <ele>1301</ele>
        <time>2011-12-28T14:13:36Z</time>
      </trkpt>
      <trkpt lat="44.02249" lon="3.45636">
        <ele>1302</ele>
        <time>2011-12-28T14:13:46Z</time>
      </trkpt>
      <trkpt lat="44.02244" lon="3.45641">
        <ele>1300</ele>
        <time>2011-12-28T14:13:54Z</time>
      </trkpt>
      <trkpt lat="44.02242" lon="3.45642">
        <ele>1301</ele>
        <time>2011-12-28T14:14:02Z</time>
      </trkpt>
      <trkpt lat="44.02242" lon="3.45642">
        <ele>1301</ele>
        <time>2011-12-28T14:14:25Z</time>
      </trkpt>
      <trkpt lat="44.02242" lon="3.45642">
        <ele>1301</ele>
        <time>2011-12-28T14:14:42Z</time>
      </trkpt>
      <trkpt lat="44.02239" lon="3.45641">
        <ele>1300</ele>
        <time>2011-12-28T14:14:52Z</time>
      </trkpt>
      <trkpt lat="44.02232" lon="3.45635">
        <ele>1301</ele>
        <time>2011-12-28T14:15:01Z</time>
      </trkpt>
      <trkpt lat="44.02223" lon="3.45628">
        <ele>1301</ele>
        <time>2011-12-28T14:15:11Z</time>
      </trkpt>
      <trkpt lat="44.02214" lon="3.45621">
        <ele>1300</ele>
        <time>2011-12-28T14:15:22Z</time>
      </trkpt>
      <trkpt lat="44.02212" lon="3.45619">
        <ele>1299</ele>
        <time>2011-12-28T14:15:25Z</time>
      </trkpt>
      <trkpt lat="44.02205" lon="3.45611">
        <ele>1299</ele>
        <time>2011-12-28T14:15:33Z</time>
      </trkpt>
      <trkpt lat="44.02202" lon="3.45605">
        <ele>1296</ele>
        <time>2011-12-28T14:15:41Z</time>
      </trkpt>
      <trkpt lat="44.02198" lon="3.45598">
        <ele>1295</ele>
        <time>2011-12-28T14:15:49Z</time>
      </trkpt>
      <trkpt lat="44.02195" lon="3.45591">
        <ele>1295</ele>
        <time>2011-12-28T14:15:56Z</time>
      </trkpt>
      <trkpt lat="44.02191" lon="3.45586">
        <ele>1296</ele>
        <time>2011-12-28T14:16:02Z</time>
      </trkpt>
      <trkpt lat="44.02183" lon="3.45574">
        <ele>1295</ele>
        <time>2011-12-28T14:16:15Z</time>
      </trkpt>
      <trkpt lat="44.02182" lon="3.45573">
        <ele>1295</ele>
        <time>2011-12-28T14:16:16Z</time>
      </trkpt>
      <trkpt lat="44.02177" lon="3.45564">
        <ele>1293</ele>
        <time>2011-12-28T14:16:25Z</time>
      </trkpt>
      <trkpt lat="44.02173" lon="3.45555">
        <ele>1293</ele>
        <time>2011-12-28T14:16:35Z</time>
      </trkpt>
      <trkpt lat="44.02163" lon="3.4555">
        <ele>1293</ele>
        <time>2011-12-28T14:16:43Z</time>
      </trkpt>
      <trkpt lat="44.02156" lon="3.45546">
        <ele>1292</ele>
        <time>2011-12-28T14:16:50Z</time>
      </trkpt>
      <trkpt lat="44.02146" lon="3.45537">
        <ele>1291</ele>
        <time>2011-12-28T14:16:59Z</time>
      </trkpt>
      <trkpt lat="44.02137" lon="3.45531">
        <ele>1288</ele>
        <time>2011-12-28T14:17:06Z</time>
      </trkpt>
      <trkpt lat="44.02127" lon="3.4553">
        <ele>1287</ele>
        <time>2011-12-28T14:17:13Z</time>
      </trkpt>
      <trkpt lat="44.02124" lon="3.45531">
        <ele>1286</ele>
        <time>2011-12-28T14:17:15Z</time>
      </trkpt>
      <trkpt lat="44.0212" lon="3.45529">
        <ele>1285</ele>
        <time>2011-12-28T14:17:20Z</time>
      </trkpt>
      <trkpt lat="44.02115" lon="3.45529">
        <ele>1284</ele>
        <time>2011-12-28T14:17:26Z</time>
      </trkpt>
      <trkpt lat="44.02112" lon="3.45529">
        <ele>1284</ele>
        <time>2011-12-28T14:17:28Z</time>
      </trkpt>
      <trkpt lat="44.02096" lon="3.45535">
        <ele>1282</ele>
        <time>2011-12-28T14:17:39Z</time>
      </trkpt>
      <trkpt lat="44.02083" lon="3.45541">
        <ele>1281</ele>
        <time>2011-12-28T14:17:47Z</time>
      </trkpt>
      <trkpt lat="44.02077" lon="3.45544">
        <ele>1281</ele>
        <time>2011-12-28T14:17:52Z</time>
      </trkpt>
      <trkpt lat="44.02068" lon="3.45548">
        <ele>1280</ele>
        <time>2011-12-28T14:18:00Z</time>
      </trkpt>
      <trkpt lat="44.02053" lon="3.45559">
        <ele>1279</ele>
        <time>2011-12-28T14:18:13Z</time>
      </trkpt>
      <trkpt lat="44.02044" lon="3.45567">
        <ele>1278</ele>
        <time>2011-12-28T14:18:21Z</time>
      </trkpt>
      <trkpt lat="44.02034" lon="3.45578">
        <ele>1277</ele>
        <time>2011-12-28T14:18:31Z</time>
      </trkpt>
      <trkpt lat="44.02029" lon="3.4558">
        <ele>1275</ele>
        <time>2011-12-28T14:18:35Z</time>
      </trkpt>
      <trkpt lat="44.0202" lon="3.45586">
        <ele>1274</ele>
        <time>2011-12-28T14:18:43Z</time>
      </trkpt>
      <trkpt lat="44.02015" lon="3.45592">
        <ele>1274</ele>
        <time>2011-12-28T14:18:47Z</time>
      </trkpt>
      <trkpt lat="44.02007" lon="3.45597">
        <ele>1274</ele>
        <time>2011-12-28T14:18:55Z</time>
      </trkpt>
      <trkpt lat="44.02001" lon="3.45605">
        <ele>1274</ele>
        <time>2011-12-28T14:19:01Z</time>
      </trkpt>
      <trkpt lat="44.01993" lon="3.45612">
        <ele>1273</ele>
        <time>2011-12-28T14:19:08Z</time>
      </trkpt>
      <trkpt lat="44.01988" lon="3.45617">
        <ele>1272</ele>
        <time>2011-12-28T14:19:12Z</time>
      </trkpt>
      <trkpt lat="44.01983" lon="3.4562">
        <ele>1272</ele>
        <time>2011-12-28T14:19:15Z</time>
      </trkpt>
      <trkpt lat="44.01974" lon="3.45624">
        <ele>1272</ele>
        <time>2011-12-28T14:19:23Z</time>
      </trkpt>
      <trkpt lat="44.01964" lon="3.45633">
        <ele>1273</ele>
        <time>2011-12-28T14:19:32Z</time>
      </trkpt>
      <trkpt lat="44.01963" lon="3.45633">
        <ele>1273</ele>
        <time>2011-12-28T14:19:33Z</time>
      </trkpt>
      <trkpt lat="44.01955" lon="3.45638">
        <ele>1271</ele>
        <time>2011-12-28T14:19:40Z</time>
      </trkpt>
      <trkpt lat="44.01949" lon="3.45641">
        <ele>1270</ele>
        <time>2011-12-28T14:19:48Z</time>
      </trkpt>
      <trkpt lat="44.01941" lon="3.45649">
        <ele>1268</ele>
        <time>2011-12-28T14:19:56Z</time>
      </trkpt>
      <trkpt lat="44.01933" lon="3.45653">
        <ele>1269</ele>
        <time>2011-12-28T14:20:04Z</time>
      </trkpt>
      <trkpt lat="44.01929" lon="3.45656">
        <ele>1268</ele>
        <time>2011-12-28T14:20:11Z</time>
      </trkpt>
      <trkpt lat="44.01924" lon="3.45663">
        <ele>1268</ele>
        <time>2011-12-28T14:20:19Z</time>
      </trkpt>
      <trkpt lat="44.01922" lon="3.45666">
        <ele>1267</ele>
        <time>2011-12-28T14:20:23Z</time>
      </trkpt>
      <trkpt lat="44.01919" lon="3.4567">
        <ele>1265</ele>
        <time>2011-12-28T14:20:27Z</time>
      </trkpt>
      <trkpt lat="44.01912" lon="3.45678">
        <ele>1265</ele>
        <time>2011-12-28T14:20:37Z</time>
      </trkpt>
      <trkpt lat="44.01904" lon="3.4569">
        <ele>1267</ele>
        <time>2011-12-28T14:20:45Z</time>
      </trkpt>
      <trkpt lat="44.01901" lon="3.45697">
        <ele>1265</ele>
        <time>2011-12-28T14:20:51Z</time>
      </trkpt>
      <trkpt lat="44.01902" lon="3.45698">
        <ele>1265</ele>
        <time>2011-12-28T14:20:54Z</time>
      </trkpt>
      <trkpt lat="44.01908" lon="3.45694">
        <ele>1263</ele>
        <time>2011-12-28T14:21:04Z</time>
      </trkpt>
      <trkpt lat="44.01915" lon="3.45692">
        <ele>1261</ele>
        <time>2011-12-28T14:21:11Z</time>
      </trkpt>
      <trkpt lat="44.01923" lon="3.45693">
        <ele>1260</ele>
        <time>2011-12-28T14:21:20Z</time>
      </trkpt>
      <trkpt lat="44.01933" lon="3.45693">
        <ele>1260</ele>
        <time>2011-12-28T14:21:29Z</time>
      </trkpt>
      <trkpt lat="44.01937" lon="3.45697">
        <ele>1260</ele>
        <time>2011-12-28T14:21:36Z</time>
      </trkpt>
      <trkpt lat="44.01942" lon="3.45701">
        <ele>1258</ele>
        <time>2011-12-28T14:21:43Z</time>
      </trkpt>
      <trkpt lat="44.01952" lon="3.45708">
        <ele>1258</ele>
        <time>2011-12-28T14:21:53Z</time>
      </trkpt>
      <trkpt lat="44.01963" lon="3.45716">
        <ele>1256</ele>
        <time>2011-12-28T14:22:04Z</time>
      </trkpt>
      <trkpt lat="44.01972" lon="3.45722">
        <ele>1255</ele>
        <time>2011-12-28T14:22:13Z</time>
      </trkpt>
      <trkpt lat="44.01979" lon="3.4573">
        <ele>1253</ele>
        <time>2011-12-28T14:22:22Z</time>
      </trkpt>
      <trkpt lat="44.01984" lon="3.45737">
        <ele>1253</ele>
        <time>2011-12-28T14:22:29Z</time>
      </trkpt>
      <trkpt lat="44.01984" lon="3.45753">
        <ele>1253</ele>
        <time>2011-12-28T14:22:39Z</time>
      </trkpt>
      <trkpt lat="44.01984" lon="3.45765">
        <ele>1252</ele>
        <time>2011-12-28T14:22:48Z</time>
      </trkpt>
      <trkpt lat="44.01983" lon="3.45773">
        <ele>1252</ele>
        <time>2011-12-28T14:22:53Z</time>
      </trkpt>
      <trkpt lat="44.0198" lon="3.45785">
        <ele>1251</ele>
        <time>2011-12-28T14:23:00Z</time>
      </trkpt>
      <trkpt lat="44.01979" lon="3.45796">
        <ele>1250</ele>
        <time>2011-12-28T14:23:06Z</time>
      </trkpt>
      <trkpt lat="44.01979" lon="3.45814">
        <ele>1251</ele>
        <time>2011-12-28T14:23:16Z</time>
      </trkpt>
      <trkpt lat="44.01979" lon="3.45821">
        <ele>1251</ele>
        <time>2011-12-28T14:23:20Z</time>
      </trkpt>
      <trkpt lat="44.01979" lon="3.45833">
        <ele>1249</ele>
        <time>2011-12-28T14:23:28Z</time>
      </trkpt>
      <trkpt lat="44.01978" lon="3.45851">
        <ele>1249</ele>
        <time>2011-12-28T14:23:38Z</time>
      </trkpt>
      <trkpt lat="44.01976" lon="3.45865">
        <ele>1247</ele>
        <time>2011-12-28T14:23:46Z</time>
      </trkpt>
      <trkpt lat="44.01975" lon="3.45871">
        <ele>1246</ele>
        <time>2011-12-28T14:23:49Z</time>
      </trkpt>
      <trkpt lat="44.0197" lon="3.45883">
        <ele>1246</ele>
        <time>2011-12-28T14:23:57Z</time>
      </trkpt>
      <trkpt lat="44.01969" lon="3.45886">
        <ele>1245</ele>
        <time>2011-12-28T14:23:59Z</time>
      </trkpt>
      <trkpt lat="44.01963" lon="3.45894">
        <ele>1244</ele>
        <time>2011-12-28T14:24:06Z</time>
      </trkpt>
      <trkpt lat="44.0196" lon="3.45896">
        <ele>1244</ele>
        <time>2011-12-28T14:24:11Z</time>
      </trkpt>
      <trkpt lat="44.01958" lon="3.45896">
        <ele>1244</ele>
        <time>2011-12-28T14:24:13Z</time>
      </trkpt>
      <trkpt lat="44.01952" lon="3.45911">
        <ele>1244</ele>
        <time>2011-12-28T14:24:22Z</time>
      </trkpt>
      <trkpt lat="44.0195" lon="3.45922">
        <ele>1243</ele>
        <time>2011-12-28T14:24:29Z</time>
      </trkpt>
      <trkpt lat="44.01945" lon="3.45938">
        <ele>1243</ele>
        <time>2011-12-28T14:24:38Z</time>
      </trkpt>
      <trkpt lat="44.01939" lon="3.45944">
        <ele>1241</ele>
        <time>2011-12-28T14:24:44Z</time>
      </trkpt>
      <trkpt lat="44.01927" lon="3.45953">
        <ele>1238</ele>
        <time>2011-12-28T14:24:55Z</time>
      </trkpt>
      <trkpt lat="44.01918" lon="3.45962">
        <ele>1239</ele>
        <time>2011-12-28T14:25:03Z</time>
      </trkpt>
      <trkpt lat="44.01914" lon="3.45966">
        <ele>1238</ele>
        <time>2011-12-28T14:25:07Z</time>
      </trkpt>
      <trkpt lat="44.0191" lon="3.45971">
        <ele>1238</ele>
        <time>2011-12-28T14:25:14Z</time>
      </trkpt>
      <trkpt lat="44.019" lon="3.4598">
        <ele>1237</ele>
        <time>2011-12-28T14:25:24Z</time>
      </trkpt>
      <trkpt lat="44.01898" lon="3.45984">
        <ele>1236</ele>
        <time>2011-12-28T14:25:27Z</time>
      </trkpt>
      <trkpt lat="44.01896" lon="3.45988">
        <ele>1235</ele>
        <time>2011-12-28T14:25:30Z</time>
      </trkpt>
      <trkpt lat="44.01895" lon="3.45997">
        <ele>1235</ele>
        <time>2011-12-28T14:25:37Z</time>
      </trkpt>
      <trkpt lat="44.01893" lon="3.46002">
        <ele>1234</ele>
        <time>2011-12-28T14:25:41Z</time>
      </trkpt>
      <trkpt lat="44.01888" lon="3.46013">
        <ele>1234</ele>
        <time>2011-12-28T14:25:50Z</time>
      </trkpt>
      <trkpt lat="44.01881" lon="3.46022">
        <ele>1233</ele>
        <time>2011-12-28T14:25:59Z</time>
      </trkpt>
      <trkpt lat="44.01878" lon="3.46026">
        <ele>1232</ele>
        <time>2011-12-28T14:26:04Z</time>
      </trkpt>
      <trkpt lat="44.01871" lon="3.46025">
        <ele>1231</ele>
        <time>2011-12-28T14:26:11Z</time>
      </trkpt>
      <trkpt lat="44.01862" lon="3.46026">
        <ele>1231</ele>
        <time>2011-12-28T14:26:16Z</time>
      </trkpt>
      <trkpt lat="44.01859" lon="3.46028">
        <ele>1231</ele>
        <time>2011-12-28T14:26:18Z</time>
      </trkpt>
      <trkpt lat="44.01852" lon="3.4603">
        <ele>1230</ele>
        <time>2011-12-28T14:26:23Z</time>
      </trkpt>
      <trkpt lat="44.0185" lon="3.46031">
        <ele>1229</ele>
        <time>2011-12-28T14:26:25Z</time>
      </trkpt>
      <trkpt lat="44.01838" lon="3.46039">
        <ele>1227</ele>
        <time>2011-12-28T14:26:35Z</time>
      </trkpt>
      <trkpt lat="44.01828" lon="3.46042">
        <ele>1227</ele>
        <time>2011-12-28T14:26:42Z</time>
      </trkpt>
      <trkpt lat="44.01823" lon="3.46045">
        <ele>1225</ele>
        <time>2011-12-28T14:26:48Z</time>
      </trkpt>
      <trkpt lat="44.01817" lon="3.46049">
        <ele>1224</ele>
        <time>2011-12-28T14:26:54Z</time>
      </trkpt>
      <trkpt lat="44.01807" lon="3.46055">
        <ele>1223</ele>
        <time>2011-12-28T14:27:02Z</time>
      </trkpt>
      <trkpt lat="44.01792" lon="3.46058">
        <ele>1221</ele>
        <time>2011-12-28T14:27:13Z</time>
      </trkpt>
      <trkpt lat="44.01779" lon="3.46061">
        <ele>1219</ele>
        <time>2011-12-28T14:27:23Z</time>
      </trkpt>
      <trkpt lat="44.0177" lon="3.46063">
        <ele>1219</ele>
        <time>2011-12-28T14:27:30Z</time>
      </trkpt>
      <trkpt lat="44.01759" lon="3.46067">
        <ele>1216</ele>
        <time>2011-12-28T14:27:38Z</time>
      </trkpt>
      <trkpt lat="44.01746" lon="3.46065">
        <ele>1215</ele>
        <time>2011-12-28T14:27:47Z</time>
      </trkpt>
      <trkpt lat="44.01737" lon="3.46056">
        <ele>1215</ele>
        <time>2011-12-28T14:27:56Z</time>
      </trkpt>
      <trkpt lat="44.01732" lon="3.46052">
        <ele>1215</ele>
        <time>2011-12-28T14:28:00Z</time>
      </trkpt>
      <trkpt lat="44.01721" lon="3.46048">
        <ele>1212</ele>
        <time>2011-12-28T14:28:10Z</time>
      </trkpt>
      <trkpt lat="44.01707" lon="3.46046">
        <ele>1210</ele>
        <time>2011-12-28T14:28:20Z</time>
      </trkpt>
      <trkpt lat="44.01698" lon="3.46045">
        <ele>1209</ele>
        <time>2011-12-28T14:28:27Z</time>
      </trkpt>
      <trkpt lat="44.01692" lon="3.46045">
        <ele>1208</ele>
        <time>2011-12-28T14:28:32Z</time>
      </trkpt>
      <trkpt lat="44.01688" lon="3.46045">
        <ele>1207</ele>
        <time>2011-12-28T14:28:35Z</time>
      </trkpt>
      <trkpt lat="44.01685" lon="3.46046">
        <ele>1207</ele>
        <time>2011-12-28T14:28:37Z</time>
      </trkpt>
      <trkpt lat="44.01675" lon="3.46049">
        <ele>1204</ele>
        <time>2011-12-28T14:28:45Z</time>
      </trkpt>
      <trkpt lat="44.01666" lon="3.46051">
        <ele>1203</ele>
        <time>2011-12-28T14:28:53Z</time>
      </trkpt>
      <trkpt lat="44.01657" lon="3.46052">
        <ele>1203</ele>
        <time>2011-12-28T14:29:00Z</time>
      </trkpt>
      <trkpt lat="44.01646" lon="3.46055">
        <ele>1203</ele>
        <time>2011-12-28T14:29:10Z</time>
      </trkpt>
      <trkpt lat="44.0164" lon="3.46058">
        <ele>1202</ele>
        <time>2011-12-28T14:29:16Z</time>
      </trkpt>
      <trkpt lat="44.01634" lon="3.46062">
        <ele>1201</ele>
        <time>2011-12-28T14:29:21Z</time>
      </trkpt>
      <trkpt lat="44.01624" lon="3.46073">
        <ele>1198</ele>
        <time>2011-12-28T14:29:32Z</time>
      </trkpt>
      <trkpt lat="44.01619" lon="3.46084">
        <ele>1196</ele>
        <time>2011-12-28T14:29:40Z</time>
      </trkpt>
      <trkpt lat="44.01614" lon="3.46094">
        <ele>1196</ele>
        <time>2011-12-28T14:29:48Z</time>
      </trkpt>
      <trkpt lat="44.0161" lon="3.46099">
        <ele>1195</ele>
        <time>2011-12-28T14:29:52Z</time>
      </trkpt>
      <trkpt lat="44.01607" lon="3.46109">
        <ele>1195</ele>
        <time>2011-12-28T14:30:00Z</time>
      </trkpt>
      <trkpt lat="44.01609" lon="3.46114">
        <ele>1194</ele>
        <time>2011-12-28T14:30:05Z</time>
      </trkpt>
      <trkpt lat="44.01611" lon="3.46121">
        <ele>1193</ele>
        <time>2011-12-28T14:30:10Z</time>
      </trkpt>
      <trkpt lat="44.01616" lon="3.46132">
        <ele>1190</ele>
        <time>2011-12-28T14:30:18Z</time>
      </trkpt>
      <trkpt lat="44.01616" lon="3.46139">
        <ele>1191</ele>
        <time>2011-12-28T14:30:22Z</time>
      </trkpt>
      <trkpt lat="44.01619" lon="3.4615">
        <ele>1191</ele>
        <time>2011-12-28T14:30:31Z</time>
      </trkpt>
      <trkpt lat="44.01622" lon="3.46161">
        <ele>1191</ele>
        <time>2011-12-28T14:30:38Z</time>
      </trkpt>
      <trkpt lat="44.01625" lon="3.46169">
        <ele>1190</ele>
        <time>2011-12-28T14:30:45Z</time>
      </trkpt>
      <trkpt lat="44.0162" lon="3.46184">
        <ele>1188</ele>
        <time>2011-12-28T14:31:40Z</time>
      </trkpt>
      <trkpt lat="44.01618" lon="3.4619">
        <ele>1190</ele>
        <time>2011-12-28T14:31:45Z</time>
      </trkpt>
      <trkpt lat="44.01616" lon="3.46197">
        <ele>1187</ele>
        <time>2011-12-28T14:32:04Z</time>
      </trkpt>
      <trkpt lat="44.01611" lon="3.46209">
        <ele>1186</ele>
        <time>2011-12-28T14:32:11Z</time>
      </trkpt>
      <trkpt lat="44.01605" lon="3.46219">
        <ele>1184</ele>
        <time>2011-12-28T14:32:19Z</time>
      </trkpt>
      <trkpt lat="44.016" lon="3.46226">
        <ele>1183</ele>
        <time>2011-12-28T14:32:24Z</time>
      </trkpt>
      <trkpt lat="44.01598" lon="3.46229">
        <ele>1182</ele>
        <time>2011-12-28T14:32:27Z</time>
      </trkpt>
      <trkpt lat="44.01593" lon="3.46243">
        <ele>1180</ele>
        <time>2011-12-28T14:32:33Z</time>
      </trkpt>
      <trkpt lat="44.01593" lon="3.46254">
        <ele>1178</ele>
        <time>2011-12-28T14:32:39Z</time>
      </trkpt>
      <trkpt lat="44.01594" lon="3.46265">
        <ele>1178</ele>
        <time>2011-12-28T14:32:45Z</time>
      </trkpt>
      <trkpt lat="44.01599" lon="3.46278">
        <ele>1177</ele>
        <time>2011-12-28T14:32:55Z</time>
      </trkpt>
      <trkpt lat="44.01601" lon="3.46279">
        <ele>1177</ele>
        <time>2011-12-28T14:32:57Z</time>
      </trkpt>
      <trkpt lat="44.0161" lon="3.46288">
        <ele>1175</ele>
        <time>2011-12-28T14:33:08Z</time>
      </trkpt>
      <trkpt lat="44.01619" lon="3.46293">
        <ele>1173</ele>
        <time>2011-12-28T14:33:18Z</time>
      </trkpt>
      <trkpt lat="44.01626" lon="3.46296">
        <ele>1172</ele>
        <time>2011-12-28T14:33:26Z</time>
      </trkpt>
      <trkpt lat="44.01633" lon="3.46299">
        <ele>1172</ele>
        <time>2011-12-28T14:33:33Z</time>
      </trkpt>
      <trkpt lat="44.0164" lon="3.46303">
        <ele>1171</ele>
        <time>2011-12-28T14:33:40Z</time>
      </trkpt>
      <trkpt lat="44.01645" lon="3.46306">
        <ele>1170</ele>
        <time>2011-12-28T14:33:48Z</time>
      </trkpt>
      <trkpt lat="44.01648" lon="3.46312">
        <ele>1169</ele>
        <time>2011-12-28T14:33:55Z</time>
      </trkpt>
      <trkpt lat="44.01651" lon="3.46316">
        <ele>1169</ele>
        <time>2011-12-28T14:33:59Z</time>
      </trkpt>
      <trkpt lat="44.01655" lon="3.46334">
        <ele>1168</ele>
        <time>2011-12-28T14:34:09Z</time>
      </trkpt>
      <trkpt lat="44.01654" lon="3.46346">
        <ele>1168</ele>
        <time>2011-12-28T14:34:17Z</time>
      </trkpt>
      <trkpt lat="44.01652" lon="3.4636">
        <ele>1167</ele>
        <time>2011-12-28T14:34:26Z</time>
      </trkpt>
      <trkpt lat="44.0165" lon="3.46366">
        <ele>1167</ele>
        <time>2011-12-28T14:34:30Z</time>
      </trkpt>
      <trkpt lat="44.01646" lon="3.46376">
        <ele>1166</ele>
        <time>2011-12-28T14:34:37Z</time>
      </trkpt>
      <trkpt lat="44.01641" lon="3.46389">
        <ele>1166</ele>
        <time>2011-12-28T14:34:46Z</time>
      </trkpt>
      <trkpt lat="44.01641" lon="3.46393">
        <ele>1165</ele>
        <time>2011-12-28T14:34:48Z</time>
      </trkpt>
      <trkpt lat="44.01639" lon="3.46398">
        <ele>1165</ele>
        <time>2011-12-28T14:34:51Z</time>
      </trkpt>
      <trkpt lat="44.0164" lon="3.46405">
        <ele>1164</ele>
        <time>2011-12-28T14:34:55Z</time>
      </trkpt>
      <trkpt lat="44.01639" lon="3.46409">
        <ele>1164</ele>
        <time>2011-12-28T14:34:58Z</time>
      </trkpt>
      <trkpt lat="44.01637" lon="3.4642">
        <ele>1163</ele>
        <time>2011-12-28T14:35:06Z</time>
      </trkpt>
      <trkpt lat="44.01633" lon="3.46433">
        <ele>1162</ele>
        <time>2011-12-28T14:35:15Z</time>
      </trkpt>
      <trkpt lat="44.01632" lon="3.46437">
        <ele>1161</ele>
        <time>2011-12-28T14:35:18Z</time>
      </trkpt>
      <trkpt lat="44.01633" lon="3.46452">
        <ele>1161</ele>
        <time>2011-12-28T14:35:27Z</time>
      </trkpt>
      <trkpt lat="44.01635" lon="3.46469">
        <ele>1159</ele>
        <time>2011-12-28T14:35:35Z</time>
      </trkpt>
      <trkpt lat="44.01635" lon="3.46484">
        <ele>1159</ele>
        <time>2011-12-28T14:35:43Z</time>
      </trkpt>
      <trkpt lat="44.01635" lon="3.46491">
        <ele>1159</ele>
        <time>2011-12-28T14:35:48Z</time>
      </trkpt>
      <trkpt lat="44.01631" lon="3.46499">
        <ele>1158</ele>
        <time>2011-12-28T14:35:56Z</time>
      </trkpt>
      <trkpt lat="44.01629" lon="3.46511">
        <ele>1157</ele>
        <time>2011-12-28T14:36:03Z</time>
      </trkpt>
      <trkpt lat="44.01626" lon="3.46524">
        <ele>1157</ele>
        <time>2011-12-28T14:36:11Z</time>
      </trkpt>
      <trkpt lat="44.01622" lon="3.46535">
        <ele>1155</ele>
        <time>2011-12-28T14:36:18Z</time>
      </trkpt>
      <trkpt lat="44.01618" lon="3.46551">
        <ele>1155</ele>
        <time>2011-12-28T14:36:28Z</time>
      </trkpt>
      <trkpt lat="44.01615" lon="3.46567">
        <ele>1154</ele>
        <time>2011-12-28T14:36:37Z</time>
      </trkpt>
      <trkpt lat="44.01613" lon="3.46581">
        <ele>1153</ele>
        <time>2011-12-28T14:36:46Z</time>
      </trkpt>
      <trkpt lat="44.0161" lon="3.46596">
        <ele>1152</ele>
        <time>2011-12-28T14:36:56Z</time>
      </trkpt>
      <trkpt lat="44.01607" lon="3.46611">
        <ele>1152</ele>
        <time>2011-12-28T14:37:05Z</time>
      </trkpt>
      <trkpt lat="44.01607" lon="3.46626">
        <ele>1151</ele>
        <time>2011-12-28T14:37:14Z</time>
      </trkpt>
      <trkpt lat="44.01604" lon="3.46638">
        <ele>1150</ele>
        <time>2011-12-28T14:37:22Z</time>
      </trkpt>
      <trkpt lat="44.01602" lon="3.46644">
        <ele>1150</ele>
        <time>2011-12-28T14:37:26Z</time>
      </trkpt>
      <trkpt lat="44.01597" lon="3.46653">
        <ele>1151</ele>
        <time>2011-12-28T14:37:36Z</time>
      </trkpt>
      <trkpt lat="44.01595" lon="3.46655">
        <ele>1150</ele>
        <time>2011-12-28T14:37:47Z</time>
      </trkpt>
      <trkpt lat="44.01593" lon="3.46656">
        <ele>1151</ele>
        <time>2011-12-28T14:37:54Z</time>
      </trkpt>
      <trkpt lat="44.01595" lon="3.46648">
        <ele>1147</ele>
        <time>2011-12-28T14:41:35Z</time>
      </trkpt>
      <trkpt lat="44.01594" lon="3.46639">
        <ele>1147</ele>
        <time>2011-12-28T14:41:44Z</time>
      </trkpt>
      <trkpt lat="44.01594" lon="3.46632">
        <ele>1146</ele>
        <time>2011-12-28T14:41:52Z</time>
      </trkpt>
      <trkpt lat="44.01594" lon="3.4663">
        <ele>1146</ele>
        <time>2011-12-28T14:41:55Z</time>
      </trkpt>
      <trkpt lat="44.01593" lon="3.46617">
        <ele>1146</ele>
        <time>2011-12-28T14:42:03Z</time>
      </trkpt>
      <trkpt lat="44.0159" lon="3.46609">
        <ele>1145</ele>
        <time>2011-12-28T14:42:09Z</time>
      </trkpt>
      <trkpt lat="44.01591" lon="3.46597">
        <ele>1144</ele>
        <time>2011-12-28T14:42:19Z</time>
      </trkpt>
      <trkpt lat="44.01592" lon="3.46591">
        <ele>1142</ele>
        <time>2011-12-28T14:42:26Z</time>
      </trkpt>
      <trkpt lat="44.01593" lon="3.46584">
        <ele>1142</ele>
        <time>2011-12-28T14:42:31Z</time>
      </trkpt>
      <trkpt lat="44.01589" lon="3.4657">
        <ele>1141</ele>
        <time>2011-12-28T14:42:40Z</time>
      </trkpt>
      <trkpt lat="44.01588" lon="3.4656">
        <ele>1140</ele>
        <time>2011-12-28T14:42:47Z</time>
      </trkpt>
      <trkpt lat="44.01586" lon="3.46542">
        <ele>1138</ele>
        <time>2011-12-28T14:42:57Z</time>
      </trkpt>
      <trkpt lat="44.01587" lon="3.46525">
        <ele>1139</ele>
        <time>2011-12-28T14:43:07Z</time>
      </trkpt>
      <trkpt lat="44.01588" lon="3.46517">
        <ele>1138</ele>
        <time>2011-12-28T14:43:11Z</time>
      </trkpt>
      <trkpt lat="44.01588" lon="3.4651">
        <ele>1137</ele>
        <time>2011-12-28T14:43:14Z</time>
      </trkpt>
      <trkpt lat="44.01586" lon="3.46501">
        <ele>1135</ele>
        <time>2011-12-28T14:43:19Z</time>
      </trkpt>
      <trkpt lat="44.01582" lon="3.46485">
        <ele>1134</ele>
        <time>2011-12-28T14:43:30Z</time>
      </trkpt>
      <trkpt lat="44.01581" lon="3.46473">
        <ele>1133</ele>
        <time>2011-12-28T14:43:38Z</time>
      </trkpt>
      <trkpt lat="44.0158" lon="3.46459">
        <ele>1132</ele>
        <time>2011-12-28T14:43:48Z</time>
      </trkpt>
      <trkpt lat="44.0158" lon="3.46457">
        <ele>1133</ele>
        <time>2011-12-28T14:43:59Z</time>
      </trkpt>
      <trkpt lat="44.01584" lon="3.46448">
        <ele>1131</ele>
        <time>2011-12-28T14:44:12Z</time>
      </trkpt>
      <trkpt lat="44.01584" lon="3.46434">
        <ele>1130</ele>
        <time>2011-12-28T14:44:19Z</time>
      </trkpt>
      <trkpt lat="44.01581" lon="3.4642">
        <ele>1127</ele>
        <time>2011-12-28T14:44:27Z</time>
      </trkpt>
      <trkpt lat="44.01572" lon="3.46413">
        <ele>1125</ele>
        <time>2011-12-28T14:44:34Z</time>
      </trkpt>
      <trkpt lat="44.0156" lon="3.46412">
        <ele>1125</ele>
        <time>2011-12-28T14:44:41Z</time>
      </trkpt>
      <trkpt lat="44.01551" lon="3.46415">
        <ele>1123</ele>
        <time>2011-12-28T14:44:46Z</time>
      </trkpt>
      <trkpt lat="44.01536" lon="3.46422">
        <ele>1122</ele>
        <time>2011-12-28T14:44:56Z</time>
      </trkpt>
      <trkpt lat="44.01528" lon="3.46426">
        <ele>1121</ele>
        <time>2011-12-28T14:45:03Z</time>
      </trkpt>
      <trkpt lat="44.01521" lon="3.46429">
        <ele>1119</ele>
        <time>2011-12-28T14:45:08Z</time>
      </trkpt>
      <trkpt lat="44.01516" lon="3.46432">
        <ele>1119</ele>
        <time>2011-12-28T14:45:12Z</time>
      </trkpt>
      <trkpt lat="44.01502" lon="3.4644">
        <ele>1119</ele>
        <time>2011-12-28T14:45:23Z</time>
      </trkpt>
      <trkpt lat="44.01499" lon="3.46443">
        <ele>1117</ele>
        <time>2011-12-28T14:45:26Z</time>
      </trkpt>
      <trkpt lat="44.01493" lon="3.46447">
        <ele>1114</ele>
        <time>2011-12-28T14:45:31Z</time>
      </trkpt>
      <trkpt lat="44.01491" lon="3.46447">
        <ele>1114</ele>
        <time>2011-12-28T14:45:32Z</time>
      </trkpt>
      <trkpt lat="44.01475" lon="3.46453">
        <ele>1111</ele>
        <time>2011-12-28T14:45:45Z</time>
      </trkpt>
      <trkpt lat="44.01474" lon="3.46453">
        <ele>1111</ele>
        <time>2011-12-28T14:45:46Z</time>
      </trkpt>
      <trkpt lat="44.01467" lon="3.46455">
        <ele>1110</ele>
        <time>2011-12-28T14:45:51Z</time>
      </trkpt>
      <trkpt lat="44.01451" lon="3.46457">
        <ele>1111</ele>
        <time>2011-12-28T14:46:03Z</time>
      </trkpt>
      <trkpt lat="44.0144" lon="3.46459">
        <ele>1110</ele>
        <time>2011-12-28T14:46:12Z</time>
      </trkpt>
      <trkpt lat="44.0143" lon="3.46461">
        <ele>1108</ele>
        <time>2011-12-28T14:46:20Z</time>
      </trkpt>
      <trkpt lat="44.01419" lon="3.46463">
        <ele>1107</ele>
        <time>2011-12-28T14:46:29Z</time>
      </trkpt>
      <trkpt lat="44.01406" lon="3.46464">
        <ele>1106</ele>
        <time>2011-12-28T14:46:39Z</time>
      </trkpt>
      <trkpt lat="44.0139" lon="3.46461">
        <ele>1102</ele>
        <time>2011-12-28T14:46:52Z</time>
      </trkpt>
      <trkpt lat="44.01378" lon="3.46459">
        <ele>1101</ele>
        <time>2011-12-28T14:47:02Z</time>
      </trkpt>
      <trkpt lat="44.01365" lon="3.46453">
        <ele>1100</ele>
        <time>2011-12-28T14:47:13Z</time>
      </trkpt>
      <trkpt lat="44.01354" lon="3.46443">
        <ele>1097</ele>
        <time>2011-12-28T14:47:24Z</time>
      </trkpt>
      <trkpt lat="44.01346" lon="3.46429">
        <ele>1098</ele>
        <time>2011-12-28T14:47:35Z</time>
      </trkpt>
      <trkpt lat="44.01343" lon="3.46425">
        <ele>1097</ele>
        <time>2011-12-28T14:47:38Z</time>
      </trkpt>
      <trkpt lat="44.01335" lon="3.46409">
        <ele>1095</ele>
        <time>2011-12-28T14:47:49Z</time>
      </trkpt>
      <trkpt lat="44.0133" lon="3.46395">
        <ele>1094</ele>
        <time>2011-12-28T14:47:58Z</time>
      </trkpt>
      <trkpt lat="44.01327" lon="3.46382">
        <ele>1092</ele>
        <time>2011-12-28T14:48:08Z</time>
      </trkpt>
      <trkpt lat="44.01325" lon="3.46366">
        <ele>1091</ele>
        <time>2011-12-28T14:48:19Z</time>
      </trkpt>
      <trkpt lat="44.01325" lon="3.46365">
        <ele>1090</ele>
        <time>2011-12-28T14:48:20Z</time>
      </trkpt>
      <trkpt lat="44.01326" lon="3.46353">
        <ele>1090</ele>
        <time>2011-12-28T14:48:28Z</time>
      </trkpt>
      <trkpt lat="44.01331" lon="3.46337">
        <ele>1088</ele>
        <time>2011-12-28T14:48:39Z</time>
      </trkpt>
      <trkpt lat="44.01337" lon="3.46325">
        <ele>1085</ele>
        <time>2011-12-28T14:48:48Z</time>
      </trkpt>
      <trkpt lat="44.01343" lon="3.46312">
        <ele>1085</ele>
        <time>2011-12-28T14:48:57Z</time>
      </trkpt>
      <trkpt lat="44.01347" lon="3.463">
        <ele>1085</ele>
        <time>2011-12-28T14:49:06Z</time>
      </trkpt>
      <trkpt lat="44.01351" lon="3.4629">
        <ele>1083</ele>
        <time>2011-12-28T14:49:12Z</time>
      </trkpt>
      <trkpt lat="44.01354" lon="3.46282">
        <ele>1081</ele>
        <time>2011-12-28T14:49:20Z</time>
      </trkpt>
      <trkpt lat="44.01357" lon="3.46265">
        <ele>1081</ele>
        <time>2011-12-28T14:49:30Z</time>
      </trkpt>
      <trkpt lat="44.01357" lon="3.46261">
        <ele>1082</ele>
        <time>2011-12-28T14:49:33Z</time>
      </trkpt>
      <trkpt lat="44.01355" lon="3.46253">
        <ele>1080</ele>
        <time>2011-12-28T14:49:40Z</time>
      </trkpt>
      <trkpt lat="44.01353" lon="3.46246">
        <ele>1080</ele>
        <time>2011-12-28T14:49:46Z</time>
      </trkpt>
      <trkpt lat="44.01349" lon="3.46244">
        <ele>1080</ele>
        <time>2011-12-28T14:49:51Z</time>
      </trkpt>
      <trkpt lat="44.01346" lon="3.46237">
        <ele>1081</ele>
        <time>2011-12-28T14:49:56Z</time>
      </trkpt>
      <trkpt lat="44.0134" lon="3.46225">
        <ele>1079</ele>
        <time>2011-12-28T14:50:05Z</time>
      </trkpt>
      <trkpt lat="44.01336" lon="3.46207">
        <ele>1078</ele>
        <time>2011-12-28T14:50:15Z</time>
      </trkpt>
      <trkpt lat="44.01334" lon="3.46199">
        <ele>1078</ele>
        <time>2011-12-28T14:50:19Z</time>
      </trkpt>
      <trkpt lat="44.01331" lon="3.46181">
        <ele>1076</ele>
        <time>2011-12-28T14:50:29Z</time>
      </trkpt>
      <trkpt lat="44.0133" lon="3.46161">
        <ele>1075</ele>
        <time>2011-12-28T14:50:39Z</time>
      </trkpt>
      <trkpt lat="44.0133" lon="3.4616">
        <ele>1075</ele>
        <time>2011-12-28T14:50:40Z</time>
      </trkpt>
      <trkpt lat="44.01333" lon="3.46146">
        <ele>1075</ele>
        <time>2011-12-28T14:50:48Z</time>
      </trkpt>
      <trkpt lat="44.01338" lon="3.46134">
        <ele>1072</ele>
        <time>2011-12-28T14:50:57Z</time>
      </trkpt>
      <trkpt lat="44.01346" lon="3.46121">
        <ele>1072</ele>
        <time>2011-12-28T14:51:07Z</time>
      </trkpt>
      <trkpt lat="44.01354" lon="3.46104">
        <ele>1072</ele>
        <time>2011-12-28T14:51:18Z</time>
      </trkpt>
      <trkpt lat="44.01362" lon="3.46087">
        <ele>1072</ele>
        <time>2011-12-28T14:51:29Z</time>
      </trkpt>
      <trkpt lat="44.0137" lon="3.46068">
        <ele>1071</ele>
        <time>2011-12-28T14:51:41Z</time>
      </trkpt>
      <trkpt lat="44.01375" lon="3.4605">
        <ele>1071</ele>
        <time>2011-12-28T14:51:53Z</time>
      </trkpt>
      <trkpt lat="44.01375" lon="3.46043">
        <ele>1070</ele>
        <time>2011-12-28T14:51:57Z</time>
      </trkpt>
      <trkpt lat="44.01372" lon="3.46031">
        <ele>1070</ele>
        <time>2011-12-28T14:52:03Z</time>
      </trkpt>
      <trkpt lat="44.0137" lon="3.46019">
        <ele>1069</ele>
        <time>2011-12-28T14:52:11Z</time>
      </trkpt>
      <trkpt lat="44.01367" lon="3.46004">
        <ele>1068</ele>
        <time>2011-12-28T14:52:20Z</time>
      </trkpt>
      <trkpt lat="44.01365" lon="3.45996">
        <ele>1068</ele>
        <time>2011-12-28T14:52:25Z</time>
      </trkpt>
      <trkpt lat="44.01365" lon="3.45992">
        <ele>1066</ele>
        <time>2011-12-28T14:52:28Z</time>
      </trkpt>
      <trkpt lat="44.01366" lon="3.45984">
        <ele>1066</ele>
        <time>2011-12-28T14:52:33Z</time>
      </trkpt>
      <trkpt lat="44.01367" lon="3.45972">
        <ele>1065</ele>
        <time>2011-12-28T14:52:40Z</time>
      </trkpt>
      <trkpt lat="44.01374" lon="3.45952">
        <ele>1064</ele>
        <time>2011-12-28T14:52:53Z</time>
      </trkpt>
      <trkpt lat="44.01384" lon="3.45936">
        <ele>1064</ele>
        <time>2011-12-28T14:53:05Z</time>
      </trkpt>
      <trkpt lat="44.01392" lon="3.45924">
        <ele>1063</ele>
        <time>2011-12-28T14:53:15Z</time>
      </trkpt>
      <trkpt lat="44.01395" lon="3.45919">
        <ele>1063</ele>
        <time>2011-12-28T14:53:19Z</time>
      </trkpt>
      <trkpt lat="44.01392" lon="3.45913">
        <ele>1062</ele>
        <time>2011-12-28T14:53:24Z</time>
      </trkpt>
      <trkpt lat="44.01389" lon="3.45912">
        <ele>1061</ele>
        <time>2011-12-28T14:53:27Z</time>
      </trkpt>
      <trkpt lat="44.01384" lon="3.45916">
        <ele>1060</ele>
        <time>2011-12-28T14:53:34Z</time>
      </trkpt>
      <trkpt lat="44.01382" lon="3.45917">
        <ele>1059</ele>
        <time>2011-12-28T14:53:36Z</time>
      </trkpt>
      <trkpt lat="44.01381" lon="3.45919">
        <ele>1059</ele>
        <time>2011-12-28T14:53:38Z</time>
      </trkpt>
      <trkpt lat="44.01374" lon="3.45929">
        <ele>1057</ele>
        <time>2011-12-28T14:53:46Z</time>
      </trkpt>
      <trkpt lat="44.01367" lon="3.45942">
        <ele>1056</ele>
        <time>2011-12-28T14:53:57Z</time>
      </trkpt>
      <trkpt lat="44.01362" lon="3.45954">
        <ele>1054</ele>
        <time>2011-12-28T14:54:05Z</time>
      </trkpt>
      <trkpt lat="44.01356" lon="3.45968">
        <ele>1055</ele>
        <time>2011-12-28T14:54:15Z</time>
      </trkpt>
      <trkpt lat="44.01356" lon="3.45969">
        <ele>1054</ele>
        <time>2011-12-28T14:54:16Z</time>
      </trkpt>
      <trkpt lat="44.01353" lon="3.45975">
        <ele>1054</ele>
        <time>2011-12-28T14:54:21Z</time>
      </trkpt>
      <trkpt lat="44.01349" lon="3.45989">
        <ele>1053</ele>
        <time>2011-12-28T14:54:31Z</time>
      </trkpt>
      <trkpt lat="44.0135" lon="3.46002">
        <ele>1052</ele>
        <time>2011-12-28T14:54:40Z</time>
      </trkpt>
      <trkpt lat="44.01352" lon="3.46017">
        <ele>1052</ele>
        <time>2011-12-28T14:54:48Z</time>
      </trkpt>
      <trkpt lat="44.01352" lon="3.46032">
        <ele>1053</ele>
        <time>2011-12-28T14:54:56Z</time>
      </trkpt>
      <trkpt lat="44.01345" lon="3.46049">
        <ele>1052</ele>
        <time>2011-12-28T14:55:06Z</time>
      </trkpt>
      <trkpt lat="44.01338" lon="3.46063">
        <ele>1052</ele>
        <time>2011-12-28T14:55:17Z</time>
      </trkpt>
      <trkpt lat="44.0133" lon="3.4607">
        <ele>1051</ele>
        <time>2011-12-28T14:55:25Z</time>
      </trkpt>
      <trkpt lat="44.01321" lon="3.46075">
        <ele>1049</ele>
        <time>2011-12-28T14:55:33Z</time>
      </trkpt>
      <trkpt lat="44.01315" lon="3.46079">
        <ele>1049</ele>
        <time>2011-12-28T14:55:39Z</time>
      </trkpt>
      <trkpt lat="44.01313" lon="3.4608">
        <ele>1049</ele>
        <time>2011-12-28T14:55:40Z</time>
      </trkpt>
      <trkpt lat="44.01304" lon="3.4608">
        <ele>1049</ele>
        <time>2011-12-28T14:55:48Z</time>
      </trkpt>
      <trkpt lat="44.01298" lon="3.46084">
        <ele>1045</ele>
        <time>2011-12-28T14:55:54Z</time>
      </trkpt>
      <trkpt lat="44.01291" lon="3.46094">
        <ele>1045</ele>
        <time>2011-12-28T14:56:02Z</time>
      </trkpt>
      <trkpt lat="44.01283" lon="3.46106">
        <ele>1047</ele>
        <time>2011-12-28T14:56:12Z</time>
      </trkpt>
      <trkpt lat="44.01277" lon="3.46114">
        <ele>1045</ele>
        <time>2011-12-28T14:56:19Z</time>
      </trkpt>
      <trkpt lat="44.01275" lon="3.46119">
        <ele>1045</ele>
        <time>2011-12-28T14:56:22Z</time>
      </trkpt>
      <trkpt lat="44.01271" lon="3.46132">
        <ele>1045</ele>
        <time>2011-12-28T14:56:31Z</time>
      </trkpt>
      <trkpt lat="44.01264" lon="3.46146">
        <ele>1045</ele>
        <time>2011-12-28T14:56:41Z</time>
      </trkpt>
      <trkpt lat="44.01258" lon="3.46156">
        <ele>1045</ele>
        <time>2011-12-28T14:56:49Z</time>
      </trkpt>
      <trkpt lat="44.01257" lon="3.46166">
        <ele>1043</ele>
        <time>2011-12-28T14:56:56Z</time>
      </trkpt>
      <trkpt lat="44.01261" lon="3.46179">
        <ele>1042</ele>
        <time>2011-12-28T14:57:06Z</time>
      </trkpt>
      <trkpt lat="44.01267" lon="3.46197">
        <ele>1041</ele>
        <time>2011-12-28T14:57:16Z</time>
      </trkpt>
      <trkpt lat="44.0127" lon="3.46217">
        <ele>1041</ele>
        <time>2011-12-28T14:57:27Z</time>
      </trkpt>
      <trkpt lat="44.01268" lon="3.46235">
        <ele>1040</ele>
        <time>2011-12-28T14:57:36Z</time>
      </trkpt>
      <trkpt lat="44.01262" lon="3.46245">
        <ele>1040</ele>
        <time>2011-12-28T14:57:44Z</time>
      </trkpt>
      <trkpt lat="44.01252" lon="3.46255">
        <ele>1040</ele>
        <time>2011-12-28T14:57:53Z</time>
      </trkpt>
      <trkpt lat="44.01242" lon="3.46256">
        <ele>1038</ele>
        <time>2011-12-28T14:58:00Z</time>
      </trkpt>
      <trkpt lat="44.01232" lon="3.46263">
        <ele>1038</ele>
        <time>2011-12-28T14:58:11Z</time>
      </trkpt>
      <trkpt lat="44.0122" lon="3.46267">
        <ele>1037</ele>
        <time>2011-12-28T14:58:21Z</time>
      </trkpt>
      <trkpt lat="44.01216" lon="3.4627">
        <ele>1037</ele>
        <time>2011-12-28T14:58:26Z</time>
      </trkpt>
      <trkpt lat="44.01208" lon="3.46275">
        <ele>1036</ele>
        <time>2011-12-28T14:58:33Z</time>
      </trkpt>
      <trkpt lat="44.012" lon="3.4628">
        <ele>1035</ele>
        <time>2011-12-28T14:58:41Z</time>
      </trkpt>
      <trkpt lat="44.01192" lon="3.46286">
        <ele>1034</ele>
        <time>2011-12-28T14:58:48Z</time>
      </trkpt>
      <trkpt lat="44.0118" lon="3.46291">
        <ele>1033</ele>
        <time>2011-12-28T14:58:57Z</time>
      </trkpt>
      <trkpt lat="44.01168" lon="3.46297">
        <ele>1032</ele>
        <time>2011-12-28T14:59:06Z</time>
      </trkpt>
      <trkpt lat="44.01165" lon="3.46298">
        <ele>1032</ele>
        <time>2011-12-28T14:59:08Z</time>
      </trkpt>
      <trkpt lat="44.01152" lon="3.46302">
        <ele>1031</ele>
        <time>2011-12-28T14:59:18Z</time>
      </trkpt>
      <trkpt lat="44.01138" lon="3.46304">
        <ele>1030</ele>
        <time>2011-12-28T14:59:27Z</time>
      </trkpt>
      <trkpt lat="44.01129" lon="3.46302">
        <ele>1029</ele>
        <time>2011-12-28T14:59:34Z</time>
      </trkpt>
      <trkpt lat="44.01119" lon="3.46302">
        <ele>1026</ele>
        <time>2011-12-28T14:59:43Z</time>
      </trkpt>
      <trkpt lat="44.01107" lon="3.46303">
        <ele>1027</ele>
        <time>2011-12-28T14:59:52Z</time>
      </trkpt>
      <trkpt lat="44.01095" lon="3.46309">
        <ele>1027</ele>
        <time>2011-12-28T15:00:02Z</time>
      </trkpt>
      <trkpt lat="44.0109" lon="3.46312">
        <ele>1025</ele>
        <time>2011-12-28T15:00:07Z</time>
      </trkpt>
      <trkpt lat="44.01078" lon="3.46321">
        <ele>1024</ele>
        <time>2011-12-28T15:00:17Z</time>
      </trkpt>
      <trkpt lat="44.01068" lon="3.46325">
        <ele>1024</ele>
        <time>2011-12-28T15:00:27Z</time>
      </trkpt>
      <trkpt lat="44.01055" lon="3.46329">
        <ele>1023</ele>
        <time>2011-12-28T15:00:36Z</time>
      </trkpt>
      <trkpt lat="44.01038" lon="3.46333">
        <ele>1022</ele>
        <time>2011-12-28T15:00:48Z</time>
      </trkpt>
      <trkpt lat="44.01032" lon="3.46334">
        <ele>1021</ele>
        <time>2011-12-28T15:00:53Z</time>
      </trkpt>
      <trkpt lat="44.01019" lon="3.46337">
        <ele>1019</ele>
        <time>2011-12-28T15:01:03Z</time>
      </trkpt>
      <trkpt lat="44.0101" lon="3.46342">
        <ele>1018</ele>
        <time>2011-12-28T15:01:12Z</time>
      </trkpt>
      <trkpt lat="44.01001" lon="3.46347">
        <ele>1019</ele>
        <time>2011-12-28T15:01:20Z</time>
      </trkpt>
      <trkpt lat="44.00989" lon="3.46353">
        <ele>1019</ele>
        <time>2011-12-28T15:01:30Z</time>
      </trkpt>
      <trkpt lat="44.00979" lon="3.46357">
        <ele>1018</ele>
        <time>2011-12-28T15:01:38Z</time>
      </trkpt>
      <trkpt lat="44.00967" lon="3.46363">
        <ele>1017</ele>
        <time>2011-12-28T15:01:47Z</time>
      </trkpt>
      <trkpt lat="44.00952" lon="3.46367">
        <ele>1015</ele>
        <time>2011-12-28T15:01:58Z</time>
      </trkpt>
      <trkpt lat="44.0094" lon="3.46368">
        <ele>1013</ele>
        <time>2011-12-28T15:02:08Z</time>
      </trkpt>
      <trkpt lat="44.00938" lon="3.46368">
        <ele>1011</ele>
        <time>2011-12-28T15:02:10Z</time>
      </trkpt>
      <trkpt lat="44.00925" lon="3.46369">
        <ele>1011</ele>
        <time>2011-12-28T15:02:20Z</time>
      </trkpt>
      <trkpt lat="44.00919" lon="3.46366">
        <ele>1011</ele>
        <time>2011-12-28T15:02:26Z</time>
      </trkpt>
      <trkpt lat="44.00917" lon="3.46366">
        <ele>1011</ele>
        <time>2011-12-28T15:02:29Z</time>
      </trkpt>
      <trkpt lat="44.00915" lon="3.46366">
        <ele>1012</ele>
        <time>2011-12-28T15:02:31Z</time>
      </trkpt>
      <trkpt lat="44.00914" lon="3.46372">
        <ele>1012</ele>
        <time>2011-12-28T15:02:36Z</time>
      </trkpt>
      <trkpt lat="44.00916" lon="3.4639">
        <ele>1011</ele>
        <time>2011-12-28T15:02:47Z</time>
      </trkpt>
      <trkpt lat="44.00922" lon="3.46408">
        <ele>1012</ele>
        <time>2011-12-28T15:03:00Z</time>
      </trkpt>
      <trkpt lat="44.00926" lon="3.46424">
        <ele>1011</ele>
        <time>2011-12-28T15:03:11Z</time>
      </trkpt>
      <trkpt lat="44.00928" lon="3.46432">
        <ele>1013</ele>
        <time>2011-12-28T15:03:19Z</time>
      </trkpt>
      <trkpt lat="44.0093" lon="3.46438">
        <ele>1013</ele>
        <time>2011-12-28T15:03:25Z</time>
      </trkpt>
      <trkpt lat="44.0093" lon="3.46445">
        <ele>1013</ele>
        <time>2011-12-28T15:03:30Z</time>
      </trkpt>
      <trkpt lat="44.00933" lon="3.46455">
        <ele>1013</ele>
        <time>2011-12-28T15:03:37Z</time>
      </trkpt>
      <trkpt lat="44.00938" lon="3.4647">
        <ele>1013</ele>
        <time>2011-12-28T15:03:47Z</time>
      </trkpt>
      <trkpt lat="44.00938" lon="3.46472">
        <ele>1013</ele>
        <time>2011-12-28T15:03:56Z</time>
      </trkpt>
      <trkpt lat="44.00943" lon="3.46484">
        <ele>1012</ele>
        <time>2011-12-28T15:04:06Z</time>
      </trkpt>
      <trkpt lat="44.00952" lon="3.46497">
        <ele>1014</ele>
        <time>2011-12-28T15:05:09Z</time>
      </trkpt>
      <trkpt lat="44.00957" lon="3.4651">
        <ele>1013</ele>
        <time>2011-12-28T15:05:19Z</time>
      </trkpt>
      <trkpt lat="44.00961" lon="3.46516">
        <ele>1013</ele>
        <time>2011-12-28T15:05:24Z</time>
      </trkpt>
      <trkpt lat="44.00966" lon="3.4652">
        <ele>1015</ele>
        <time>2011-12-28T15:05:28Z</time>
      </trkpt>
      <trkpt lat="44.00969" lon="3.46522">
        <ele>1016</ele>
        <time>2011-12-28T15:05:31Z</time>
      </trkpt>
      <trkpt lat="44.00979" lon="3.46527">
        <ele>1015</ele>
        <time>2011-12-28T15:05:40Z</time>
      </trkpt>
      <trkpt lat="44.00988" lon="3.46532">
        <ele>1015</ele>
        <time>2011-12-28T15:05:48Z</time>
      </trkpt>
      <trkpt lat="44.01" lon="3.4654">
        <ele>1016</ele>
        <time>2011-12-28T15:05:59Z</time>
      </trkpt>
      <trkpt lat="44.01013" lon="3.46546">
        <ele>1016</ele>
        <time>2011-12-28T15:06:10Z</time>
      </trkpt>
      <trkpt lat="44.01023" lon="3.46551">
        <ele>1016</ele>
        <time>2011-12-28T15:06:19Z</time>
      </trkpt>
      <trkpt lat="44.01037" lon="3.46556">
        <ele>1016</ele>
        <time>2011-12-28T15:06:30Z</time>
      </trkpt>
      <trkpt lat="44.01051" lon="3.4656">
        <ele>1015</ele>
        <time>2011-12-28T15:06:42Z</time>
      </trkpt>
      <trkpt lat="44.01066" lon="3.46563">
        <ele>1016</ele>
        <time>2011-12-28T15:06:54Z</time>
      </trkpt>
      <trkpt lat="44.01079" lon="3.46558">
        <ele>1017</ele>
        <time>2011-12-28T15:07:04Z</time>
      </trkpt>
      <trkpt lat="44.01091" lon="3.4655">
        <ele>1015</ele>
        <time>2011-12-28T15:07:14Z</time>
      </trkpt>
      <trkpt lat="44.01098" lon="3.46548">
        <ele>1016</ele>
        <time>2011-12-28T15:07:19Z</time>
      </trkpt>
      <trkpt lat="44.01115" lon="3.46549">
        <ele>1015</ele>
        <time>2011-12-28T15:07:33Z</time>
      </trkpt>
      <trkpt lat="44.01129" lon="3.46552">
        <ele>1016</ele>
        <time>2011-12-28T15:07:44Z</time>
      </trkpt>
      <trkpt lat="44.01142" lon="3.46558">
        <ele>1016</ele>
        <time>2011-12-28T15:07:55Z</time>
      </trkpt>
      <trkpt lat="44.01149" lon="3.46561">
        <ele>1020</ele>
        <time>2011-12-28T15:08:01Z</time>
      </trkpt>
      <trkpt lat="44.01153" lon="3.46562">
        <ele>1017</ele>
        <time>2011-12-28T15:08:05Z</time>
      </trkpt>
      <trkpt lat="44.01161" lon="3.46561">
        <ele>1017</ele>
        <time>2011-12-28T15:08:12Z</time>
      </trkpt>
      <trkpt lat="44.01175" lon="3.46558">
        <ele>1019</ele>
        <time>2011-12-28T15:08:23Z</time>
      </trkpt>
      <trkpt lat="44.0119" lon="3.46553">
        <ele>1016</ele>
        <time>2011-12-28T15:08:35Z</time>
      </trkpt>
      <trkpt lat="44.01203" lon="3.46555">
        <ele>1017</ele>
        <time>2011-12-28T15:08:46Z</time>
      </trkpt>
      <trkpt lat="44.01215" lon="3.46562">
        <ele>1017</ele>
        <time>2011-12-28T15:08:57Z</time>
      </trkpt>
      <trkpt lat="44.01223" lon="3.46568">
        <ele>1020</ele>
        <time>2011-12-28T15:09:04Z</time>
      </trkpt>
      <trkpt lat="44.01231" lon="3.46571">
        <ele>1020</ele>
        <time>2011-12-28T15:09:11Z</time>
      </trkpt>
      <trkpt lat="44.01245" lon="3.46574">
        <ele>1019</ele>
        <time>2011-12-28T15:09:23Z</time>
      </trkpt>
      <trkpt lat="44.01246" lon="3.46575">
        <ele>1019</ele>
        <time>2011-12-28T15:09:30Z</time>
      </trkpt>
      <trkpt lat="44.01247" lon="3.46576">
        <ele>1019</ele>
        <time>2011-12-28T15:09:37Z</time>
      </trkpt>
      <trkpt lat="44.01247" lon="3.46576">
        <ele>1018</ele>
        <time>2011-12-28T15:09:48Z</time>
      </trkpt>
      <trkpt lat="44.01247" lon="3.46576">
        <ele>1018</ele>
        <time>2011-12-28T15:10:16Z</time>
      </trkpt>
      <trkpt lat="44.01247" lon="3.46576">
        <ele>1019</ele>
        <time>2011-12-28T15:10:25Z</time>
      </trkpt>
      <trkpt lat="44.01246" lon="3.46575">
        <ele>1019</ele>
        <time>2011-12-28T15:10:35Z</time>
      </trkpt>
      <trkpt lat="44.01246" lon="3.46576">
        <ele>1019</ele>
        <time>2011-12-28T15:10:44Z</time>
      </trkpt>
      <trkpt lat="44.01248" lon="3.46578">
        <ele>1019</ele>
        <time>2011-12-28T15:10:52Z</time>
      </trkpt>
      <trkpt lat="44.01249" lon="3.46578">
        <ele>1019</ele>
        <time>2011-12-28T15:11:01Z</time>
      </trkpt>
      <trkpt lat="44.0125" lon="3.46579">
        <ele>1018</ele>
        <time>2011-12-28T15:11:10Z</time>
      </trkpt>
      <trkpt lat="44.0125" lon="3.4658">
        <ele>1017</ele>
        <time>2011-12-28T15:11:39Z</time>
      </trkpt>
      <trkpt lat="44.0125" lon="3.46583">
        <ele>1017</ele>
        <time>2011-12-28T15:11:47Z</time>
      </trkpt>
      <trkpt lat="44.0125" lon="3.46583">
        <ele>1017</ele>
        <time>2011-12-28T15:12:03Z</time>
      </trkpt>
      <trkpt lat="44.01251" lon="3.46583">
        <ele>1017</ele>
        <time>2011-12-28T15:12:11Z</time>
      </trkpt>
      <trkpt lat="44.01251" lon="3.46584">
        <ele>1016</ele>
        <time>2011-12-28T15:12:22Z</time>
      </trkpt>
      <trkpt lat="44.01252" lon="3.46586">
        <ele>1016</ele>
        <time>2011-12-28T15:12:31Z</time>
      </trkpt>
      <trkpt lat="44.01253" lon="3.46591">
        <ele>1015</ele>
        <time>2011-12-28T15:12:36Z</time>
      </trkpt>
      <trkpt lat="44.01258" lon="3.46603">
        <ele>1014</ele>
        <time>2011-12-28T15:12:46Z</time>
      </trkpt>
      <trkpt lat="44.01267" lon="3.46615">
        <ele>1014</ele>
        <time>2011-12-28T15:12:59Z</time>
      </trkpt>
      <trkpt lat="44.01269" lon="3.46616">
        <ele>1013</ele>
        <time>2011-12-28T15:13:01Z</time>
      </trkpt>
      <trkpt lat="44.01278" lon="3.46621">
        <ele>1012</ele>
        <time>2011-12-28T15:13:12Z</time>
      </trkpt>
      <trkpt lat="44.01286" lon="3.46623">
        <ele>1012</ele>
        <time>2011-12-28T15:13:22Z</time>
      </trkpt>
      <trkpt lat="44.01291" lon="3.46625">
        <ele>1011</ele>
        <time>2011-12-28T15:13:31Z</time>
      </trkpt>
      <trkpt lat="44.01301" lon="3.4663">
        <ele>1010</ele>
        <time>2011-12-28T15:13:41Z</time>
      </trkpt>
      <trkpt lat="44.01305" lon="3.46637">
        <ele>1009</ele>
        <time>2011-12-28T15:13:50Z</time>
      </trkpt>
      <trkpt lat="44.01305" lon="3.46641">
        <ele>1009</ele>
        <time>2011-12-28T15:13:57Z</time>
      </trkpt>
      <trkpt lat="44.01307" lon="3.4664">
        <ele>1009</ele>
        <time>2011-12-28T15:14:04Z</time>
      </trkpt>
      <trkpt lat="44.01308" lon="3.46639">
        <ele>1009</ele>
        <time>2011-12-28T15:14:09Z</time>
      </trkpt>
      <trkpt lat="44.01309" lon="3.46643">
        <ele>1008</ele>
        <time>2011-12-28T15:14:15Z</time>
      </trkpt>
      <trkpt lat="44.0131" lon="3.46645">
        <ele>1010</ele>
        <time>2011-12-28T15:14:19Z</time>
      </trkpt>
      <trkpt lat="44.0131" lon="3.46649">
        <ele>1011</ele>
        <time>2011-12-28T15:14:23Z</time>
      </trkpt>
      <trkpt lat="44.01312" lon="3.46649">
        <ele>1011</ele>
        <time>2011-12-28T15:14:35Z</time>
      </trkpt>
      <trkpt lat="44.01311" lon="3.46651">
        <ele>1010</ele>
        <time>2011-12-28T15:14:42Z</time>
      </trkpt>
      <trkpt lat="44.01311" lon="3.46654">
        <ele>1010</ele>
        <time>2011-12-28T15:14:49Z</time>
      </trkpt>
      <trkpt lat="44.01311" lon="3.46656">
        <ele>1011</ele>
        <time>2011-12-28T15:14:56Z</time>
      </trkpt>
      <trkpt lat="44.01308" lon="3.46656">
        <ele>1010</ele>
        <time>2011-12-28T15:15:01Z</time>
      </trkpt>
      <trkpt lat="44.01306" lon="3.46659">
        <ele>1009</ele>
        <time>2011-12-28T15:15:04Z</time>
      </trkpt>
      <trkpt lat="44.01299" lon="3.4666">
        <ele>1007</ele>
        <time>2011-12-28T15:15:08Z</time>
      </trkpt>
      <trkpt lat="44.01299" lon="3.46665">
        <ele>1007</ele>
        <time>2011-12-28T15:15:11Z</time>
      </trkpt>
      <trkpt lat="44.01299" lon="3.46667">
        <ele>1007</ele>
        <time>2011-12-28T15:15:12Z</time>
      </trkpt>
      <trkpt lat="44.01286" lon="3.4668">
        <ele>1008</ele>
        <time>2011-12-28T15:15:21Z</time>
      </trkpt>
      <trkpt lat="44.01282" lon="3.46684">
        <ele>1008</ele>
        <time>2011-12-28T15:15:25Z</time>
      </trkpt>
      <trkpt lat="44.01275" lon="3.46692">
        <ele>1005</ele>
        <time>2011-12-28T15:15:34Z</time>
      </trkpt>
      <trkpt lat="44.0127" lon="3.467">
        <ele>1004</ele>
        <time>2011-12-28T15:15:41Z</time>
      </trkpt>
      <trkpt lat="44.01265" lon="3.46709">
        <ele>1004</ele>
        <time>2011-12-28T15:15:48Z</time>
      </trkpt>
      <trkpt lat="44.01262" lon="3.46714">
        <ele>1003</ele>
        <time>2011-12-28T15:15:52Z</time>
      </trkpt>
      <trkpt lat="44.01252" lon="3.46725">
        <ele>1002</ele>
        <time>2011-12-28T15:16:01Z</time>
      </trkpt>
      <trkpt lat="44.01248" lon="3.46732">
        <ele>1002</ele>
        <time>2011-12-28T15:16:07Z</time>
      </trkpt>
      <trkpt lat="44.01246" lon="3.46734">
        <ele>1001</ele>
        <time>2011-12-28T15:16:09Z</time>
      </trkpt>
      <trkpt lat="44.01241" lon="3.46744">
        <ele>1000</ele>
        <time>2011-12-28T15:16:17Z</time>
      </trkpt>
      <trkpt lat="44.01235" lon="3.4676">
        <ele>999</ele>
        <time>2011-12-28T15:16:27Z</time>
      </trkpt>
      <trkpt lat="44.01234" lon="3.46762">
        <ele>999</ele>
        <time>2011-12-28T15:16:29Z</time>
      </trkpt>
      <trkpt lat="44.01228" lon="3.4677">
        <ele>998</ele>
        <time>2011-12-28T15:16:35Z</time>
      </trkpt>
      <trkpt lat="44.01224" lon="3.46775">
        <ele>998</ele>
        <time>2011-12-28T15:16:40Z</time>
      </trkpt>
      <trkpt lat="44.01214" lon="3.46784">
        <ele>996</ele>
        <time>2011-12-28T15:16:49Z</time>
      </trkpt>
      <trkpt lat="44.01203" lon="3.46796">
        <ele>995</ele>
        <time>2011-12-28T15:16:59Z</time>
      </trkpt>
      <trkpt lat="44.01194" lon="3.46806">
        <ele>993</ele>
        <time>2011-12-28T15:17:09Z</time>
      </trkpt>
      <trkpt lat="44.01187" lon="3.46816">
        <ele>991</ele>
        <time>2011-12-28T15:17:17Z</time>
      </trkpt>
      <trkpt lat="44.01185" lon="3.46819">
        <ele>990</ele>
        <time>2011-12-28T15:17:20Z</time>
      </trkpt>
      <trkpt lat="44.01183" lon="3.46825">
        <ele>989</ele>
        <time>2011-12-28T15:17:25Z</time>
      </trkpt>
      <trkpt lat="44.01176" lon="3.46839">
        <ele>989</ele>
        <time>2011-12-28T15:17:35Z</time>
      </trkpt>
      <trkpt lat="44.01168" lon="3.46849">
        <ele>988</ele>
        <time>2011-12-28T15:17:44Z</time>
      </trkpt>
      <trkpt lat="44.01161" lon="3.4686">
        <ele>986</ele>
        <time>2011-12-28T15:17:53Z</time>
      </trkpt>
      <trkpt lat="44.01156" lon="3.46876">
        <ele>986</ele>
        <time>2011-12-28T15:18:03Z</time>
      </trkpt>
      <trkpt lat="44.01152" lon="3.46887">
        <ele>985</ele>
        <time>2011-12-28T15:18:09Z</time>
      </trkpt>
      <trkpt lat="44.01151" lon="3.4689">
        <ele>985</ele>
        <time>2011-12-28T15:18:11Z</time>
      </trkpt>
      <trkpt lat="44.01146" lon="3.46898">
        <ele>985</ele>
        <time>2011-12-28T15:18:17Z</time>
      </trkpt>
      <trkpt lat="44.01144" lon="3.46901">
        <ele>985</ele>
        <time>2011-12-28T15:18:19Z</time>
      </trkpt>
      <trkpt lat="44.01135" lon="3.46926">
        <ele>983</ele>
        <time>2011-12-28T15:18:35Z</time>
      </trkpt>
      <trkpt lat="44.01127" lon="3.46942">
        <ele>982</ele>
        <time>2011-12-28T15:18:47Z</time>
      </trkpt>
      <trkpt lat="44.01123" lon="3.46953">
        <ele>981</ele>
        <time>2011-12-28T15:18:56Z</time>
      </trkpt>
      <trkpt lat="44.01121" lon="3.46959">
        <ele>982</ele>
        <time>2011-12-28T15:19:01Z</time>
      </trkpt>
      <trkpt lat="44.01117" lon="3.46972">
        <ele>983</ele>
        <time>2011-12-28T15:19:10Z</time>
      </trkpt>
      <trkpt lat="44.01114" lon="3.46987">
        <ele>983</ele>
        <time>2011-12-28T15:19:19Z</time>
      </trkpt>
      <trkpt lat="44.0111" lon="3.46998">
        <ele>983</ele>
        <time>2011-12-28T15:19:26Z</time>
      </trkpt>
      <trkpt lat="44.01105" lon="3.47007">
        <ele>984</ele>
        <time>2011-12-28T15:19:33Z</time>
      </trkpt>
      <trkpt lat="44.011" lon="3.47021">
        <ele>984</ele>
        <time>2011-12-28T15:19:41Z</time>
      </trkpt>
      <trkpt lat="44.01095" lon="3.47029">
        <ele>984</ele>
        <time>2011-12-28T15:19:48Z</time>
      </trkpt>
      <trkpt lat="44.01088" lon="3.47037">
        <ele>983</ele>
        <time>2011-12-28T15:19:55Z</time>
      </trkpt>
      <trkpt lat="44.01084" lon="3.47043">
        <ele>983</ele>
        <time>2011-12-28T15:19:58Z</time>
      </trkpt>
      <trkpt lat="44.01081" lon="3.47056">
        <ele>983</ele>
        <time>2011-12-28T15:20:06Z</time>
      </trkpt>
      <trkpt lat="44.01078" lon="3.47065">
        <ele>982</ele>
        <time>2011-12-28T15:20:11Z</time>
      </trkpt>
      <trkpt lat="44.01077" lon="3.47073">
        <ele>982</ele>
        <time>2011-12-28T15:20:16Z</time>
      </trkpt>
      <trkpt lat="44.01076" lon="3.47077">
        <ele>982</ele>
        <time>2011-12-28T15:20:19Z</time>
      </trkpt>
      <trkpt lat="44.01073" lon="3.47081">
        <ele>982</ele>
        <time>2011-12-28T15:20:23Z</time>
      </trkpt>
      <trkpt lat="44.01065" lon="3.47092">
        <ele>981</ele>
        <time>2011-12-28T15:20:32Z</time>
      </trkpt>
      <trkpt lat="44.01057" lon="3.47104">
        <ele>981</ele>
        <time>2011-12-28T15:20:41Z</time>
      </trkpt>
      <trkpt lat="44.01055" lon="3.47109">
        <ele>982</ele>
        <time>2011-12-28T15:20:45Z</time>
      </trkpt>
      <trkpt lat="44.0105" lon="3.47114">
        <ele>981</ele>
        <time>2011-12-28T15:20:49Z</time>
      </trkpt>
      <trkpt lat="44.01046" lon="3.47121">
        <ele>981</ele>
        <time>2011-12-28T15:20:53Z</time>
      </trkpt>
      <trkpt lat="44.01041" lon="3.47135">
        <ele>980</ele>
        <time>2011-12-28T15:21:02Z</time>
      </trkpt>
      <trkpt lat="44.01039" lon="3.47141">
        <ele>981</ele>
        <time>2011-12-28T15:21:06Z</time>
      </trkpt>
      <trkpt lat="44.01034" lon="3.47154">
        <ele>980</ele>
        <time>2011-12-28T15:21:15Z</time>
      </trkpt>
      <trkpt lat="44.01031" lon="3.47169">
        <ele>979</ele>
        <time>2011-12-28T15:21:24Z</time>
      </trkpt>
      <trkpt lat="44.0103" lon="3.4717">
        <ele>979</ele>
        <time>2011-12-28T15:21:25Z</time>
      </trkpt>
      <trkpt lat="44.01025" lon="3.47178">
        <ele>978</ele>
        <time>2011-12-28T15:21:31Z</time>
      </trkpt>
      <trkpt lat="44.01017" lon="3.47194">
        <ele>977</ele>
        <time>2011-12-28T15:21:42Z</time>
      </trkpt>
      <trkpt lat="44.01008" lon="3.47209">
        <ele>975</ele>
        <time>2011-12-28T15:21:53Z</time>
      </trkpt>
      <trkpt lat="44.01001" lon="3.47221">
        <ele>975</ele>
        <time>2011-12-28T15:22:02Z</time>
      </trkpt>
      <trkpt lat="44.00994" lon="3.47227">
        <ele>973</ele>
        <time>2011-12-28T15:22:09Z</time>
      </trkpt>
      <trkpt lat="44.00989" lon="3.47227">
        <ele>972</ele>
        <time>2011-12-28T15:22:18Z</time>
      </trkpt>
      <trkpt lat="44.00984" lon="3.47223">
        <ele>970</ele>
        <time>2011-12-28T15:22:33Z</time>
      </trkpt>
      <trkpt lat="44.00983" lon="3.47222">
        <ele>971</ele>
        <time>2011-12-28T15:22:37Z</time>
      </trkpt>
      <trkpt lat="44.00983" lon="3.47221">
        <ele>970</ele>
        <time>2011-12-28T15:22:40Z</time>
      </trkpt>
      <trkpt lat="44.00979" lon="3.4722">
        <ele>973</ele>
        <time>2011-12-28T15:22:47Z</time>
      </trkpt>
      <trkpt lat="44.00975" lon="3.47222">
        <ele>973</ele>
        <time>2011-12-28T15:22:57Z</time>
      </trkpt>
      <trkpt lat="44.00975" lon="3.47222">
        <ele>973</ele>
        <time>2011-12-28T15:23:04Z</time>
      </trkpt>
      <trkpt lat="44.0098" lon="3.47218">
        <ele>973</ele>
        <time>2011-12-28T15:23:20Z</time>
      </trkpt>
      <trkpt lat="44.0098" lon="3.47216">
        <ele>973</ele>
        <time>2011-12-28T15:23:27Z</time>
      </trkpt>
      <trkpt lat="44.0098" lon="3.47218">
        <ele>973</ele>
        <time>2011-12-28T15:23:34Z</time>
      </trkpt>
      <trkpt lat="44.00978" lon="3.47218">
        <ele>972</ele>
        <time>2011-12-28T15:23:42Z</time>
      </trkpt>
      <trkpt lat="44.00988" lon="3.47219">
        <ele>971</ele>
        <time>2011-12-28T15:23:58Z</time>
      </trkpt>
      <trkpt lat="44.00983" lon="3.47215">
        <ele>971</ele>
        <time>2011-12-28T15:24:06Z</time>
      </trkpt>
      <trkpt lat="44.00978" lon="3.47215">
        <ele>971</ele>
        <time>2011-12-28T15:24:11Z</time>
      </trkpt>
      <trkpt lat="44.00967" lon="3.4721">
        <ele>972</ele>
        <time>2011-12-28T15:24:20Z</time>
      </trkpt>
      <trkpt lat="44.00966" lon="3.47209">
        <ele>972</ele>
        <time>2011-12-28T15:24:21Z</time>
      </trkpt>
      <trkpt lat="44.0096" lon="3.47205">
        <ele>971</ele>
        <time>2011-12-28T15:24:27Z</time>
      </trkpt>
      <trkpt lat="44.00957" lon="3.47204">
        <ele>972</ele>
        <time>2011-12-28T15:24:30Z</time>
      </trkpt>
      <trkpt lat="44.00951" lon="3.472">
        <ele>971</ele>
        <time>2011-12-28T15:24:36Z</time>
      </trkpt>
      <trkpt lat="44.00949" lon="3.472">
        <ele>971</ele>
        <time>2011-12-28T15:24:37Z</time>
      </trkpt>
      <trkpt lat="44.00942" lon="3.47196">
        <ele>970</ele>
        <time>2011-12-28T15:24:45Z</time>
      </trkpt>
      <trkpt lat="44.00938" lon="3.4719">
        <ele>970</ele>
        <time>2011-12-28T15:24:50Z</time>
      </trkpt>
      <trkpt lat="44.00933" lon="3.47188">
        <ele>970</ele>
        <time>2011-12-28T15:24:55Z</time>
      </trkpt>
      <trkpt lat="44.00925" lon="3.47183">
        <ele>970</ele>
        <time>2011-12-28T15:25:02Z</time>
      </trkpt>
      <trkpt lat="44.00914" lon="3.47176">
        <ele>971</ele>
        <time>2011-12-28T15:25:10Z</time>
      </trkpt>
      <trkpt lat="44.00907" lon="3.47172">
        <ele>969</ele>
        <time>2011-12-28T15:25:17Z</time>
      </trkpt>
      <trkpt lat="44.00906" lon="3.47171">
        <ele>969</ele>
        <time>2011-12-28T15:25:18Z</time>
      </trkpt>
      <trkpt lat="44.00901" lon="3.47172">
        <ele>970</ele>
        <time>2011-12-28T15:25:22Z</time>
      </trkpt>
      <trkpt lat="44.00897" lon="3.4717">
        <ele>972</ele>
        <time>2011-12-28T15:25:25Z</time>
      </trkpt>
      <trkpt lat="44.0089" lon="3.47166">
        <ele>972</ele>
        <time>2011-12-28T15:25:30Z</time>
      </trkpt>
      <trkpt lat="44.00881" lon="3.47163">
        <ele>972</ele>
        <time>2011-12-28T15:25:35Z</time>
      </trkpt>
      <trkpt lat="44.00877" lon="3.47162">
        <ele>972</ele>
        <time>2011-12-28T15:25:38Z</time>
      </trkpt>
      <trkpt lat="44.00871" lon="3.47161">
        <ele>972</ele>
        <time>2011-12-28T15:25:42Z</time>
      </trkpt>
      <trkpt lat="44.00864" lon="3.47158">
        <ele>972</ele>
        <time>2011-12-28T15:25:48Z</time>
      </trkpt>
      <trkpt lat="44.00852" lon="3.4716">
        <ele>973</ele>
        <time>2011-12-28T15:25:57Z</time>
      </trkpt>
      <trkpt lat="44.00851" lon="3.47159">
        <ele>973</ele>
        <time>2011-12-28T15:25:58Z</time>
      </trkpt>
      <trkpt lat="44.00847" lon="3.47159">
        <ele>974</ele>
        <time>2011-12-28T15:26:02Z</time>
      </trkpt>
      <trkpt lat="44.00839" lon="3.47164">
        <ele>975</ele>
        <time>2011-12-28T15:26:09Z</time>
      </trkpt>
      <trkpt lat="44.00828" lon="3.47175">
        <ele>974</ele>
        <time>2011-12-28T15:26:19Z</time>
      </trkpt>
      <trkpt lat="44.00818" lon="3.47186">
        <ele>973</ele>
        <time>2011-12-28T15:26:29Z</time>
      </trkpt>
      <trkpt lat="44.0081" lon="3.47193">
        <ele>973</ele>
        <time>2011-12-28T15:26:37Z</time>
      </trkpt>
      <trkpt lat="44.00804" lon="3.472">
        <ele>972</ele>
        <time>2011-12-28T15:26:44Z</time>
      </trkpt>
      <trkpt lat="44.00802" lon="3.47202">
        <ele>972</ele>
        <time>2011-12-28T15:26:46Z</time>
      </trkpt>
      <trkpt lat="44.00791" lon="3.4721">
        <ele>973</ele>
        <time>2011-12-28T15:26:56Z</time>
      </trkpt>
      <trkpt lat="44.00779" lon="3.47218">
        <ele>973</ele>
        <time>2011-12-28T15:27:07Z</time>
      </trkpt>
      <trkpt lat="44.00774" lon="3.47222">
        <ele>974</ele>
        <time>2011-12-28T15:27:13Z</time>
      </trkpt>
      <trkpt lat="44.00763" lon="3.47228">
        <ele>973</ele>
        <time>2011-12-28T15:27:22Z</time>
      </trkpt>
      <trkpt lat="44.00755" lon="3.47231">
        <ele>973</ele>
        <time>2011-12-28T15:27:28Z</time>
      </trkpt>
      <trkpt lat="44.00749" lon="3.47232">
        <ele>973</ele>
        <time>2011-12-28T15:27:33Z</time>
      </trkpt>
      <trkpt lat="44.00744" lon="3.47234">
        <ele>974</ele>
        <time>2011-12-28T15:27:36Z</time>
      </trkpt>
      <trkpt lat="44.00738" lon="3.47236">
        <ele>974</ele>
        <time>2011-12-28T15:27:41Z</time>
      </trkpt>
      <trkpt lat="44.00724" lon="3.47241">
        <ele>975</ele>
        <time>2011-12-28T15:27:52Z</time>
      </trkpt>
      <trkpt lat="44.00715" lon="3.47241">
        <ele>973</ele>
        <time>2011-12-28T15:28:00Z</time>
      </trkpt>
      <trkpt lat="44.00711" lon="3.47242">
        <ele>973</ele>
        <time>2011-12-28T15:28:03Z</time>
      </trkpt>
      <trkpt lat="44.00706" lon="3.47244">
        <ele>972</ele>
        <time>2011-12-28T15:28:08Z</time>
      </trkpt>
      <trkpt lat="44.00693" lon="3.4724">
        <ele>973</ele>
        <time>2011-12-28T15:28:19Z</time>
      </trkpt>
      <trkpt lat="44.00691" lon="3.4724">
        <ele>973</ele>
        <time>2011-12-28T15:28:21Z</time>
      </trkpt>
      <trkpt lat="44.00681" lon="3.47232">
        <ele>973</ele>
        <time>2011-12-28T15:28:30Z</time>
      </trkpt>
      <trkpt lat="44.00674" lon="3.47226">
        <ele>969</ele>
        <time>2011-12-28T15:28:37Z</time>
      </trkpt>
      <trkpt lat="44.00673" lon="3.47225">
        <ele>969</ele>
        <time>2011-12-28T15:28:38Z</time>
      </trkpt>
      <trkpt lat="44.00671" lon="3.47224">
        <ele>968</ele>
        <time>2011-12-28T15:28:40Z</time>
      </trkpt>
      <trkpt lat="44.00666" lon="3.47221">
        <ele>967</ele>
        <time>2011-12-28T15:28:44Z</time>
      </trkpt>
      <trkpt lat="44.00661" lon="3.47219">
        <ele>968</ele>
        <time>2011-12-28T15:28:49Z</time>
      </trkpt>
      <trkpt lat="44.00649" lon="3.47213">
        <ele>969</ele>
        <time>2011-12-28T15:28:59Z</time>
      </trkpt>
      <trkpt lat="44.00641" lon="3.47207">
        <ele>969</ele>
        <time>2011-12-28T15:29:06Z</time>
      </trkpt>
      <trkpt lat="44.0064" lon="3.47206">
        <ele>969</ele>
        <time>2011-12-28T15:29:07Z</time>
      </trkpt>
      <trkpt lat="44.00633" lon="3.47202">
        <ele>969</ele>
        <time>2011-12-28T15:29:13Z</time>
      </trkpt>
      <trkpt lat="44.00624" lon="3.47198">
        <ele>969</ele>
        <time>2011-12-28T15:29:20Z</time>
      </trkpt>
      <trkpt lat="44.00621" lon="3.47196">
        <ele>970</ele>
        <time>2011-12-28T15:29:23Z</time>
      </trkpt>
      <trkpt lat="44.00607" lon="3.47192">
        <ele>970</ele>
        <time>2011-12-28T15:29:34Z</time>
      </trkpt>
      <trkpt lat="44.00599" lon="3.47191">
        <ele>969</ele>
        <time>2011-12-28T15:29:40Z</time>
      </trkpt>
      <trkpt lat="44.00591" lon="3.47192">
        <ele>968</ele>
        <time>2011-12-28T15:29:47Z</time>
      </trkpt>
      <trkpt lat="44.0058" lon="3.47193">
        <ele>968</ele>
        <time>2011-12-28T15:29:56Z</time>
      </trkpt>
      <trkpt lat="44.00573" lon="3.47195">
        <ele>968</ele>
        <time>2011-12-28T15:30:02Z</time>
      </trkpt>
      <trkpt lat="44.00563" lon="3.472">
        <ele>967</ele>
        <time>2011-12-28T15:30:10Z</time>
      </trkpt>
      <trkpt lat="44.00554" lon="3.47204">
        <ele>967</ele>
        <time>2011-12-28T15:30:16Z</time>
      </trkpt>
      <trkpt lat="44.0055" lon="3.47208">
        <ele>968</ele>
        <time>2011-12-28T15:30:20Z</time>
      </trkpt>
      <trkpt lat="44.00545" lon="3.47215">
        <ele>966</ele>
        <time>2011-12-28T15:30:26Z</time>
      </trkpt>
      <trkpt lat="44.00538" lon="3.47221">
        <ele>967</ele>
        <time>2011-12-28T15:30:32Z</time>
      </trkpt>
      <trkpt lat="44.00532" lon="3.47228">
        <ele>964</ele>
        <time>2011-12-28T15:30:38Z</time>
      </trkpt>
      <trkpt lat="44.00527" lon="3.47235">
        <ele>966</ele>
        <time>2011-12-28T15:30:44Z</time>
      </trkpt>
      <trkpt lat="44.00526" lon="3.47238">
        <ele>964</ele>
        <time>2011-12-28T15:30:46Z</time>
      </trkpt>
      <trkpt lat="44.00519" lon="3.47248">
        <ele>963</ele>
        <time>2011-12-28T15:30:54Z</time>
      </trkpt>
      <trkpt lat="44.00515" lon="3.47253">
        <ele>963</ele>
        <time>2011-12-28T15:30:58Z</time>
      </trkpt>
      <trkpt lat="44.00512" lon="3.47255">
        <ele>963</ele>
        <time>2011-12-28T15:31:00Z</time>
      </trkpt>
      <trkpt lat="44.00503" lon="3.47261">
        <ele>962</ele>
        <time>2011-12-28T15:31:06Z</time>
      </trkpt>
      <trkpt lat="44.00501" lon="3.47268">
        <ele>962</ele>
        <time>2011-12-28T15:31:10Z</time>
      </trkpt>
      <trkpt lat="44.005" lon="3.47271">
        <ele>961</ele>
        <time>2011-12-28T15:31:12Z</time>
      </trkpt>
      <trkpt lat="44.00499" lon="3.47276">
        <ele>960</ele>
        <time>2011-12-28T15:31:19Z</time>
      </trkpt>
      <trkpt lat="44.00498" lon="3.4728">
        <ele>960</ele>
        <time>2011-12-28T15:31:27Z</time>
      </trkpt>
      <trkpt lat="44.00491" lon="3.47291">
        <ele>958</ele>
        <time>2011-12-28T15:31:35Z</time>
      </trkpt>
      <trkpt lat="44.00482" lon="3.47308">
        <ele>958</ele>
        <time>2011-12-28T15:31:47Z</time>
      </trkpt>
      <trkpt lat="44.00475" lon="3.47319">
        <ele>958</ele>
        <time>2011-12-28T15:31:55Z</time>
      </trkpt>
      <trkpt lat="44.00467" lon="3.4733">
        <ele>958</ele>
        <time>2011-12-28T15:32:02Z</time>
      </trkpt>
      <trkpt lat="44.00459" lon="3.47335">
        <ele>954</ele>
        <time>2011-12-28T15:32:10Z</time>
      </trkpt>
      <trkpt lat="44.00454" lon="3.47337">
        <ele>958</ele>
        <time>2011-12-28T15:32:15Z</time>
      </trkpt>
      <trkpt lat="44.00451" lon="3.47339">
        <ele>954</ele>
        <time>2011-12-28T15:32:17Z</time>
      </trkpt>
      <trkpt lat="44.00449" lon="3.4734">
        <ele>953</ele>
        <time>2011-12-28T15:32:19Z</time>
      </trkpt>
      <trkpt lat="44.00439" lon="3.47346">
        <ele>952</ele>
        <time>2011-12-28T15:32:28Z</time>
      </trkpt>
      <trkpt lat="44.00427" lon="3.4735">
        <ele>948</ele>
        <time>2011-12-28T15:32:38Z</time>
      </trkpt>
      <trkpt lat="44.00425" lon="3.47353">
        <ele>947</ele>
        <time>2011-12-28T15:32:40Z</time>
      </trkpt>
      <trkpt lat="44.00418" lon="3.47357">
        <ele>946</ele>
        <time>2011-12-28T15:32:46Z</time>
      </trkpt>
      <trkpt lat="44.00415" lon="3.47359">
        <ele>945</ele>
        <time>2011-12-28T15:32:49Z</time>
      </trkpt>
      <trkpt lat="44.0041" lon="3.47361">
        <ele>944</ele>
        <time>2011-12-28T15:32:54Z</time>
      </trkpt>
      <trkpt lat="44.00408" lon="3.47362">
        <ele>944</ele>
        <time>2011-12-28T15:32:56Z</time>
      </trkpt>
      <trkpt lat="44.00402" lon="3.47364">
        <ele>942</ele>
        <time>2011-12-28T15:33:01Z</time>
      </trkpt>
      <trkpt lat="44.00397" lon="3.47365">
        <ele>942</ele>
        <time>2011-12-28T15:33:06Z</time>
      </trkpt>
      <trkpt lat="44.00389" lon="3.47364">
        <ele>940</ele>
        <time>2011-12-28T15:33:14Z</time>
      </trkpt>
      <trkpt lat="44.00387" lon="3.47364">
        <ele>939</ele>
        <time>2011-12-28T15:33:17Z</time>
      </trkpt>
      <trkpt lat="44.00385" lon="3.47363">
        <ele>938</ele>
        <time>2011-12-28T15:33:19Z</time>
      </trkpt>
      <trkpt lat="44.00382" lon="3.47363">
        <ele>937</ele>
        <time>2011-12-28T15:33:22Z</time>
      </trkpt>
      <trkpt lat="44.00373" lon="3.47364">
        <ele>936</ele>
        <time>2011-12-28T15:33:30Z</time>
      </trkpt>
      <trkpt lat="44.00368" lon="3.47364">
        <ele>935</ele>
        <time>2011-12-28T15:33:34Z</time>
      </trkpt>
      <trkpt lat="44.00366" lon="3.47365">
        <ele>935</ele>
        <time>2011-12-28T15:33:36Z</time>
      </trkpt>
      <trkpt lat="44.00361" lon="3.47364">
        <ele>933</ele>
        <time>2011-12-28T15:33:42Z</time>
      </trkpt>
      <trkpt lat="44.00359" lon="3.47363">
        <ele>932</ele>
        <time>2011-12-28T15:33:44Z</time>
      </trkpt>
      <trkpt lat="44.00358" lon="3.47363">
        <ele>931</ele>
        <time>2011-12-28T15:33:46Z</time>
      </trkpt>
      <trkpt lat="44.00355" lon="3.47366">
        <ele>929</ele>
        <time>2011-12-28T15:33:49Z</time>
      </trkpt>
      <trkpt lat="44.00349" lon="3.47368">
        <ele>929</ele>
        <time>2011-12-28T15:33:54Z</time>
      </trkpt>
      <trkpt lat="44.00343" lon="3.47368">
        <ele>928</ele>
        <time>2011-12-28T15:33:59Z</time>
      </trkpt>
      <trkpt lat="44.00339" lon="3.47369">
        <ele>927</ele>
        <time>2011-12-28T15:34:03Z</time>
      </trkpt>
      <trkpt lat="44.00334" lon="3.47375">
        <ele>927</ele>
        <time>2011-12-28T15:34:07Z</time>
      </trkpt>
      <trkpt lat="44.00327" lon="3.47382">
        <ele>926</ele>
        <time>2011-12-28T15:34:12Z</time>
      </trkpt>
      <trkpt lat="44.00322" lon="3.47386">
        <ele>925</ele>
        <time>2011-12-28T15:34:17Z</time>
      </trkpt>
      <trkpt lat="44.0032" lon="3.47387">
        <ele>925</ele>
        <time>2011-12-28T15:34:19Z</time>
      </trkpt>
      <trkpt lat="44.00314" lon="3.4739">
        <ele>924</ele>
        <time>2011-12-28T15:34:24Z</time>
      </trkpt>
      <trkpt lat="44.0031" lon="3.47391">
        <ele>923</ele>
        <time>2011-12-28T15:34:28Z</time>
      </trkpt>
      <trkpt lat="44.00305" lon="3.47387">
        <ele>919</ele>
        <time>2011-12-28T15:34:34Z</time>
      </trkpt>
      <trkpt lat="44.00302" lon="3.47386">
        <ele>921</ele>
        <time>2011-12-28T15:34:37Z</time>
      </trkpt>
      <trkpt lat="44.00297" lon="3.4739">
        <ele>919</ele>
        <time>2011-12-28T15:34:41Z</time>
      </trkpt>
      <trkpt lat="44.00296" lon="3.47389">
        <ele>919</ele>
        <time>2011-12-28T15:34:42Z</time>
      </trkpt>
      <trkpt lat="44.00294" lon="3.4739">
        <ele>918</ele>
        <time>2011-12-28T15:34:44Z</time>
      </trkpt>
      <trkpt lat="44.0029" lon="3.47391">
        <ele>916</ele>
        <time>2011-12-28T15:34:47Z</time>
      </trkpt>
      <trkpt lat="44.00283" lon="3.47395">
        <ele>914</ele>
        <time>2011-12-28T15:34:53Z</time>
      </trkpt>
      <trkpt lat="44.00282" lon="3.47397">
        <ele>914</ele>
        <time>2011-12-28T15:34:54Z</time>
      </trkpt>
      <trkpt lat="44.00279" lon="3.47395">
        <ele>915</ele>
        <time>2011-12-28T15:34:57Z</time>
      </trkpt>
      <trkpt lat="44.00275" lon="3.47399">
        <ele>912</ele>
        <time>2011-12-28T15:35:01Z</time>
      </trkpt>
      <trkpt lat="44.00271" lon="3.47402">
        <ele>912</ele>
        <time>2011-12-28T15:35:04Z</time>
      </trkpt>
      <trkpt lat="44.00265" lon="3.47406">
        <ele>911</ele>
        <time>2011-12-28T15:35:11Z</time>
      </trkpt>
      <trkpt lat="44.00261" lon="3.4741">
        <ele>910</ele>
        <time>2011-12-28T15:35:15Z</time>
      </trkpt>
      <trkpt lat="44.00255" lon="3.47411">
        <ele>909</ele>
        <time>2011-12-28T15:35:20Z</time>
      </trkpt>
      <trkpt lat="44.0025" lon="3.47411">
        <ele>906</ele>
        <time>2011-12-28T15:35:25Z</time>
      </trkpt>
      <trkpt lat="44.00242" lon="3.47413">
        <ele>903</ele>
        <time>2011-12-28T15:35:31Z</time>
      </trkpt>
      <trkpt lat="44.00241" lon="3.47412">
        <ele>903</ele>
        <time>2011-12-28T15:35:32Z</time>
      </trkpt>
      <trkpt lat="44.00234" lon="3.47412">
        <ele>904</ele>
        <time>2011-12-28T15:35:39Z</time>
      </trkpt>
      <trkpt lat="44.00228" lon="3.47414">
        <ele>902</ele>
        <time>2011-12-28T15:35:45Z</time>
      </trkpt>
      <trkpt lat="44.00222" lon="3.47415">
        <ele>900</ele>
        <time>2011-12-28T15:35:51Z</time>
      </trkpt>
      <trkpt lat="44.00218" lon="3.47415">
        <ele>898</ele>
        <time>2011-12-28T15:35:56Z</time>
      </trkpt>
      <trkpt lat="44.00213" lon="3.47416">
        <ele>897</ele>
        <time>2011-12-28T15:36:00Z</time>
      </trkpt>
      <trkpt lat="44.00211" lon="3.47416">
        <ele>896</ele>
        <time>2011-12-28T15:36:02Z</time>
      </trkpt>
      <trkpt lat="44.00209" lon="3.47417">
        <ele>894</ele>
        <time>2011-12-28T15:36:05Z</time>
      </trkpt>
      <trkpt lat="44.00203" lon="3.47418">
        <ele>893</ele>
        <time>2011-12-28T15:36:11Z</time>
      </trkpt>
      <trkpt lat="44.00202" lon="3.47419">
        <ele>893</ele>
        <time>2011-12-28T15:36:12Z</time>
      </trkpt>
      <trkpt lat="44.00197" lon="3.47422">
        <ele>894</ele>
        <time>2011-12-28T15:36:16Z</time>
      </trkpt>
      <trkpt lat="44.00191" lon="3.47424">
        <ele>891</ele>
        <time>2011-12-28T15:36:22Z</time>
      </trkpt>
      <trkpt lat="44.00184" lon="3.47427">
        <ele>890</ele>
        <time>2011-12-28T15:36:28Z</time>
      </trkpt>
      <trkpt lat="44.00179" lon="3.4743">
        <ele>889</ele>
        <time>2011-12-28T15:36:33Z</time>
      </trkpt>
      <trkpt lat="44.00175" lon="3.4743">
        <ele>887</ele>
        <time>2011-12-28T15:36:37Z</time>
      </trkpt>
      <trkpt lat="44.00171" lon="3.47432">
        <ele>886</ele>
        <time>2011-12-28T15:36:42Z</time>
      </trkpt>
      <trkpt lat="44.0017" lon="3.47433">
        <ele>886</ele>
        <time>2011-12-28T15:36:43Z</time>
      </trkpt>
      <trkpt lat="44.00169" lon="3.47434">
        <ele>886</ele>
        <time>2011-12-28T15:36:44Z</time>
      </trkpt>
      <trkpt lat="44.00163" lon="3.47438">
        <ele>885</ele>
        <time>2011-12-28T15:36:50Z</time>
      </trkpt>
      <trkpt lat="44.00158" lon="3.47441">
        <ele>884</ele>
        <time>2011-12-28T15:36:54Z</time>
      </trkpt>
      <trkpt lat="44.00155" lon="3.47443">
        <ele>886</ele>
        <time>2011-12-28T15:36:57Z</time>
      </trkpt>
      <trkpt lat="44.00151" lon="3.47444">
        <ele>885</ele>
        <time>2011-12-28T15:37:00Z</time>
      </trkpt>
      <trkpt lat="44.00141" lon="3.47436">
        <ele>882</ele>
        <time>2011-12-28T15:37:10Z</time>
      </trkpt>
      <trkpt lat="44.00137" lon="3.47434">
        <ele>880</ele>
        <time>2011-12-28T15:37:13Z</time>
      </trkpt>
      <trkpt lat="44.00134" lon="3.47433">
        <ele>879</ele>
        <time>2011-12-28T15:37:15Z</time>
      </trkpt>
      <trkpt lat="44.00128" lon="3.47432">
        <ele>880</ele>
        <time>2011-12-28T15:37:20Z</time>
      </trkpt>
      <trkpt lat="44.00115" lon="3.47427">
        <ele>879</ele>
        <time>2011-12-28T15:37:30Z</time>
      </trkpt>
      <trkpt lat="44.00107" lon="3.47426">
        <ele>877</ele>
        <time>2011-12-28T15:37:36Z</time>
      </trkpt>
      <trkpt lat="44.00105" lon="3.47426">
        <ele>876</ele>
        <time>2011-12-28T15:37:38Z</time>
      </trkpt>
      <trkpt lat="44.00099" lon="3.47424">
        <ele>875</ele>
        <time>2011-12-28T15:37:43Z</time>
      </trkpt>
      <trkpt lat="44.00093" lon="3.47416">
        <ele>874</ele>
        <time>2011-12-28T15:37:50Z</time>
      </trkpt>
      <trkpt lat="44.00088" lon="3.47409">
        <ele>873</ele>
        <time>2011-12-28T15:37:55Z</time>
      </trkpt>
      <trkpt lat="44.00083" lon="3.47401">
        <ele>872</ele>
        <time>2011-12-28T15:38:01Z</time>
      </trkpt>
      <trkpt lat="44.00079" lon="3.47396">
        <ele>872</ele>
        <time>2011-12-28T15:38:06Z</time>
      </trkpt>
      <trkpt lat="44.00076" lon="3.47394">
        <ele>869</ele>
        <time>2011-12-28T15:38:09Z</time>
      </trkpt>
      <trkpt lat="44.00069" lon="3.47388">
        <ele>868</ele>
        <time>2011-12-28T15:38:14Z</time>
      </trkpt>
      <trkpt lat="44.00066" lon="3.47384">
        <ele>865</ele>
        <time>2011-12-28T15:38:19Z</time>
      </trkpt>
      <trkpt lat="44.00064" lon="3.47383">
        <ele>866</ele>
        <time>2011-12-28T15:38:20Z</time>
      </trkpt>
      <trkpt lat="44.00054" lon="3.47378">
        <ele>863</ele>
        <time>2011-12-28T15:38:28Z</time>
      </trkpt>
      <trkpt lat="44.00048" lon="3.47375">
        <ele>863</ele>
        <time>2011-12-28T15:38:34Z</time>
      </trkpt>
      <trkpt lat="44.00041" lon="3.47371">
        <ele>861</ele>
        <time>2011-12-28T15:38:40Z</time>
      </trkpt>
      <trkpt lat="44.00038" lon="3.47368">
        <ele>861</ele>
        <time>2011-12-28T15:38:44Z</time>
      </trkpt>
      <trkpt lat="44.00029" lon="3.47363">
        <ele>858</ele>
        <time>2011-12-28T15:38:51Z</time>
      </trkpt>
      <trkpt lat="44.00028" lon="3.47363">
        <ele>859</ele>
        <time>2011-12-28T15:38:52Z</time>
      </trkpt>
      <trkpt lat="44.00021" lon="3.47357">
        <ele>857</ele>
        <time>2011-12-28T15:38:59Z</time>
      </trkpt>
      <trkpt lat="44.00013" lon="3.4735">
        <ele>856</ele>
        <time>2011-12-28T15:39:07Z</time>
      </trkpt>
      <trkpt lat="44.0001" lon="3.47349">
        <ele>854</ele>
        <time>2011-12-28T15:39:11Z</time>
      </trkpt>
      <trkpt lat="44.00009" lon="3.47348">
        <ele>854</ele>
        <time>2011-12-28T15:39:12Z</time>
      </trkpt>
      <trkpt lat="44.00005" lon="3.47346">
        <ele>853</ele>
        <time>2011-12-28T15:39:16Z</time>
      </trkpt>
      <trkpt lat="43.99996" lon="3.47339">
        <ele>854</ele>
        <time>2011-12-28T15:39:24Z</time>
      </trkpt>
      <trkpt lat="43.9999" lon="3.47335">
        <ele>851</ele>
        <time>2011-12-28T15:39:29Z</time>
      </trkpt>
      <trkpt lat="43.99981" lon="3.4733">
        <ele>849</ele>
        <time>2011-12-28T15:39:36Z</time>
      </trkpt>
      <trkpt lat="43.9998" lon="3.47329">
        <ele>849</ele>
        <time>2011-12-28T15:39:37Z</time>
      </trkpt>
      <trkpt lat="43.99974" lon="3.47325">
        <ele>848</ele>
        <time>2011-12-28T15:39:43Z</time>
      </trkpt>
      <trkpt lat="43.99964" lon="3.47321">
        <ele>847</ele>
        <time>2011-12-28T15:39:52Z</time>
      </trkpt>
      <trkpt lat="43.99956" lon="3.47322">
        <ele>845</ele>
        <time>2011-12-28T15:39:58Z</time>
      </trkpt>
      <trkpt lat="43.9995" lon="3.47323">
        <ele>844</ele>
        <time>2011-12-28T15:40:03Z</time>
      </trkpt>
      <trkpt lat="43.9994" lon="3.47319">
        <ele>844</ele>
        <time>2011-12-28T15:40:12Z</time>
      </trkpt>
      <trkpt lat="43.99938" lon="3.47317">
        <ele>842</ele>
        <time>2011-12-28T15:40:14Z</time>
      </trkpt>
      <trkpt lat="43.99933" lon="3.47313">
        <ele>844</ele>
        <time>2011-12-28T15:40:18Z</time>
      </trkpt>
      <trkpt lat="43.99929" lon="3.4731">
        <ele>843</ele>
        <time>2011-12-28T15:40:23Z</time>
      </trkpt>
      <trkpt lat="43.99924" lon="3.47309">
        <ele>839</ele>
        <time>2011-12-28T15:40:27Z</time>
      </trkpt>
      <trkpt lat="43.99922" lon="3.47307">
        <ele>839</ele>
        <time>2011-12-28T15:40:30Z</time>
      </trkpt>
      <trkpt lat="43.99915" lon="3.47299">
        <ele>835</ele>
        <time>2011-12-28T15:40:39Z</time>
      </trkpt>
      <trkpt lat="43.99914" lon="3.47298">
        <ele>839</ele>
        <time>2011-12-28T15:40:40Z</time>
      </trkpt>
      <trkpt lat="43.99912" lon="3.47296">
        <ele>842</ele>
        <time>2011-12-28T15:40:42Z</time>
      </trkpt>
      <trkpt lat="43.99911" lon="3.47295">
        <ele>842</ele>
        <time>2011-12-28T15:40:43Z</time>
      </trkpt>
      <trkpt lat="43.99911" lon="3.47294">
        <ele>838</ele>
        <time>2011-12-28T15:40:44Z</time>
      </trkpt>
      <trkpt lat="43.9991" lon="3.47293">
        <ele>838</ele>
        <time>2011-12-28T15:40:45Z</time>
      </trkpt>
      <trkpt lat="43.99905" lon="3.4729">
        <ele>837</ele>
        <time>2011-12-28T15:40:49Z</time>
      </trkpt>
      <trkpt lat="43.99892" lon="3.47289">
        <ele>834</ele>
        <time>2011-12-28T15:41:00Z</time>
      </trkpt>
      <trkpt lat="43.99881" lon="3.47292">
        <ele>836</ele>
        <time>2011-12-28T15:41:09Z</time>
      </trkpt>
      <trkpt lat="43.99879" lon="3.47293">
        <ele>837</ele>
        <time>2011-12-28T15:41:11Z</time>
      </trkpt>
      <trkpt lat="43.99876" lon="3.47294">
        <ele>839</ele>
        <time>2011-12-28T15:41:15Z</time>
      </trkpt>
      <trkpt lat="43.99871" lon="3.47296">
        <ele>840</ele>
        <time>2011-12-28T15:41:20Z</time>
      </trkpt>
      <trkpt lat="43.99868" lon="3.47298">
        <ele>837</ele>
        <time>2011-12-28T15:41:23Z</time>
      </trkpt>
      <trkpt lat="43.99864" lon="3.473">
        <ele>834</ele>
        <time>2011-12-28T15:41:27Z</time>
      </trkpt>
      <trkpt lat="43.99863" lon="3.47301">
        <ele>834</ele>
        <time>2011-12-28T15:41:28Z</time>
      </trkpt>
      <trkpt lat="43.99856" lon="3.47305">
        <ele>834</ele>
        <time>2011-12-28T15:41:33Z</time>
      </trkpt>
      <trkpt lat="43.99848" lon="3.47309">
        <ele>833</ele>
        <time>2011-12-28T15:41:40Z</time>
      </trkpt>
      <trkpt lat="43.99831" lon="3.47315">
        <ele>832</ele>
        <time>2011-12-28T15:41:53Z</time>
      </trkpt>
      <trkpt lat="43.99816" lon="3.47315">
        <ele>832</ele>
        <time>2011-12-28T15:42:05Z</time>
      </trkpt>
      <trkpt lat="43.99802" lon="3.47311">
        <ele>829</ele>
        <time>2011-12-28T15:42:14Z</time>
      </trkpt>
      <trkpt lat="43.99792" lon="3.47307">
        <ele>826</ele>
        <time>2011-12-28T15:42:18Z</time>
      </trkpt>
      <trkpt lat="43.99786" lon="3.47304">
        <ele>828</ele>
        <time>2011-12-28T15:42:21Z</time>
      </trkpt>
      <trkpt lat="43.99781" lon="3.473">
        <ele>831</ele>
        <time>2011-12-28T15:42:24Z</time>
      </trkpt>
      <trkpt lat="43.99765" lon="3.47284">
        <ele>827</ele>
        <time>2011-12-28T15:42:32Z</time>
      </trkpt>
      <trkpt lat="43.99763" lon="3.47282">
        <ele>827</ele>
        <time>2011-12-28T15:42:33Z</time>
      </trkpt>
      <trkpt lat="43.99752" lon="3.47266">
        <ele>826</ele>
        <time>2011-12-28T15:42:40Z</time>
      </trkpt>
      <trkpt lat="43.99735" lon="3.47252">
        <ele>826</ele>
        <time>2011-12-28T15:42:49Z</time>
      </trkpt>
      <trkpt lat="43.99726" lon="3.47246">
        <ele>826</ele>
        <time>2011-12-28T15:42:54Z</time>
      </trkpt>
      <trkpt lat="43.99718" lon="3.47242">
        <ele>824</ele>
        <time>2011-12-28T15:42:58Z</time>
      </trkpt>
      <trkpt lat="43.99711" lon="3.4724">
        <ele>822</ele>
        <time>2011-12-28T15:43:01Z</time>
      </trkpt>
      <trkpt lat="43.997" lon="3.47237">
        <ele>821</ele>
        <time>2011-12-28T15:43:06Z</time>
      </trkpt>
      <trkpt lat="43.99689" lon="3.47231">
        <ele>820</ele>
        <time>2011-12-28T15:43:12Z</time>
      </trkpt>
      <trkpt lat="43.99687" lon="3.47229">
        <ele>820</ele>
        <time>2011-12-28T15:43:13Z</time>
      </trkpt>
      <trkpt lat="43.99682" lon="3.47225">
        <ele>819</ele>
        <time>2011-12-28T15:43:16Z</time>
      </trkpt>
      <trkpt lat="43.99673" lon="3.47217">
        <ele>819</ele>
        <time>2011-12-28T15:43:22Z</time>
      </trkpt>
      <trkpt lat="43.99667" lon="3.47211">
        <ele>821</ele>
        <time>2011-12-28T15:43:27Z</time>
      </trkpt>
      <trkpt lat="43.99658" lon="3.472">
        <ele>821</ele>
        <time>2011-12-28T15:43:36Z</time>
      </trkpt>
      <trkpt lat="43.9965" lon="3.47192">
        <ele>821</ele>
        <time>2011-12-28T15:43:43Z</time>
      </trkpt>
      <trkpt lat="43.99638" lon="3.47183">
        <ele>817</ele>
        <time>2011-12-28T15:43:52Z</time>
      </trkpt>
      <trkpt lat="43.99631" lon="3.4718">
        <ele>818</ele>
        <time>2011-12-28T15:43:58Z</time>
      </trkpt>
      <trkpt lat="43.99623" lon="3.47177">
        <ele>816</ele>
        <time>2011-12-28T15:44:04Z</time>
      </trkpt>
      <trkpt lat="43.99613" lon="3.47172">
        <ele>817</ele>
        <time>2011-12-28T15:44:12Z</time>
      </trkpt>
      <trkpt lat="43.99607" lon="3.47167">
        <ele>817</ele>
        <time>2011-12-28T15:44:19Z</time>
      </trkpt>
      <trkpt lat="43.99607" lon="3.47164">
        <ele>820</ele>
        <time>2011-12-28T15:44:22Z</time>
      </trkpt>
      <trkpt lat="43.99605" lon="3.47163">
        <ele>814</ele>
        <time>2011-12-28T15:44:24Z</time>
      </trkpt>
      <trkpt lat="43.99603" lon="3.47161">
        <ele>821</ele>
        <time>2011-12-28T15:44:26Z</time>
      </trkpt>
      <trkpt lat="43.99598" lon="3.47156">
        <ele>824</ele>
        <time>2011-12-28T15:44:31Z</time>
      </trkpt>
      <trkpt lat="43.99597" lon="3.47155">
        <ele>824</ele>
        <time>2011-12-28T15:44:32Z</time>
      </trkpt>
      <trkpt lat="43.99595" lon="3.47153">
        <ele>821</ele>
        <time>2011-12-28T15:44:34Z</time>
      </trkpt>
      <trkpt lat="43.99592" lon="3.4715">
        <ele>817</ele>
        <time>2011-12-28T15:44:37Z</time>
      </trkpt>
      <trkpt lat="43.99589" lon="3.47148">
        <ele>821</ele>
        <time>2011-12-28T15:44:39Z</time>
      </trkpt>
      <trkpt lat="43.99588" lon="3.47147">
        <ele>821</ele>
        <time>2011-12-28T15:44:40Z</time>
      </trkpt>
      <trkpt lat="43.99577" lon="3.47137">
        <ele>820</ele>
        <time>2011-12-28T15:44:50Z</time>
      </trkpt>
      <trkpt lat="43.99575" lon="3.47136">
        <ele>822</ele>
        <time>2011-12-28T15:44:52Z</time>
      </trkpt>
      <trkpt lat="43.99567" lon="3.47128">
        <ele>823</ele>
        <time>2011-12-28T15:45:01Z</time>
      </trkpt>
      <trkpt lat="43.9956" lon="3.47121">
        <ele>824</ele>
        <time>2011-12-28T15:45:08Z</time>
      </trkpt>
      <trkpt lat="43.99552" lon="3.47113">
        <ele>823</ele>
        <time>2011-12-28T15:45:17Z</time>
      </trkpt>
      <trkpt lat="43.99543" lon="3.47104">
        <ele>824</ele>
        <time>2011-12-28T15:45:26Z</time>
      </trkpt>
      <trkpt lat="43.99543" lon="3.47104">
        <ele>821</ele>
        <time>2011-12-28T15:45:27Z</time>
      </trkpt>
      <trkpt lat="43.99542" lon="3.47103">
        <ele>822</ele>
        <time>2011-12-28T15:45:28Z</time>
      </trkpt>
      <trkpt lat="43.99541" lon="3.47102">
        <ele>826</ele>
        <time>2011-12-28T15:45:29Z</time>
      </trkpt>
      <trkpt lat="43.9954" lon="3.47101">
        <ele>825</ele>
        <time>2011-12-28T15:45:30Z</time>
      </trkpt>
      <trkpt lat="43.99535" lon="3.47095">
        <ele>826</ele>
        <time>2011-12-28T15:45:36Z</time>
      </trkpt>
      <trkpt lat="43.99532" lon="3.47092">
        <ele>825</ele>
        <time>2011-12-28T15:45:39Z</time>
      </trkpt>
      <trkpt lat="43.99524" lon="3.47084">
        <ele>825</ele>
        <time>2011-12-28T15:45:48Z</time>
      </trkpt>
      <trkpt lat="43.99517" lon="3.47078">
        <ele>828</ele>
        <time>2011-12-28T15:45:54Z</time>
      </trkpt>
      <trkpt lat="43.99516" lon="3.47077">
        <ele>830</ele>
        <time>2011-12-28T15:45:56Z</time>
      </trkpt>
      <trkpt lat="43.99512" lon="3.47074">
        <ele>828</ele>
        <time>2011-12-28T15:46:00Z</time>
      </trkpt>
      <trkpt lat="43.99506" lon="3.47068">
        <ele>831</ele>
        <time>2011-12-28T15:46:07Z</time>
      </trkpt>
      <trkpt lat="43.99503" lon="3.47065">
        <ele>831</ele>
        <time>2011-12-28T15:46:11Z</time>
      </trkpt>
      <trkpt lat="43.99496" lon="3.47059">
        <ele>832</ele>
        <time>2011-12-28T15:46:20Z</time>
      </trkpt>
      <trkpt lat="43.99495" lon="3.47058">
        <ele>832</ele>
        <time>2011-12-28T15:46:22Z</time>
      </trkpt>
      <trkpt lat="43.99486" lon="3.47052">
        <ele>835</ele>
        <time>2011-12-28T15:46:32Z</time>
      </trkpt>
      <trkpt lat="43.99482" lon="3.47049">
        <ele>837</ele>
        <time>2011-12-28T15:46:37Z</time>
      </trkpt>
      <trkpt lat="43.99476" lon="3.47045">
        <ele>838</ele>
        <time>2011-12-28T15:46:44Z</time>
      </trkpt>
      <trkpt lat="43.99472" lon="3.47043">
        <ele>829</ele>
        <time>2011-12-28T15:46:49Z</time>
      </trkpt>
      <trkpt lat="43.99471" lon="3.47042">
        <ele>835</ele>
        <time>2011-12-28T15:46:51Z</time>
      </trkpt>
      <trkpt lat="43.9947" lon="3.47041">
        <ele>839</ele>
        <time>2011-12-28T15:46:52Z</time>
      </trkpt>
      <trkpt lat="43.9947" lon="3.47041">
        <ele>839</ele>
        <time>2011-12-28T15:46:53Z</time>
      </trkpt>
      <trkpt lat="43.99467" lon="3.47038">
        <ele>842</ele>
        <time>2011-12-28T15:46:56Z</time>
      </trkpt>
      <trkpt lat="43.99465" lon="3.47037">
        <ele>833</ele>
        <time>2011-12-28T15:46:58Z</time>
      </trkpt>
      <trkpt lat="43.99464" lon="3.47037">
        <ele>832</ele>
        <time>2011-12-28T15:46:59Z</time>
      </trkpt>
      <trkpt lat="43.99463" lon="3.47036">
        <ele>842</ele>
        <time>2011-12-28T15:47:00Z</time>
      </trkpt>
      <trkpt lat="43.99461" lon="3.47034">
        <ele>836</ele>
        <time>2011-12-28T15:47:02Z</time>
      </trkpt>
      <trkpt lat="43.9946" lon="3.47033">
        <ele>837</ele>
        <time>2011-12-28T15:47:03Z</time>
      </trkpt>
      <trkpt lat="43.9946" lon="3.47032">
        <ele>833</ele>
        <time>2011-12-28T15:47:04Z</time>
      </trkpt>
      <trkpt lat="43.99459" lon="3.47031">
        <ele>828</ele>
        <time>2011-12-28T15:47:05Z</time>
      </trkpt>
      <trkpt lat="43.99458" lon="3.4703">
        <ele>831</ele>
        <time>2011-12-28T15:47:06Z</time>
      </trkpt>
      <trkpt lat="43.99456" lon="3.47028">
        <ele>837</ele>
        <time>2011-12-28T15:47:08Z</time>
      </trkpt>
      <trkpt lat="43.99455" lon="3.47027">
        <ele>842</ele>
        <time>2011-12-28T15:47:09Z</time>
      </trkpt>
      <trkpt lat="43.99454" lon="3.47026">
        <ele>843</ele>
        <time>2011-12-28T15:47:10Z</time>
      </trkpt>
      <trkpt lat="43.99452" lon="3.47025">
        <ele>834</ele>
        <time>2011-12-28T15:47:12Z</time>
      </trkpt>
      <trkpt lat="43.99452" lon="3.47024">
        <ele>834</ele>
        <time>2011-12-28T15:47:13Z</time>
      </trkpt>
      <trkpt lat="43.99451" lon="3.47023">
        <ele>837</ele>
        <time>2011-12-28T15:47:14Z</time>
      </trkpt>
      <trkpt lat="43.99449" lon="3.47022">
        <ele>839</ele>
        <time>2011-12-28T15:47:16Z</time>
      </trkpt>
      <trkpt lat="43.99445" lon="3.47015">
        <ele>838</ele>
        <time>2011-12-28T15:47:23Z</time>
      </trkpt>
      <trkpt lat="43.99443" lon="3.4701">
        <ele>835</ele>
        <time>2011-12-28T15:47:27Z</time>
      </trkpt>
      <trkpt lat="43.99441" lon="3.47008">
        <ele>834</ele>
        <time>2011-12-28T15:47:28Z</time>
      </trkpt>
      <trkpt lat="43.99437" lon="3.47001">
        <ele>837</ele>
        <time>2011-12-28T15:47:34Z</time>
      </trkpt>
      <trkpt lat="43.99435" lon="3.46998">
        <ele>834</ele>
        <time>2011-12-28T15:47:37Z</time>
      </trkpt>
      <trkpt lat="43.99432" lon="3.46994">
        <ele>839</ele>
        <time>2011-12-28T15:47:41Z</time>
      </trkpt>
      <trkpt lat="43.99431" lon="3.46993">
        <ele>843</ele>
        <time>2011-12-28T15:47:42Z</time>
      </trkpt>
      <trkpt lat="43.99429" lon="3.4699">
        <ele>845</ele>
        <time>2011-12-28T15:47:44Z</time>
      </trkpt>
      <trkpt lat="43.99428" lon="3.46987">
        <ele>844</ele>
        <time>2011-12-28T15:47:46Z</time>
      </trkpt>
      <trkpt lat="43.9942" lon="3.46974">
        <ele>841</ele>
        <time>2011-12-28T15:47:56Z</time>
      </trkpt>
      <trkpt lat="43.99412" lon="3.46963">
        <ele>844</ele>
        <time>2011-12-28T15:48:05Z</time>
      </trkpt>
      <trkpt lat="43.99406" lon="3.46955">
        <ele>840</ele>
        <time>2011-12-28T15:48:12Z</time>
      </trkpt>
      <trkpt lat="43.99395" lon="3.46946">
        <ele>838</ele>
        <time>2011-12-28T15:48:22Z</time>
      </trkpt>
      <trkpt lat="43.99388" lon="3.46942">
        <ele>837</ele>
        <time>2011-12-28T15:48:29Z</time>
      </trkpt>
      <trkpt lat="43.99387" lon="3.46941">
        <ele>834</ele>
        <time>2011-12-28T15:48:32Z</time>
      </trkpt>
      <trkpt lat="43.99386" lon="3.4694">
        <ele>837</ele>
        <time>2011-12-28T15:48:36Z</time>
      </trkpt>
      <trkpt lat="43.99384" lon="3.4694">
        <ele>834</ele>
        <time>2011-12-28T15:48:38Z</time>
      </trkpt>
      <trkpt lat="43.99382" lon="3.46939">
        <ele>839</ele>
        <time>2011-12-28T15:48:40Z</time>
      </trkpt>
      <trkpt lat="43.99381" lon="3.46938">
        <ele>838</ele>
        <time>2011-12-28T15:48:41Z</time>
      </trkpt>
      <trkpt lat="43.99375" lon="3.46933">
        <ele>835</ele>
        <time>2011-12-28T15:48:47Z</time>
      </trkpt>
      <trkpt lat="43.99369" lon="3.4693">
        <ele>838</ele>
        <time>2011-12-28T15:48:52Z</time>
      </trkpt>
      <trkpt lat="43.99364" lon="3.46926">
        <ele>839</ele>
        <time>2011-12-28T15:48:57Z</time>
      </trkpt>
      <trkpt lat="43.99361" lon="3.46923">
        <ele>834</ele>
        <time>2011-12-28T15:49:00Z</time>
      </trkpt>
      <trkpt lat="43.9936" lon="3.46922">
        <ele>835</ele>
        <time>2011-12-28T15:49:01Z</time>
      </trkpt>
      <trkpt lat="43.9935" lon="3.46911">
        <ele>834</ele>
        <time>2011-12-28T15:49:11Z</time>
      </trkpt>
      <trkpt lat="43.99349" lon="3.4691">
        <ele>833</ele>
        <time>2011-12-28T15:49:12Z</time>
      </trkpt>
      <trkpt lat="43.99344" lon="3.46906">
        <ele>834</ele>
        <time>2011-12-28T15:49:16Z</time>
      </trkpt>
      <trkpt lat="43.99342" lon="3.46904">
        <ele>833</ele>
        <time>2011-12-28T15:49:18Z</time>
      </trkpt>
      <trkpt lat="43.9934" lon="3.46901">
        <ele>828</ele>
        <time>2011-12-28T15:49:21Z</time>
      </trkpt>
      <trkpt lat="43.99339" lon="3.469">
        <ele>829</ele>
        <time>2011-12-28T15:49:22Z</time>
      </trkpt>
      <trkpt lat="43.9933" lon="3.46892">
        <ele>826</ele>
        <time>2011-12-28T15:49:30Z</time>
      </trkpt>
      <trkpt lat="43.99328" lon="3.4689">
        <ele>823</ele>
        <time>2011-12-28T15:49:32Z</time>
      </trkpt>
      <trkpt lat="43.99327" lon="3.46889">
        <ele>827</ele>
        <time>2011-12-28T15:49:33Z</time>
      </trkpt>
      <trkpt lat="43.99325" lon="3.46887">
        <ele>829</ele>
        <time>2011-12-28T15:49:35Z</time>
      </trkpt>
      <trkpt lat="43.99324" lon="3.46886">
        <ele>824</ele>
        <time>2011-12-28T15:49:36Z</time>
      </trkpt>
      <trkpt lat="43.9932" lon="3.46882">
        <ele>824</ele>
        <time>2011-12-28T15:49:40Z</time>
      </trkpt>
      <trkpt lat="43.99315" lon="3.46877">
        <ele>827</ele>
        <time>2011-12-28T15:49:45Z</time>
      </trkpt>
      <trkpt lat="43.99314" lon="3.46876">
        <ele>827</ele>
        <time>2011-12-28T15:49:46Z</time>
      </trkpt>
      <trkpt lat="43.99313" lon="3.46873">
        <ele>830</ele>
        <time>2011-12-28T15:49:48Z</time>
      </trkpt>
      <trkpt lat="43.9931" lon="3.46871">
        <ele>826</ele>
        <time>2011-12-28T15:49:51Z</time>
      </trkpt>
      <trkpt lat="43.99308" lon="3.46869">
        <ele>825</ele>
        <time>2011-12-28T15:49:53Z</time>
      </trkpt>
      <trkpt lat="43.99298" lon="3.46861">
        <ele>827</ele>
        <time>2011-12-28T15:50:03Z</time>
      </trkpt>
      <trkpt lat="43.99288" lon="3.4685">
        <ele>826</ele>
        <time>2011-12-28T15:50:14Z</time>
      </trkpt>
      <trkpt lat="43.99287" lon="3.46849">
        <ele>826</ele>
        <time>2011-12-28T15:50:15Z</time>
      </trkpt>
      <trkpt lat="43.9928" lon="3.46844">
        <ele>826</ele>
        <time>2011-12-28T15:50:21Z</time>
      </trkpt>
      <trkpt lat="43.99272" lon="3.46836">
        <ele>826</ele>
        <time>2011-12-28T15:50:29Z</time>
      </trkpt>
      <trkpt lat="43.99262" lon="3.46829">
        <ele>825</ele>
        <time>2011-12-28T15:50:38Z</time>
      </trkpt>
      <trkpt lat="43.99249" lon="3.46819">
        <ele>827</ele>
        <time>2011-12-28T15:50:48Z</time>
      </trkpt>
      <trkpt lat="43.99244" lon="3.46816">
        <ele>828</ele>
        <time>2011-12-28T15:50:52Z</time>
      </trkpt>
      <trkpt lat="43.99233" lon="3.4681">
        <ele>830</ele>
        <time>2011-12-28T15:51:02Z</time>
      </trkpt>
      <trkpt lat="43.99225" lon="3.46803">
        <ele>831</ele>
        <time>2011-12-28T15:51:10Z</time>
      </trkpt>
      <trkpt lat="43.99217" lon="3.46798">
        <ele>836</ele>
        <time>2011-12-28T15:51:17Z</time>
      </trkpt>
      <trkpt lat="43.99216" lon="3.46797">
        <ele>835</ele>
        <time>2011-12-28T15:51:18Z</time>
      </trkpt>
      <trkpt lat="43.9921" lon="3.46792">
        <ele>838</ele>
        <time>2011-12-28T15:51:24Z</time>
      </trkpt>
      <trkpt lat="43.99209" lon="3.46791">
        <ele>838</ele>
        <time>2011-12-28T15:51:25Z</time>
      </trkpt>
      <trkpt lat="43.99207" lon="3.4679">
        <ele>832</ele>
        <time>2011-12-28T15:51:27Z</time>
      </trkpt>
      <trkpt lat="43.99206" lon="3.4679">
        <ele>832</ele>
        <time>2011-12-28T15:51:28Z</time>
      </trkpt>
      <trkpt lat="43.99205" lon="3.46789">
        <ele>836</ele>
        <time>2011-12-28T15:51:30Z</time>
      </trkpt>
      <trkpt lat="43.99204" lon="3.46788">
        <ele>838</ele>
        <time>2011-12-28T15:51:34Z</time>
      </trkpt>
      <trkpt lat="43.99202" lon="3.46787">
        <ele>842</ele>
        <time>2011-12-28T15:51:39Z</time>
      </trkpt>
      <trkpt lat="43.99198" lon="3.46785">
        <ele>843</ele>
        <time>2011-12-28T15:51:49Z</time>
      </trkpt>
      <trkpt lat="43.99197" lon="3.46784">
        <ele>839</ele>
        <time>2011-12-28T15:51:51Z</time>
      </trkpt>
      <trkpt lat="43.99195" lon="3.46782">
        <ele>844</ele>
        <time>2011-12-28T15:51:54Z</time>
      </trkpt>
      <trkpt lat="43.99194" lon="3.46782">
        <ele>843</ele>
        <time>2011-12-28T15:51:55Z</time>
      </trkpt>
      <trkpt lat="43.99192" lon="3.4678">
        <ele>846</ele>
        <time>2011-12-28T15:51:57Z</time>
      </trkpt>
      <trkpt lat="43.99192" lon="3.4678">
        <ele>846</ele>
        <time>2011-12-28T15:51:58Z</time>
      </trkpt>
      <trkpt lat="43.99185" lon="3.46774">
        <ele>848</ele>
        <time>2011-12-28T15:52:06Z</time>
      </trkpt>
      <trkpt lat="43.99177" lon="3.46769">
        <ele>848</ele>
        <time>2011-12-28T15:52:14Z</time>
      </trkpt>
      <trkpt lat="43.99166" lon="3.46761">
        <ele>849</ele>
        <time>2011-12-28T15:52:24Z</time>
      </trkpt>
      <trkpt lat="43.99157" lon="3.46754">
        <ele>848</ele>
        <time>2011-12-28T15:52:33Z</time>
      </trkpt>
      <trkpt lat="43.99152" lon="3.46752">
        <ele>852</ele>
        <time>2011-12-28T15:52:38Z</time>
      </trkpt>
      <trkpt lat="43.99151" lon="3.46751">
        <ele>851</ele>
        <time>2011-12-28T15:52:39Z</time>
      </trkpt>
      <trkpt lat="43.9915" lon="3.4675">
        <ele>849</ele>
        <time>2011-12-28T15:52:40Z</time>
      </trkpt>
      <trkpt lat="43.99141" lon="3.46744">
        <ele>853</ele>
        <time>2011-12-28T15:52:50Z</time>
      </trkpt>
      <trkpt lat="43.99137" lon="3.46742">
        <ele>853</ele>
        <time>2011-12-28T15:52:55Z</time>
      </trkpt>
      <trkpt lat="43.99132" lon="3.46739">
        <ele>854</ele>
        <time>2011-12-28T15:53:00Z</time>
      </trkpt>
      <trkpt lat="43.99129" lon="3.46737">
        <ele>854</ele>
        <time>2011-12-28T15:53:02Z</time>
      </trkpt>
      <trkpt lat="43.9912" lon="3.46732">
        <ele>854</ele>
        <time>2011-12-28T15:53:11Z</time>
      </trkpt>
      <trkpt lat="43.99116" lon="3.46729">
        <ele>853</ele>
        <time>2011-12-28T15:53:16Z</time>
      </trkpt>
      <trkpt lat="43.99114" lon="3.46729">
        <ele>852</ele>
        <time>2011-12-28T15:53:24Z</time>
      </trkpt>
      <trkpt lat="43.99104" lon="3.46724">
        <ele>855</ele>
        <time>2011-12-28T15:53:34Z</time>
      </trkpt>
      <trkpt lat="43.99103" lon="3.46724">
        <ele>855</ele>
        <time>2011-12-28T15:53:35Z</time>
      </trkpt>
      <trkpt lat="43.99096" lon="3.46718">
        <ele>854</ele>
        <time>2011-12-28T15:53:42Z</time>
      </trkpt>
      <trkpt lat="43.99086" lon="3.46712">
        <ele>855</ele>
        <time>2011-12-28T15:53:52Z</time>
      </trkpt>
      <trkpt lat="43.99079" lon="3.46707">
        <ele>857</ele>
        <time>2011-12-28T15:54:01Z</time>
      </trkpt>
      <trkpt lat="43.99073" lon="3.46703">
        <ele>858</ele>
        <time>2011-12-28T15:54:09Z</time>
      </trkpt>
      <trkpt lat="43.99066" lon="3.46699">
        <ele>858</ele>
        <time>2011-12-28T15:54:18Z</time>
      </trkpt>
      <trkpt lat="43.99064" lon="3.46697">
        <ele>861</ele>
        <time>2011-12-28T15:54:21Z</time>
      </trkpt>
      <trkpt lat="43.99059" lon="3.46694">
        <ele>863</ele>
        <time>2011-12-28T15:54:29Z</time>
      </trkpt>
      <trkpt lat="43.99052" lon="3.4669">
        <ele>864</ele>
        <time>2011-12-28T15:54:39Z</time>
      </trkpt>
      <trkpt lat="43.99045" lon="3.46686">
        <ele>866</ele>
        <time>2011-12-28T15:54:50Z</time>
      </trkpt>
      <trkpt lat="43.9904" lon="3.46683">
        <ele>868</ele>
        <time>2011-12-28T15:54:59Z</time>
      </trkpt>
      <trkpt lat="43.99036" lon="3.46681">
        <ele>869</ele>
        <time>2011-12-28T15:55:05Z</time>
      </trkpt>
      <trkpt lat="43.99033" lon="3.46679">
        <ele>869</ele>
        <time>2011-12-28T15:55:11Z</time>
      </trkpt>
      <trkpt lat="43.99028" lon="3.46676">
        <ele>871</ele>
        <time>2011-12-28T15:55:18Z</time>
      </trkpt>
      <trkpt lat="43.99024" lon="3.46671">
        <ele>870</ele>
        <time>2011-12-28T15:55:25Z</time>
      </trkpt>
      <trkpt lat="43.99022" lon="3.46667">
        <ele>871</ele>
        <time>2011-12-28T15:55:30Z</time>
      </trkpt>
      <trkpt lat="43.9902" lon="3.46659">
        <ele>870</ele>
        <time>2011-12-28T15:55:36Z</time>
      </trkpt>
      <trkpt lat="43.99018" lon="3.46645">
        <ele>871</ele>
        <time>2011-12-28T15:55:45Z</time>
      </trkpt>
      <trkpt lat="43.99017" lon="3.46633">
        <ele>870</ele>
        <time>2011-12-28T15:55:53Z</time>
      </trkpt>
      <trkpt lat="43.99017" lon="3.4663">
        <ele>868</ele>
        <time>2011-12-28T15:56:00Z</time>
      </trkpt>
      <trkpt lat="43.99017" lon="3.46625">
        <ele>870</ele>
        <time>2011-12-28T16:00:01Z</time>
      </trkpt>
      <trkpt lat="43.99016" lon="3.46623">
        <ele>869</ele>
        <time>2011-12-28T16:00:07Z</time>
      </trkpt>
      <trkpt lat="43.99016" lon="3.46621">
        <ele>871</ele>
        <time>2011-12-28T16:00:16Z</time>
      </trkpt>
      <trkpt lat="43.99017" lon="3.46617">
        <ele>872</ele>
        <time>2011-12-28T16:00:22Z</time>
      </trkpt>
      <trkpt lat="43.99017" lon="3.46616">
        <ele>873</ele>
        <time>2011-12-28T16:00:24Z</time>
      </trkpt>
      <trkpt lat="43.99016" lon="3.46613">
        <ele>873</ele>
        <time>2011-12-28T16:00:30Z</time>
      </trkpt>
      <trkpt lat="43.99015" lon="3.46607">
        <ele>875</ele>
        <time>2011-12-28T16:00:38Z</time>
      </trkpt>
      <trkpt lat="43.99015" lon="3.46607">
        <ele>873</ele>
        <time>2011-12-28T16:00:59Z</time>
      </trkpt>
      <trkpt lat="43.99013" lon="3.46596">
        <ele>875</ele>
        <time>2011-12-28T16:07:01Z</time>
      </trkpt>
      <trkpt lat="43.99011" lon="3.4658">
        <ele>877</ele>
        <time>2011-12-28T16:07:10Z</time>
      </trkpt>
      <trkpt lat="43.99009" lon="3.46567">
        <ele>876</ele>
        <time>2011-12-28T16:07:18Z</time>
      </trkpt>
      <trkpt lat="43.99006" lon="3.46553">
        <ele>877</ele>
        <time>2011-12-28T16:07:27Z</time>
      </trkpt>
      <trkpt lat="43.99004" lon="3.46541">
        <ele>874</ele>
        <time>2011-12-28T16:07:37Z</time>
      </trkpt>
      <trkpt lat="43.99003" lon="3.46534">
        <ele>872</ele>
        <time>2011-12-28T16:07:43Z</time>
      </trkpt>
      <trkpt lat="43.98999" lon="3.46524">
        <ele>870</ele>
        <time>2011-12-28T16:07:53Z</time>
      </trkpt>
      <trkpt lat="43.98999" lon="3.46523">
        <ele>870</ele>
        <time>2011-12-28T16:07:54Z</time>
      </trkpt>
      <trkpt lat="43.98997" lon="3.46518">
        <ele>866</ele>
        <time>2011-12-28T16:07:59Z</time>
      </trkpt>
      <trkpt lat="43.98996" lon="3.46516">
        <ele>866</ele>
        <time>2011-12-28T16:08:01Z</time>
      </trkpt>
      <trkpt lat="43.98992" lon="3.46505">
        <ele>862</ele>
        <time>2011-12-28T16:08:11Z</time>
      </trkpt>
      <trkpt lat="43.98992" lon="3.46504">
        <ele>862</ele>
        <time>2011-12-28T16:08:12Z</time>
      </trkpt>
      <trkpt lat="43.98989" lon="3.46496">
        <ele>859</ele>
        <time>2011-12-28T16:08:21Z</time>
      </trkpt>
      <trkpt lat="43.98987" lon="3.46491">
        <ele>857</ele>
        <time>2011-12-28T16:08:26Z</time>
      </trkpt>
      <trkpt lat="43.98986" lon="3.46488">
        <ele>857</ele>
        <time>2011-12-28T16:08:29Z</time>
      </trkpt>
      <trkpt lat="43.9898" lon="3.46476">
        <ele>857</ele>
        <time>2011-12-28T16:08:39Z</time>
      </trkpt>
      <trkpt lat="43.98979" lon="3.46471">
        <ele>853</ele>
        <time>2011-12-28T16:08:44Z</time>
      </trkpt>
      <trkpt lat="43.98979" lon="3.46469">
        <ele>852</ele>
        <time>2011-12-28T16:08:47Z</time>
      </trkpt>
      <trkpt lat="43.98978" lon="3.46464">
        <ele>849</ele>
        <time>2011-12-28T16:08:53Z</time>
      </trkpt>
      <trkpt lat="43.98977" lon="3.46463">
        <ele>849</ele>
        <time>2011-12-28T16:08:54Z</time>
      </trkpt>
      <trkpt lat="43.98975" lon="3.46452">
        <ele>846</ele>
        <time>2011-12-28T16:09:02Z</time>
      </trkpt>
      <trkpt lat="43.98972" lon="3.46442">
        <ele>843</ele>
        <time>2011-12-28T16:09:11Z</time>
      </trkpt>
      <trkpt lat="43.98972" lon="3.46441">
        <ele>843</ele>
        <time>2011-12-28T16:09:12Z</time>
      </trkpt>
      <trkpt lat="43.9897" lon="3.46433">
        <ele>839</ele>
        <time>2011-12-28T16:09:19Z</time>
      </trkpt>
      <trkpt lat="43.98965" lon="3.46428">
        <ele>839</ele>
        <time>2011-12-28T16:09:26Z</time>
      </trkpt>
      <trkpt lat="43.98965" lon="3.46427">
        <ele>839</ele>
        <time>2011-12-28T16:09:27Z</time>
      </trkpt>
      <trkpt lat="43.98962" lon="3.46421">
        <ele>837</ele>
        <time>2011-12-28T16:09:32Z</time>
      </trkpt>
      <trkpt lat="43.98961" lon="3.4642">
        <ele>834</ele>
        <time>2011-12-28T16:09:34Z</time>
      </trkpt>
      <trkpt lat="43.98961" lon="3.4642">
        <ele>837</ele>
        <time>2011-12-28T16:09:35Z</time>
      </trkpt>
      <trkpt lat="43.9896" lon="3.46418">
        <ele>839</ele>
        <time>2011-12-28T16:09:38Z</time>
      </trkpt>
      <trkpt lat="43.98951" lon="3.46408">
        <ele>836</ele>
        <time>2011-12-28T16:09:48Z</time>
      </trkpt>
      <trkpt lat="43.98939" lon="3.46395">
        <ele>834</ele>
        <time>2011-12-28T16:09:59Z</time>
      </trkpt>
      <trkpt lat="43.98937" lon="3.46391">
        <ele>831</ele>
        <time>2011-12-28T16:10:02Z</time>
      </trkpt>
      <trkpt lat="43.98932" lon="3.46383">
        <ele>827</ele>
        <time>2011-12-28T16:10:09Z</time>
      </trkpt>
      <trkpt lat="43.9893" lon="3.46381">
        <ele>827</ele>
        <time>2011-12-28T16:10:11Z</time>
      </trkpt>
      <trkpt lat="43.98921" lon="3.4637">
        <ele>826</ele>
        <time>2011-12-28T16:10:20Z</time>
      </trkpt>
      <trkpt lat="43.98914" lon="3.46365">
        <ele>826</ele>
        <time>2011-12-28T16:10:26Z</time>
      </trkpt>
      <trkpt lat="43.98906" lon="3.46358">
        <ele>829</ele>
        <time>2011-12-28T16:10:33Z</time>
      </trkpt>
      <trkpt lat="43.98903" lon="3.46354">
        <ele>827</ele>
        <time>2011-12-28T16:10:36Z</time>
      </trkpt>
      <trkpt lat="43.98893" lon="3.46344">
        <ele>831</ele>
        <time>2011-12-28T16:10:45Z</time>
      </trkpt>
      <trkpt lat="43.98891" lon="3.46341">
        <ele>828</ele>
        <time>2011-12-28T16:10:48Z</time>
      </trkpt>
      <trkpt lat="43.98884" lon="3.46325">
        <ele>827</ele>
        <time>2011-12-28T16:10:58Z</time>
      </trkpt>
      <trkpt lat="43.98879" lon="3.46316">
        <ele>832</ele>
        <time>2011-12-28T16:11:06Z</time>
      </trkpt>
      <trkpt lat="43.98878" lon="3.46314">
        <ele>831</ele>
        <time>2011-12-28T16:11:07Z</time>
      </trkpt>
      <trkpt lat="43.98874" lon="3.46304">
        <ele>832</ele>
        <time>2011-12-28T16:11:17Z</time>
      </trkpt>
      <trkpt lat="43.98873" lon="3.46299">
        <ele>834</ele>
        <time>2011-12-28T16:11:22Z</time>
      </trkpt>
      <trkpt lat="43.98871" lon="3.46294">
        <ele>836</ele>
        <time>2011-12-28T16:11:28Z</time>
      </trkpt>
      <trkpt lat="43.98867" lon="3.46287">
        <ele>837</ele>
        <time>2011-12-28T16:11:37Z</time>
      </trkpt>
      <trkpt lat="43.98865" lon="3.46282">
        <ele>838</ele>
        <time>2011-12-28T16:11:44Z</time>
      </trkpt>
      <trkpt lat="43.98863" lon="3.46277">
        <ele>838</ele>
        <time>2011-12-28T16:11:51Z</time>
      </trkpt>
      <trkpt lat="43.9886" lon="3.4627">
        <ele>839</ele>
        <time>2011-12-28T16:12:00Z</time>
      </trkpt>
      <trkpt lat="43.98858" lon="3.46265">
        <ele>843</ele>
        <time>2011-12-28T16:12:06Z</time>
      </trkpt>
      <trkpt lat="43.98854" lon="3.46257">
        <ele>844</ele>
        <time>2011-12-28T16:12:16Z</time>
      </trkpt>
      <trkpt lat="43.98852" lon="3.46254">
        <ele>845</ele>
        <time>2011-12-28T16:12:20Z</time>
      </trkpt>
      <trkpt lat="43.9885" lon="3.46249">
        <ele>846</ele>
        <time>2011-12-28T16:12:27Z</time>
      </trkpt>
      <trkpt lat="43.98846" lon="3.46242">
        <ele>848</ele>
        <time>2011-12-28T16:12:36Z</time>
      </trkpt>
      <trkpt lat="43.98843" lon="3.46237">
        <ele>851</ele>
        <time>2011-12-28T16:12:43Z</time>
      </trkpt>
      <trkpt lat="43.9884" lon="3.46231">
        <ele>852</ele>
        <time>2011-12-28T16:12:49Z</time>
      </trkpt>
      <trkpt lat="43.98836" lon="3.46227">
        <ele>853</ele>
        <time>2011-12-28T16:12:55Z</time>
      </trkpt>
      <trkpt lat="43.98829" lon="3.4622">
        <ele>852</ele>
        <time>2011-12-28T16:13:03Z</time>
      </trkpt>
      <trkpt lat="43.98827" lon="3.46217">
        <ele>856</ele>
        <time>2011-12-28T16:13:07Z</time>
      </trkpt>
      <trkpt lat="43.98826" lon="3.46217">
        <ele>856</ele>
        <time>2011-12-28T16:13:08Z</time>
      </trkpt>
      <trkpt lat="43.98815" lon="3.46206">
        <ele>854</ele>
        <time>2011-12-28T16:13:20Z</time>
      </trkpt>
      <trkpt lat="43.98807" lon="3.46198">
        <ele>855</ele>
        <time>2011-12-28T16:13:29Z</time>
      </trkpt>
      <trkpt lat="43.98795" lon="3.46192">
        <ele>854</ele>
        <time>2011-12-28T16:13:39Z</time>
      </trkpt>
      <trkpt lat="43.98793" lon="3.4619">
        <ele>852</ele>
        <time>2011-12-28T16:13:42Z</time>
      </trkpt>
      <trkpt lat="43.98784" lon="3.4618">
        <ele>851</ele>
        <time>2011-12-28T16:13:51Z</time>
      </trkpt>
      <trkpt lat="43.98775" lon="3.46164">
        <ele>853</ele>
        <time>2011-12-28T16:14:03Z</time>
      </trkpt>
      <trkpt lat="43.98774" lon="3.46163">
        <ele>853</ele>
        <time>2011-12-28T16:14:04Z</time>
      </trkpt>
      <trkpt lat="43.9877" lon="3.46149">
        <ele>850</ele>
        <time>2011-12-28T16:14:12Z</time>
      </trkpt>
      <trkpt lat="43.98769" lon="3.46147">
        <ele>850</ele>
        <time>2011-12-28T16:14:13Z</time>
      </trkpt>
      <trkpt lat="43.98762" lon="3.46133">
        <ele>851</ele>
        <time>2011-12-28T16:14:23Z</time>
      </trkpt>
      <trkpt lat="43.98753" lon="3.46117">
        <ele>850</ele>
        <time>2011-12-28T16:14:33Z</time>
      </trkpt>
      <trkpt lat="43.98739" lon="3.46099">
        <ele>851</ele>
        <time>2011-12-28T16:14:47Z</time>
      </trkpt>
      <trkpt lat="43.98727" lon="3.46086">
        <ele>850</ele>
        <time>2011-12-28T16:14:58Z</time>
      </trkpt>
      <trkpt lat="43.98711" lon="3.46072">
        <ele>850</ele>
        <time>2011-12-28T16:15:11Z</time>
      </trkpt>
      <trkpt lat="43.98697" lon="3.46062">
        <ele>852</ele>
        <time>2011-12-28T16:15:24Z</time>
      </trkpt>
      <trkpt lat="43.98688" lon="3.46053">
        <ele>857</ele>
        <time>2011-12-28T16:15:34Z</time>
      </trkpt>
      <trkpt lat="43.98687" lon="3.46052">
        <ele>857</ele>
        <time>2011-12-28T16:15:35Z</time>
      </trkpt>
      <trkpt lat="43.98678" lon="3.46042">
        <ele>855</ele>
        <time>2011-12-28T16:15:46Z</time>
      </trkpt>
      <trkpt lat="43.98669" lon="3.46033">
        <ele>858</ele>
        <time>2011-12-28T16:15:56Z</time>
      </trkpt>
      <trkpt lat="43.98666" lon="3.46031">
        <ele>859</ele>
        <time>2011-12-28T16:15:59Z</time>
      </trkpt>
      <trkpt lat="43.98657" lon="3.46024">
        <ele>860</ele>
        <time>2011-12-28T16:16:09Z</time>
      </trkpt>
      <trkpt lat="43.98647" lon="3.46018">
        <ele>862</ele>
        <time>2011-12-28T16:16:18Z</time>
      </trkpt>
      <trkpt lat="43.98638" lon="3.46012">
        <ele>865</ele>
        <time>2011-12-28T16:16:28Z</time>
      </trkpt>
      <trkpt lat="43.9863" lon="3.46005">
        <ele>867</ele>
        <time>2011-12-28T16:16:38Z</time>
      </trkpt>
      <trkpt lat="43.98624" lon="3.46001">
        <ele>869</ele>
        <time>2011-12-28T16:16:47Z</time>
      </trkpt>
      <trkpt lat="43.98621" lon="3.45998">
        <ele>872</ele>
        <time>2011-12-28T16:16:51Z</time>
      </trkpt>
      <trkpt lat="43.98612" lon="3.45989">
        <ele>872</ele>
        <time>2011-12-28T16:17:01Z</time>
      </trkpt>
      <trkpt lat="43.98603" lon="3.45981">
        <ele>873</ele>
        <time>2011-12-28T16:17:11Z</time>
      </trkpt>
      <trkpt lat="43.98593" lon="3.45972">
        <ele>874</ele>
        <time>2011-12-28T16:17:21Z</time>
      </trkpt>
      <trkpt lat="43.98582" lon="3.45961">
        <ele>877</ele>
        <time>2011-12-28T16:17:32Z</time>
      </trkpt>
      <trkpt lat="43.98581" lon="3.4596">
        <ele>877</ele>
        <time>2011-12-28T16:17:33Z</time>
      </trkpt>
      <trkpt lat="43.98575" lon="3.45949">
        <ele>878</ele>
        <time>2011-12-28T16:17:42Z</time>
      </trkpt>
      <trkpt lat="43.9857" lon="3.45939">
        <ele>881</ele>
        <time>2011-12-28T16:17:51Z</time>
      </trkpt>
      <trkpt lat="43.98567" lon="3.45934">
        <ele>882</ele>
        <time>2011-12-28T16:17:55Z</time>
      </trkpt>
      <trkpt lat="43.98564" lon="3.4593">
        <ele>887</ele>
        <time>2011-12-28T16:17:59Z</time>
      </trkpt>
      <trkpt lat="43.98563" lon="3.45927">
        <ele>883</ele>
        <time>2011-12-28T16:18:02Z</time>
      </trkpt>
      <trkpt lat="43.98563" lon="3.45927">
        <ele>883</ele>
        <time>2011-12-28T16:18:03Z</time>
      </trkpt>
      <trkpt lat="43.98562" lon="3.45926">
        <ele>887</ele>
        <time>2011-12-28T16:18:04Z</time>
      </trkpt>
      <trkpt lat="43.98562" lon="3.45925">
        <ele>883</ele>
        <time>2011-12-28T16:18:05Z</time>
      </trkpt>
      <trkpt lat="43.9856" lon="3.45923">
        <ele>887</ele>
        <time>2011-12-28T16:18:07Z</time>
      </trkpt>
      <trkpt lat="43.98559" lon="3.45922">
        <ele>886</ele>
        <time>2011-12-28T16:18:08Z</time>
      </trkpt>
      <trkpt lat="43.98558" lon="3.4592">
        <ele>888</ele>
        <time>2011-12-28T16:18:09Z</time>
      </trkpt>
      <trkpt lat="43.98551" lon="3.45911">
        <ele>889</ele>
        <time>2011-12-28T16:18:16Z</time>
      </trkpt>
      <trkpt lat="43.98547" lon="3.45907">
        <ele>886</ele>
        <time>2011-12-28T16:18:20Z</time>
      </trkpt>
      <trkpt lat="43.98539" lon="3.45898">
        <ele>884</ele>
        <time>2011-12-28T16:18:30Z</time>
      </trkpt>
      <trkpt lat="43.98538" lon="3.45898">
        <ele>883</ele>
        <time>2011-12-28T16:18:37Z</time>
      </trkpt>
      <trkpt lat="43.98533" lon="3.45888">
        <ele>883</ele>
        <time>2011-12-28T16:21:36Z</time>
      </trkpt>
      <trkpt lat="43.98531" lon="3.45882">
        <ele>882</ele>
        <time>2011-12-28T16:21:41Z</time>
      </trkpt>
      <trkpt lat="43.9853" lon="3.45879">
        <ele>882</ele>
        <time>2011-12-28T16:21:43Z</time>
      </trkpt>
      <trkpt lat="43.98525" lon="3.4586">
        <ele>881</ele>
        <time>2011-12-28T16:21:56Z</time>
      </trkpt>
      <trkpt lat="43.98522" lon="3.45846">
        <ele>884</ele>
        <time>2011-12-28T16:22:06Z</time>
      </trkpt>
      <trkpt lat="43.98518" lon="3.4583">
        <ele>884</ele>
        <time>2011-12-28T16:22:17Z</time>
      </trkpt>
      <trkpt lat="43.98513" lon="3.45816">
        <ele>885</ele>
        <time>2011-12-28T16:22:27Z</time>
      </trkpt>
      <trkpt lat="43.98512" lon="3.45814">
        <ele>886</ele>
        <time>2011-12-28T16:22:29Z</time>
      </trkpt>
      <trkpt lat="43.98504" lon="3.45802">
        <ele>887</ele>
        <time>2011-12-28T16:22:39Z</time>
      </trkpt>
      <trkpt lat="43.98495" lon="3.45794">
        <ele>884</ele>
        <time>2011-12-28T16:22:48Z</time>
      </trkpt>
      <trkpt lat="43.98484" lon="3.45786">
        <ele>883</ele>
        <time>2011-12-28T16:22:59Z</time>
      </trkpt>
      <trkpt lat="43.98475" lon="3.4578">
        <ele>886</ele>
        <time>2011-12-28T16:23:07Z</time>
      </trkpt>
      <trkpt lat="43.98473" lon="3.45779">
        <ele>886</ele>
        <time>2011-12-28T16:23:08Z</time>
      </trkpt>
      <trkpt lat="43.98469" lon="3.45777">
        <ele>884</ele>
        <time>2011-12-28T16:23:12Z</time>
      </trkpt>
      <trkpt lat="43.98464" lon="3.45774">
        <ele>886</ele>
        <time>2011-12-28T16:23:16Z</time>
      </trkpt>
      <trkpt lat="43.98461" lon="3.45771">
        <ele>884</ele>
        <time>2011-12-28T16:23:19Z</time>
      </trkpt>
      <trkpt lat="43.98453" lon="3.45766">
        <ele>882</ele>
        <time>2011-12-28T16:23:28Z</time>
      </trkpt>
      <trkpt lat="43.98438" lon="3.45757">
        <ele>882</ele>
        <time>2011-12-28T16:23:39Z</time>
      </trkpt>
      <trkpt lat="43.98424" lon="3.45749">
        <ele>883</ele>
        <time>2011-12-28T16:23:50Z</time>
      </trkpt>
      <trkpt lat="43.98413" lon="3.45743">
        <ele>884</ele>
        <time>2011-12-28T16:23:59Z</time>
      </trkpt>
      <trkpt lat="43.98406" lon="3.45739">
        <ele>883</ele>
        <time>2011-12-28T16:24:05Z</time>
      </trkpt>
      <trkpt lat="43.98397" lon="3.45733">
        <ele>883</ele>
        <time>2011-12-28T16:24:14Z</time>
      </trkpt>
      <trkpt lat="43.98384" lon="3.45726">
        <ele>885</ele>
        <time>2011-12-28T16:24:26Z</time>
      </trkpt>
      <trkpt lat="43.98379" lon="3.45724">
        <ele>881</ele>
        <time>2011-12-28T16:24:32Z</time>
      </trkpt>
      <trkpt lat="43.98372" lon="3.45718">
        <ele>886</ele>
        <time>2011-12-28T16:27:17Z</time>
      </trkpt>
      <trkpt lat="43.98369" lon="3.45716">
        <ele>888</ele>
        <time>2011-12-28T16:27:24Z</time>
      </trkpt>
      <trkpt lat="43.98367" lon="3.45715">
        <ele>888</ele>
        <time>2011-12-28T16:27:32Z</time>
      </trkpt>
      <trkpt lat="43.98363" lon="3.45714">
        <ele>889</ele>
        <time>2011-12-28T16:27:40Z</time>
      </trkpt>
      <trkpt lat="43.98359" lon="3.45711">
        <ele>889</ele>
        <time>2011-12-28T16:27:47Z</time>
      </trkpt>
      <trkpt lat="43.98357" lon="3.45708">
        <ele>891</ele>
        <time>2011-12-28T16:27:50Z</time>
      </trkpt>
      <trkpt lat="43.98355" lon="3.45708">
        <ele>893</ele>
        <time>2011-12-28T16:27:52Z</time>
      </trkpt>
      <trkpt lat="43.98348" lon="3.45705">
        <ele>894</ele>
        <time>2011-12-28T16:28:00Z</time>
      </trkpt>
      <trkpt lat="43.98344" lon="3.45704">
        <ele>894</ele>
        <time>2011-12-28T16:28:08Z</time>
      </trkpt>
      <trkpt lat="43.98343" lon="3.45704">
        <ele>893</ele>
        <time>2011-12-28T16:28:09Z</time>
      </trkpt>
      <trkpt lat="43.98334" lon="3.45705">
        <ele>895</ele>
        <time>2011-12-28T16:28:19Z</time>
      </trkpt>
      <trkpt lat="43.9833" lon="3.45704">
        <ele>896</ele>
        <time>2011-12-28T16:28:26Z</time>
      </trkpt>
      <trkpt lat="43.98323" lon="3.45706">
        <ele>893</ele>
        <time>2011-12-28T16:28:36Z</time>
      </trkpt>
      <trkpt lat="43.98316" lon="3.45703">
        <ele>891</ele>
        <time>2011-12-28T16:28:47Z</time>
      </trkpt>
      <trkpt lat="43.98315" lon="3.45703">
        <ele>889</ele>
        <time>2011-12-28T16:28:50Z</time>
      </trkpt>
      <trkpt lat="43.98314" lon="3.45702">
        <ele>890</ele>
        <time>2011-12-28T16:28:51Z</time>
      </trkpt>
      <trkpt lat="43.98309" lon="3.45699">
        <ele>887</ele>
        <time>2011-12-28T16:28:57Z</time>
      </trkpt>
      <trkpt lat="43.98309" lon="3.45698">
        <ele>887</ele>
        <time>2011-12-28T16:28:58Z</time>
      </trkpt>
      <trkpt lat="43.98305" lon="3.45694">
        <ele>886</ele>
        <time>2011-12-28T16:29:05Z</time>
      </trkpt>
      <trkpt lat="43.983" lon="3.45688">
        <ele>886</ele>
        <time>2011-12-28T16:29:14Z</time>
      </trkpt>
      <trkpt lat="43.98294" lon="3.45683">
        <ele>882</ele>
        <time>2011-12-28T16:29:23Z</time>
      </trkpt>
      <trkpt lat="43.98292" lon="3.45677">
        <ele>879</ele>
        <time>2011-12-28T16:29:31Z</time>
      </trkpt>
      <trkpt lat="43.98287" lon="3.45675">
        <ele>878</ele>
        <time>2011-12-28T16:29:39Z</time>
      </trkpt>
      <trkpt lat="43.98286" lon="3.45675">
        <ele>876</ele>
        <time>2011-12-28T16:29:42Z</time>
      </trkpt>
      <trkpt lat="43.98284" lon="3.45674">
        <ele>874</ele>
        <time>2011-12-28T16:29:46Z</time>
      </trkpt>
      <trkpt lat="43.9828" lon="3.45671">
        <ele>873</ele>
        <time>2011-12-28T16:29:54Z</time>
      </trkpt>
      <trkpt lat="43.98275" lon="3.45669">
        <ele>870</ele>
        <time>2011-12-28T16:30:01Z</time>
      </trkpt>
      <trkpt lat="43.98272" lon="3.45664">
        <ele>869</ele>
        <time>2011-12-28T16:30:09Z</time>
      </trkpt>
      <trkpt lat="43.9827" lon="3.45658">
        <ele>867</ele>
        <time>2011-12-28T16:30:16Z</time>
      </trkpt>
      <trkpt lat="43.98269" lon="3.45658">
        <ele>867</ele>
        <time>2011-12-28T16:30:17Z</time>
      </trkpt>
      <trkpt lat="43.98265" lon="3.45651">
        <ele>867</ele>
        <time>2011-12-28T16:30:26Z</time>
      </trkpt>
      <trkpt lat="43.98264" lon="3.45643">
        <ele>864</ele>
        <time>2011-12-28T16:30:34Z</time>
      </trkpt>
      <trkpt lat="43.98261" lon="3.45636">
        <ele>863</ele>
        <time>2011-12-28T16:30:42Z</time>
      </trkpt>
      <trkpt lat="43.9826" lon="3.45633">
        <ele>861</ele>
        <time>2011-12-28T16:30:45Z</time>
      </trkpt>
      <trkpt lat="43.98259" lon="3.4563">
        <ele>858</ele>
        <time>2011-12-28T16:30:47Z</time>
      </trkpt>
      <trkpt lat="43.98259" lon="3.45629">
        <ele>859</ele>
        <time>2011-12-28T16:30:48Z</time>
      </trkpt>
      <trkpt lat="43.98258" lon="3.45628">
        <ele>858</ele>
        <time>2011-12-28T16:30:49Z</time>
      </trkpt>
      <trkpt lat="43.98258" lon="3.45626">
        <ele>857</ele>
        <time>2011-12-28T16:30:51Z</time>
      </trkpt>
      <trkpt lat="43.98256" lon="3.45622">
        <ele>856</ele>
        <time>2011-12-28T16:30:54Z</time>
      </trkpt>
      <trkpt lat="43.9825" lon="3.45607">
        <ele>855</ele>
        <time>2011-12-28T16:31:04Z</time>
      </trkpt>
      <trkpt lat="43.98248" lon="3.45601">
        <ele>855</ele>
        <time>2011-12-28T16:31:10Z</time>
      </trkpt>
      <trkpt lat="43.98243" lon="3.45594">
        <ele>854</ele>
        <time>2011-12-28T16:31:16Z</time>
      </trkpt>
      <trkpt lat="43.98242" lon="3.45592">
        <ele>852</ele>
        <time>2011-12-28T16:31:18Z</time>
      </trkpt>
      <trkpt lat="43.98241" lon="3.4559">
        <ele>852</ele>
        <time>2011-12-28T16:31:19Z</time>
      </trkpt>
      <trkpt lat="43.98238" lon="3.45587">
        <ele>855</ele>
        <time>2011-12-28T16:31:22Z</time>
      </trkpt>
      <trkpt lat="43.98237" lon="3.45584">
        <ele>857</ele>
        <time>2011-12-28T16:31:24Z</time>
      </trkpt>
      <trkpt lat="43.98236" lon="3.45582">
        <ele>855</ele>
        <time>2011-12-28T16:31:26Z</time>
      </trkpt>
      <trkpt lat="43.98234" lon="3.45579">
        <ele>860</ele>
        <time>2011-12-28T16:31:28Z</time>
      </trkpt>
      <trkpt lat="43.98233" lon="3.45578">
        <ele>857</ele>
        <time>2011-12-28T16:31:29Z</time>
      </trkpt>
      <trkpt lat="43.98232" lon="3.45575">
        <ele>855</ele>
        <time>2011-12-28T16:31:32Z</time>
      </trkpt>
      <trkpt lat="43.98227" lon="3.45568">
        <ele>854</ele>
        <time>2011-12-28T16:31:37Z</time>
      </trkpt>
      <trkpt lat="43.98226" lon="3.45566">
        <ele>851</ele>
        <time>2011-12-28T16:31:39Z</time>
      </trkpt>
      <trkpt lat="43.98223" lon="3.45561">
        <ele>849</ele>
        <time>2011-12-28T16:31:43Z</time>
      </trkpt>
      <trkpt lat="43.98222" lon="3.45559">
        <ele>853</ele>
        <time>2011-12-28T16:31:44Z</time>
      </trkpt>
      <trkpt lat="43.98219" lon="3.45556">
        <ele>855</ele>
        <time>2011-12-28T16:31:47Z</time>
      </trkpt>
      <trkpt lat="43.98209" lon="3.45547">
        <ele>854</ele>
        <time>2011-12-28T16:31:56Z</time>
      </trkpt>
      <trkpt lat="43.98201" lon="3.45542">
        <ele>851</ele>
        <time>2011-12-28T16:32:03Z</time>
      </trkpt>
      <trkpt lat="43.98199" lon="3.4554">
        <ele>853</ele>
        <time>2011-12-28T16:32:05Z</time>
      </trkpt>
      <trkpt lat="43.98198" lon="3.45539">
        <ele>857</ele>
        <time>2011-12-28T16:32:06Z</time>
      </trkpt>
      <trkpt lat="43.98197" lon="3.45538">
        <ele>855</ele>
        <time>2011-12-28T16:32:07Z</time>
      </trkpt>
      <trkpt lat="43.98187" lon="3.45531">
        <ele>850</ele>
        <time>2011-12-28T16:32:15Z</time>
      </trkpt>
      <trkpt lat="43.98181" lon="3.45526">
        <ele>849</ele>
        <time>2011-12-28T16:32:20Z</time>
      </trkpt>
      <trkpt lat="43.98169" lon="3.45518">
        <ele>848</ele>
        <time>2011-12-28T16:32:30Z</time>
      </trkpt>
      <trkpt lat="43.98167" lon="3.45516">
        <ele>851</ele>
        <time>2011-12-28T16:32:32Z</time>
      </trkpt>
      <trkpt lat="43.98166" lon="3.45516">
        <ele>846</ele>
        <time>2011-12-28T16:32:33Z</time>
      </trkpt>
      <trkpt lat="43.98165" lon="3.45515">
        <ele>847</ele>
        <time>2011-12-28T16:32:34Z</time>
      </trkpt>
      <trkpt lat="43.98161" lon="3.45513">
        <ele>850</ele>
        <time>2011-12-28T16:32:37Z</time>
      </trkpt>
      <trkpt lat="43.98157" lon="3.45509">
        <ele>851</ele>
        <time>2011-12-28T16:32:42Z</time>
      </trkpt>
      <trkpt lat="43.98147" lon="3.45498">
        <ele>852</ele>
        <time>2011-12-28T16:32:53Z</time>
      </trkpt>
      <trkpt lat="43.98136" lon="3.4549">
        <ele>853</ele>
        <time>2011-12-28T16:33:04Z</time>
      </trkpt>
      <trkpt lat="43.98125" lon="3.45483">
        <ele>851</ele>
        <time>2011-12-28T16:33:15Z</time>
      </trkpt>
      <trkpt lat="43.98119" lon="3.45482">
        <ele>847</ele>
        <time>2011-12-28T16:33:21Z</time>
      </trkpt>
      <trkpt lat="43.98118" lon="3.45482">
        <ele>847</ele>
        <time>2011-12-28T16:33:22Z</time>
      </trkpt>
      <trkpt lat="43.98114" lon="3.45476">
        <ele>848</ele>
        <time>2011-12-28T16:33:28Z</time>
      </trkpt>
      <trkpt lat="43.9811" lon="3.45469">
        <ele>845</ele>
        <time>2011-12-28T16:33:34Z</time>
      </trkpt>
      <trkpt lat="43.98108" lon="3.45468">
        <ele>842</ele>
        <time>2011-12-28T16:33:36Z</time>
      </trkpt>
      <trkpt lat="43.98102" lon="3.45463">
        <ele>843</ele>
        <time>2011-12-28T16:33:44Z</time>
      </trkpt>
      <trkpt lat="43.98099" lon="3.45462">
        <ele>841</ele>
        <time>2011-12-28T16:33:47Z</time>
      </trkpt>
      <trkpt lat="43.98095" lon="3.45461">
        <ele>840</ele>
        <time>2011-12-28T16:33:50Z</time>
      </trkpt>
      <trkpt lat="43.98085" lon="3.45459">
        <ele>838</ele>
        <time>2011-12-28T16:33:57Z</time>
      </trkpt>
      <trkpt lat="43.98075" lon="3.45454">
        <ele>838</ele>
        <time>2011-12-28T16:34:06Z</time>
      </trkpt>
      <trkpt lat="43.98066" lon="3.45448">
        <ele>838</ele>
        <time>2011-12-28T16:34:13Z</time>
      </trkpt>
      <trkpt lat="43.98056" lon="3.45444">
        <ele>837</ele>
        <time>2011-12-28T16:34:21Z</time>
      </trkpt>
      <trkpt lat="43.9805" lon="3.45442">
        <ele>840</ele>
        <time>2011-12-28T16:34:27Z</time>
      </trkpt>
      <trkpt lat="43.98045" lon="3.4544">
        <ele>839</ele>
        <time>2011-12-28T16:34:31Z</time>
      </trkpt>
      <trkpt lat="43.98032" lon="3.45438">
        <ele>836</ele>
        <time>2011-12-28T16:34:41Z</time>
      </trkpt>
      <trkpt lat="43.98024" lon="3.45437">
        <ele>834</ele>
        <time>2011-12-28T16:34:47Z</time>
      </trkpt>
      <trkpt lat="43.98021" lon="3.45437">
        <ele>833</ele>
        <time>2011-12-28T16:34:49Z</time>
      </trkpt>
      <trkpt lat="43.98016" lon="3.45435">
        <ele>831</ele>
        <time>2011-12-28T16:34:53Z</time>
      </trkpt>
      <trkpt lat="43.98004" lon="3.45432">
        <ele>831</ele>
        <time>2011-12-28T16:35:02Z</time>
      </trkpt>
      <trkpt lat="43.98001" lon="3.45431">
        <ele>832</ele>
        <time>2011-12-28T16:35:04Z</time>
      </trkpt>
      <trkpt lat="43.97989" lon="3.45426">
        <ele>831</ele>
        <time>2011-12-28T16:35:14Z</time>
      </trkpt>
      <trkpt lat="43.97981" lon="3.45424">
        <ele>828</ele>
        <time>2011-12-28T16:35:21Z</time>
      </trkpt>
      <trkpt lat="43.97976" lon="3.45405">
        <ele>829</ele>
        <time>2011-12-28T16:36:54Z</time>
      </trkpt>
      <trkpt lat="43.97976" lon="3.45398">
        <ele>827</ele>
        <time>2011-12-28T16:36:59Z</time>
      </trkpt>
      <trkpt lat="43.97976" lon="3.45395">
        <ele>825</ele>
        <time>2011-12-28T16:37:02Z</time>
      </trkpt>
      <trkpt lat="43.97976" lon="3.45386">
        <ele>822</ele>
        <time>2011-12-28T16:37:10Z</time>
      </trkpt>
      <trkpt lat="43.97975" lon="3.45384">
        <ele>822</ele>
        <time>2011-12-28T16:37:12Z</time>
      </trkpt>
      <trkpt lat="43.97975" lon="3.45376">
        <ele>821</ele>
        <time>2011-12-28T16:37:20Z</time>
      </trkpt>
      <trkpt lat="43.97975" lon="3.45371">
        <ele>819</ele>
        <time>2011-12-28T16:37:24Z</time>
      </trkpt>
      <trkpt lat="43.97975" lon="3.45361">
        <ele>820</ele>
        <time>2011-12-28T16:37:33Z</time>
      </trkpt>
      <trkpt lat="43.97974" lon="3.45355">
        <ele>814</ele>
        <time>2011-12-28T16:37:37Z</time>
      </trkpt>
      <trkpt lat="43.97974" lon="3.45354">
        <ele>814</ele>
        <time>2011-12-28T16:37:38Z</time>
      </trkpt>
      <trkpt lat="43.97972" lon="3.45342">
        <ele>812</ele>
        <time>2011-12-28T16:37:47Z</time>
      </trkpt>
      <trkpt lat="43.97972" lon="3.45339">
        <ele>811</ele>
        <time>2011-12-28T16:37:49Z</time>
      </trkpt>
      <trkpt lat="43.9797" lon="3.4533">
        <ele>810</ele>
        <time>2011-12-28T16:37:56Z</time>
      </trkpt>
      <trkpt lat="43.9797" lon="3.45329">
        <ele>810</ele>
        <time>2011-12-28T16:37:57Z</time>
      </trkpt>
      <trkpt lat="43.9797" lon="3.45319">
        <ele>809</ele>
        <time>2011-12-28T16:38:06Z</time>
      </trkpt>
      <trkpt lat="43.97971" lon="3.45316">
        <ele>807</ele>
        <time>2011-12-28T16:38:09Z</time>
      </trkpt>
      <trkpt lat="43.97972" lon="3.45312">
        <ele>806</ele>
        <time>2011-12-28T16:38:13Z</time>
      </trkpt>
      <trkpt lat="43.97974" lon="3.45301">
        <ele>802</ele>
        <time>2011-12-28T16:38:22Z</time>
      </trkpt>
      <trkpt lat="43.97975" lon="3.45296">
        <ele>799</ele>
        <time>2011-12-28T16:38:27Z</time>
      </trkpt>
      <trkpt lat="43.97975" lon="3.45292">
        <ele>799</ele>
        <time>2011-12-28T16:38:31Z</time>
      </trkpt>
      <trkpt lat="43.97977" lon="3.45283">
        <ele>797</ele>
        <time>2011-12-28T16:38:38Z</time>
      </trkpt>
      <trkpt lat="43.97977" lon="3.45276">
        <ele>794</ele>
        <time>2011-12-28T16:38:44Z</time>
      </trkpt>
      <trkpt lat="43.97978" lon="3.45275">
        <ele>793</ele>
        <time>2011-12-28T16:38:46Z</time>
      </trkpt>
      <trkpt lat="43.97978" lon="3.45267">
        <ele>790</ele>
        <time>2011-12-28T16:38:54Z</time>
      </trkpt>
      <trkpt lat="43.9798" lon="3.45253">
        <ele>789</ele>
        <time>2011-12-28T16:39:06Z</time>
      </trkpt>
      <trkpt lat="43.9798" lon="3.4525">
        <ele>787</ele>
        <time>2011-12-28T16:39:09Z</time>
      </trkpt>
      <trkpt lat="43.9798" lon="3.45245">
        <ele>786</ele>
        <time>2011-12-28T16:39:15Z</time>
      </trkpt>
      <trkpt lat="43.97981" lon="3.45239">
        <ele>785</ele>
        <time>2011-12-28T16:39:24Z</time>
      </trkpt>
      <trkpt lat="43.97982" lon="3.45236">
        <ele>784</ele>
        <time>2011-12-28T16:39:26Z</time>
      </trkpt>
      <trkpt lat="43.97981" lon="3.45233">
        <ele>783</ele>
        <time>2011-12-28T16:39:28Z</time>
      </trkpt>
      <trkpt lat="43.97982" lon="3.45223">
        <ele>781</ele>
        <time>2011-12-28T16:39:36Z</time>
      </trkpt>
      <trkpt lat="43.97981" lon="3.45216">
        <ele>778</ele>
        <time>2011-12-28T16:39:41Z</time>
      </trkpt>
      <trkpt lat="43.97979" lon="3.45206">
        <ele>774</ele>
        <time>2011-12-28T16:39:49Z</time>
      </trkpt>
      <trkpt lat="43.97977" lon="3.45198">
        <ele>773</ele>
        <time>2011-12-28T16:39:55Z</time>
      </trkpt>
      <trkpt lat="43.97977" lon="3.45195">
        <ele>772</ele>
        <time>2011-12-28T16:39:57Z</time>
      </trkpt>
      <trkpt lat="43.97977" lon="3.45186">
        <ele>770</ele>
        <time>2011-12-28T16:40:06Z</time>
      </trkpt>
      <trkpt lat="43.9798" lon="3.45179">
        <ele>769</ele>
        <time>2011-12-28T16:40:14Z</time>
      </trkpt>
      <trkpt lat="43.97983" lon="3.45176">
        <ele>769</ele>
        <time>2011-12-28T16:40:24Z</time>
      </trkpt>
      <trkpt lat="43.97984" lon="3.45173">
        <ele>768</ele>
        <time>2011-12-28T16:40:37Z</time>
      </trkpt>
      <trkpt lat="43.97984" lon="3.4517">
        <ele>767</ele>
        <time>2011-12-28T16:40:46Z</time>
      </trkpt>
      <trkpt lat="43.97986" lon="3.45165">
        <ele>766</ele>
        <time>2011-12-28T16:40:50Z</time>
      </trkpt>
      <trkpt lat="43.97988" lon="3.45157">
        <ele>764</ele>
        <time>2011-12-28T16:40:57Z</time>
      </trkpt>
      <trkpt lat="43.97987" lon="3.45149">
        <ele>761</ele>
        <time>2011-12-28T16:41:04Z</time>
      </trkpt>
      <trkpt lat="43.97988" lon="3.45138">
        <ele>760</ele>
        <time>2011-12-28T16:41:13Z</time>
      </trkpt>
      <trkpt lat="43.97988" lon="3.45134">
        <ele>760</ele>
        <time>2011-12-28T16:41:16Z</time>
      </trkpt>
      <trkpt lat="43.9799" lon="3.45122">
        <ele>756</ele>
        <time>2011-12-28T16:41:24Z</time>
      </trkpt>
      <trkpt lat="43.97991" lon="3.45121">
        <ele>756</ele>
        <time>2011-12-28T16:41:25Z</time>
      </trkpt>
      <trkpt lat="43.97992" lon="3.45117">
        <ele>755</ele>
        <time>2011-12-28T16:41:28Z</time>
      </trkpt>
      <trkpt lat="43.97995" lon="3.45106">
        <ele>753</ele>
        <time>2011-12-28T16:41:36Z</time>
      </trkpt>
      <trkpt lat="43.97998" lon="3.45097">
        <ele>752</ele>
        <time>2011-12-28T16:41:43Z</time>
      </trkpt>
      <trkpt lat="43.98002" lon="3.45089">
        <ele>751</ele>
        <time>2011-12-28T16:41:50Z</time>
      </trkpt>
      <trkpt lat="43.98003" lon="3.45087">
        <ele>750</ele>
        <time>2011-12-28T16:41:52Z</time>
      </trkpt>
      <trkpt lat="43.9801" lon="3.45079">
        <ele>748</ele>
        <time>2011-12-28T16:42:00Z</time>
      </trkpt>
      <trkpt lat="43.98017" lon="3.4507">
        <ele>748</ele>
        <time>2011-12-28T16:42:13Z</time>
      </trkpt>
      <trkpt lat="43.98017" lon="3.45068">
        <ele>748</ele>
        <time>2011-12-28T16:42:14Z</time>
      </trkpt>
      <trkpt lat="43.98018" lon="3.45064">
        <ele>747</ele>
        <time>2011-12-28T16:42:16Z</time>
      </trkpt>
      <trkpt lat="43.98019" lon="3.45063">
        <ele>746</ele>
        <time>2011-12-28T16:42:17Z</time>
      </trkpt>
      <trkpt lat="43.98022" lon="3.45047">
        <ele>744</ele>
        <time>2011-12-28T16:42:27Z</time>
      </trkpt>
      <trkpt lat="43.98021" lon="3.45039">
        <ele>743</ele>
        <time>2011-12-28T16:42:33Z</time>
      </trkpt>
      <trkpt lat="43.98023" lon="3.45025">
        <ele>742</ele>
        <time>2011-12-28T16:42:41Z</time>
      </trkpt>
      <trkpt lat="43.98025" lon="3.45011">
        <ele>741</ele>
        <time>2011-12-28T16:42:50Z</time>
      </trkpt>
      <trkpt lat="43.98027" lon="3.45003">
        <ele>740</ele>
        <time>2011-12-28T16:42:57Z</time>
      </trkpt>
      <trkpt lat="43.98027" lon="3.44996">
        <ele>740</ele>
        <time>2011-12-28T16:43:04Z</time>
      </trkpt>
      <trkpt lat="43.98029" lon="3.44986">
        <ele>738</ele>
        <time>2011-12-28T16:43:13Z</time>
      </trkpt>
      <trkpt lat="43.98032" lon="3.44974">
        <ele>738</ele>
        <time>2011-12-28T16:43:23Z</time>
      </trkpt>
      <trkpt lat="43.98034" lon="3.44966">
        <ele>737</ele>
        <time>2011-12-28T16:43:30Z</time>
      </trkpt>
      <trkpt lat="43.98031" lon="3.44954">
        <ele>737</ele>
        <time>2011-12-28T16:43:38Z</time>
      </trkpt>
      <trkpt lat="43.98031" lon="3.44939">
        <ele>737</ele>
        <time>2011-12-28T16:43:49Z</time>
      </trkpt>
      <trkpt lat="43.98031" lon="3.44936">
        <ele>737</ele>
        <time>2011-12-28T16:43:58Z</time>
      </trkpt>
      <trkpt lat="43.98031" lon="3.44927">
        <ele>735</ele>
        <time>2011-12-28T16:44:05Z</time>
      </trkpt>
      <trkpt lat="43.9803" lon="3.44924">
        <ele>734</ele>
        <time>2011-12-28T16:44:08Z</time>
      </trkpt>
      <trkpt lat="43.98029" lon="3.44914">
        <ele>730</ele>
        <time>2011-12-28T16:44:16Z</time>
      </trkpt>
      <trkpt lat="43.98028" lon="3.44913">
        <ele>730</ele>
        <time>2011-12-28T16:44:17Z</time>
      </trkpt>
      <trkpt lat="43.98026" lon="3.44901">
        <ele>727</ele>
        <time>2011-12-28T16:44:25Z</time>
      </trkpt>
      <trkpt lat="43.98025" lon="3.44896">
        <ele>726</ele>
        <time>2011-12-28T16:44:28Z</time>
      </trkpt>
      <trkpt lat="43.98025" lon="3.4489">
        <ele>722</ele>
        <time>2011-12-28T16:44:33Z</time>
      </trkpt>
      <trkpt lat="43.98024" lon="3.44888">
        <ele>723</ele>
        <time>2011-12-28T16:44:34Z</time>
      </trkpt>
      <trkpt lat="43.98024" lon="3.44879">
        <ele>720</ele>
        <time>2011-12-28T16:44:42Z</time>
      </trkpt>
      <trkpt lat="43.98022" lon="3.44869">
        <ele>718</ele>
        <time>2011-12-28T16:44:50Z</time>
      </trkpt>
      <trkpt lat="43.98021" lon="3.44858">
        <ele>714</ele>
        <time>2011-12-28T16:44:56Z</time>
      </trkpt>
      <trkpt lat="43.98021" lon="3.44856">
        <ele>714</ele>
        <time>2011-12-28T16:44:57Z</time>
      </trkpt>
      <trkpt lat="43.98022" lon="3.44839">
        <ele>711</ele>
        <time>2011-12-28T16:45:07Z</time>
      </trkpt>
      <trkpt lat="43.98022" lon="3.44827">
        <ele>708</ele>
        <time>2011-12-28T16:45:15Z</time>
      </trkpt>
      <trkpt lat="43.98023" lon="3.44821">
        <ele>706</ele>
        <time>2011-12-28T16:45:23Z</time>
      </trkpt>
      <trkpt lat="43.98025" lon="3.44817">
        <ele>705</ele>
        <time>2011-12-28T16:45:31Z</time>
      </trkpt>
      <trkpt lat="43.98029" lon="3.44811">
        <ele>702</ele>
        <time>2011-12-28T16:45:39Z</time>
      </trkpt>
      <trkpt lat="43.98032" lon="3.44807">
        <ele>701</ele>
        <time>2011-12-28T16:45:45Z</time>
      </trkpt>
      <trkpt lat="43.98037" lon="3.44804">
        <ele>699</ele>
        <time>2011-12-28T16:45:52Z</time>
      </trkpt>
      <trkpt lat="43.98042" lon="3.448">
        <ele>697</ele>
        <time>2011-12-28T16:45:59Z</time>
      </trkpt>
      <trkpt lat="43.98047" lon="3.44798">
        <ele>697</ele>
        <time>2011-12-28T16:46:04Z</time>
      </trkpt>
      <trkpt lat="43.98052" lon="3.44794">
        <ele>696</ele>
        <time>2011-12-28T16:46:10Z</time>
      </trkpt>
      <trkpt lat="43.98053" lon="3.44793">
        <ele>695</ele>
        <time>2011-12-28T16:46:13Z</time>
      </trkpt>
      <trkpt lat="43.98061" lon="3.4479">
        <ele>692</ele>
        <time>2011-12-28T16:46:20Z</time>
      </trkpt>
      <trkpt lat="43.98066" lon="3.44786">
        <ele>690</ele>
        <time>2011-12-28T16:46:27Z</time>
      </trkpt>
      <trkpt lat="43.98072" lon="3.4478">
        <ele>688</ele>
        <time>2011-12-28T16:46:34Z</time>
      </trkpt>
      <trkpt lat="43.98077" lon="3.44773">
        <ele>687</ele>
        <time>2011-12-28T16:46:41Z</time>
      </trkpt>
      <trkpt lat="43.9808" lon="3.44771">
        <ele>685</ele>
        <time>2011-12-28T16:46:45Z</time>
      </trkpt>
      <trkpt lat="43.98088" lon="3.44765">
        <ele>683</ele>
        <time>2011-12-28T16:46:53Z</time>
      </trkpt>
      <trkpt lat="43.98092" lon="3.44763">
        <ele>682</ele>
        <time>2011-12-28T16:46:58Z</time>
      </trkpt>
      <trkpt lat="43.98099" lon="3.44761">
        <ele>681</ele>
        <time>2011-12-28T16:47:07Z</time>
      </trkpt>
      <trkpt lat="43.98101" lon="3.44762">
        <ele>681</ele>
        <time>2011-12-28T16:47:12Z</time>
      </trkpt>
      <trkpt lat="43.98105" lon="3.44763">
        <ele>680</ele>
        <time>2011-12-28T16:47:17Z</time>
      </trkpt>
      <trkpt lat="43.98112" lon="3.44755">
        <ele>678</ele>
        <time>2011-12-28T16:47:24Z</time>
      </trkpt>
      <trkpt lat="43.98112" lon="3.44751">
        <ele>677</ele>
        <time>2011-12-28T16:47:28Z</time>
      </trkpt>
      <trkpt lat="43.98106" lon="3.44747">
        <ele>678</ele>
        <time>2011-12-28T16:47:37Z</time>
      </trkpt>
      <trkpt lat="43.98099" lon="3.44742">
        <ele>678</ele>
        <time>2011-12-28T16:47:46Z</time>
      </trkpt>
      <trkpt lat="43.98086" lon="3.44738">
        <ele>677</ele>
        <time>2011-12-28T16:47:57Z</time>
      </trkpt>
      <trkpt lat="43.98075" lon="3.44734">
        <ele>674</ele>
        <time>2011-12-28T16:48:07Z</time>
      </trkpt>
      <trkpt lat="43.98074" lon="3.44734">
        <ele>674</ele>
        <time>2011-12-28T16:48:08Z</time>
      </trkpt>
      <trkpt lat="43.98062" lon="3.44731">
        <ele>673</ele>
        <time>2011-12-28T16:48:19Z</time>
      </trkpt>
      <trkpt lat="43.9806" lon="3.44732">
        <ele>674</ele>
        <time>2011-12-28T16:48:21Z</time>
      </trkpt>
      <trkpt lat="43.9805" lon="3.44729">
        <ele>670</ele>
        <time>2011-12-28T16:48:29Z</time>
      </trkpt>
      <trkpt lat="43.98045" lon="3.44728">
        <ele>670</ele>
        <time>2011-12-28T16:48:34Z</time>
      </trkpt>
      <trkpt lat="43.98042" lon="3.44729">
        <ele>670</ele>
        <time>2011-12-28T16:48:38Z</time>
      </trkpt>
      <trkpt lat="43.98033" lon="3.44729">
        <ele>669</ele>
        <time>2011-12-28T16:48:46Z</time>
      </trkpt>
      <trkpt lat="43.98029" lon="3.44729">
        <ele>668</ele>
        <time>2011-12-28T16:48:49Z</time>
      </trkpt>
      <trkpt lat="43.98027" lon="3.44727">
        <ele>669</ele>
        <time>2011-12-28T16:48:51Z</time>
      </trkpt>
      <trkpt lat="43.98018" lon="3.44724">
        <ele>669</ele>
        <time>2011-12-28T16:48:59Z</time>
      </trkpt>
      <trkpt lat="43.98006" lon="3.44716">
        <ele>667</ele>
        <time>2011-12-28T16:49:11Z</time>
      </trkpt>
      <trkpt lat="43.98002" lon="3.44711">
        <ele>666</ele>
        <time>2011-12-28T16:49:18Z</time>
      </trkpt>
      <trkpt lat="43.97996" lon="3.44704">
        <ele>666</ele>
        <time>2011-12-28T16:49:26Z</time>
      </trkpt>
      <trkpt lat="43.97994" lon="3.44703">
        <ele>665</ele>
        <time>2011-12-28T16:49:27Z</time>
      </trkpt>
      <trkpt lat="43.97983" lon="3.44706">
        <ele>666</ele>
        <time>2011-12-28T16:49:34Z</time>
      </trkpt>
      <trkpt lat="43.97971" lon="3.44715">
        <ele>663</ele>
        <time>2011-12-28T16:49:44Z</time>
      </trkpt>
      <trkpt lat="43.97968" lon="3.44722">
        <ele>662</ele>
        <time>2011-12-28T16:49:52Z</time>
      </trkpt>
      <trkpt lat="43.97961" lon="3.44729">
        <ele>661</ele>
        <time>2011-12-28T16:49:59Z</time>
      </trkpt>
      <trkpt lat="43.97954" lon="3.4474">
        <ele>658</ele>
        <time>2011-12-28T16:50:08Z</time>
      </trkpt>
      <trkpt lat="43.97949" lon="3.44744">
        <ele>657</ele>
        <time>2011-12-28T16:50:13Z</time>
      </trkpt>
      <trkpt lat="43.97939" lon="3.44749">
        <ele>656</ele>
        <time>2011-12-28T16:50:22Z</time>
      </trkpt>
      <trkpt lat="43.9793" lon="3.44746">
        <ele>655</ele>
        <time>2011-12-28T16:50:31Z</time>
      </trkpt>
      <trkpt lat="43.97921" lon="3.44735">
        <ele>654</ele>
        <time>2011-12-28T16:50:40Z</time>
      </trkpt>
      <trkpt lat="43.97915" lon="3.44727">
        <ele>652</ele>
        <time>2011-12-28T16:50:47Z</time>
      </trkpt>
      <trkpt lat="43.97909" lon="3.44719">
        <ele>651</ele>
        <time>2011-12-28T16:50:55Z</time>
      </trkpt>
      <trkpt lat="43.979" lon="3.44716">
        <ele>650</ele>
        <time>2011-12-28T16:51:04Z</time>
      </trkpt>
      <trkpt lat="43.97891" lon="3.44717">
        <ele>649</ele>
        <time>2011-12-28T16:51:12Z</time>
      </trkpt>
      <trkpt lat="43.97885" lon="3.4471">
        <ele>649</ele>
        <time>2011-12-28T16:51:19Z</time>
      </trkpt>
      <trkpt lat="43.97885" lon="3.44703">
        <ele>649</ele>
        <time>2011-12-28T16:51:23Z</time>
      </trkpt>
      <trkpt lat="43.97886" lon="3.44686">
        <ele>649</ele>
        <time>2011-12-28T16:51:33Z</time>
      </trkpt>
      <trkpt lat="43.97886" lon="3.44685">
        <ele>649</ele>
        <time>2011-12-28T16:51:34Z</time>
      </trkpt>
      <trkpt lat="43.97887" lon="3.44682">
        <ele>648</ele>
        <time>2011-12-28T16:51:36Z</time>
      </trkpt>
      <trkpt lat="43.97886" lon="3.44671">
        <ele>647</ele>
        <time>2011-12-28T16:51:43Z</time>
      </trkpt>
      <trkpt lat="43.97881" lon="3.44655">
        <ele>645</ele>
        <time>2011-12-28T16:51:54Z</time>
      </trkpt>
      <trkpt lat="43.97876" lon="3.44647">
        <ele>643</ele>
        <time>2011-12-28T16:52:00Z</time>
      </trkpt>
      <trkpt lat="43.97871" lon="3.44643">
        <ele>642</ele>
        <time>2011-12-28T16:52:04Z</time>
      </trkpt>
      <trkpt lat="43.97866" lon="3.44635">
        <ele>641</ele>
        <time>2011-12-28T16:52:09Z</time>
      </trkpt>
      <trkpt lat="43.97859" lon="3.44621">
        <ele>639</ele>
        <time>2011-12-28T16:52:19Z</time>
      </trkpt>
      <trkpt lat="43.97853" lon="3.44606">
        <ele>637</ele>
        <time>2011-12-28T16:52:29Z</time>
      </trkpt>
      <trkpt lat="43.97852" lon="3.44603">
        <ele>637</ele>
        <time>2011-12-28T16:52:31Z</time>
      </trkpt>
      <trkpt lat="43.97849" lon="3.44586">
        <ele>635</ele>
        <time>2011-12-28T16:52:42Z</time>
      </trkpt>
      <trkpt lat="43.97846" lon="3.44579">
        <ele>633</ele>
        <time>2011-12-28T16:52:48Z</time>
      </trkpt>
      <trkpt lat="43.97842" lon="3.44568">
        <ele>631</ele>
        <time>2011-12-28T16:52:56Z</time>
      </trkpt>
      <trkpt lat="43.9784" lon="3.44553">
        <ele>630</ele>
        <time>2011-12-28T16:53:07Z</time>
      </trkpt>
      <trkpt lat="43.97841" lon="3.44551">
        <ele>629</ele>
        <time>2011-12-28T16:53:16Z</time>
      </trkpt>
      <trkpt lat="43.97841" lon="3.44548">
        <ele>630</ele>
        <time>2011-12-28T16:53:23Z</time>
      </trkpt>
      <trkpt lat="43.97842" lon="3.44546">
        <ele>629</ele>
        <time>2011-12-28T16:53:24Z</time>
      </trkpt>
      <trkpt lat="43.97843" lon="3.44543">
        <ele>629</ele>
        <time>2011-12-28T16:53:27Z</time>
      </trkpt>
      <trkpt lat="43.9785" lon="3.44542">
        <ele>627</ele>
        <time>2011-12-28T16:53:37Z</time>
      </trkpt>
      <trkpt lat="43.97855" lon="3.44542">
        <ele>627</ele>
        <time>2011-12-28T16:57:38Z</time>
      </trkpt>
      <trkpt lat="43.97866" lon="3.44544">
        <ele>627</ele>
        <time>2011-12-28T16:57:48Z</time>
      </trkpt>
      <trkpt lat="43.97879" lon="3.44548">
        <ele>627</ele>
        <time>2011-12-28T16:57:58Z</time>
      </trkpt>
      <trkpt lat="43.97892" lon="3.44553">
        <ele>626</ele>
        <time>2011-12-28T16:58:09Z</time>
      </trkpt>
      <trkpt lat="43.97894" lon="3.44555">
        <ele>626</ele>
        <time>2011-12-28T16:58:16Z</time>
      </trkpt>
      <trkpt lat="43.97897" lon="3.44555">
        <ele>626</ele>
        <time>2011-12-28T16:58:31Z</time>
      </trkpt>
      <trkpt lat="43.97909" lon="3.44558">
        <ele>625</ele>
        <time>2011-12-28T16:58:43Z</time>
      </trkpt>
      <trkpt lat="43.97922" lon="3.44563">
        <ele>625</ele>
        <time>2011-12-28T16:58:55Z</time>
      </trkpt>
      <trkpt lat="43.97934" lon="3.44567">
        <ele>625</ele>
        <time>2011-12-28T16:59:06Z</time>
      </trkpt>
      <trkpt lat="43.97948" lon="3.44572">
        <ele>623</ele>
        <time>2011-12-28T16:59:18Z</time>
      </trkpt>
      <trkpt lat="43.97957" lon="3.44561">
        <ele>622</ele>
        <time>2011-12-28T16:59:28Z</time>
      </trkpt>
      <trkpt lat="43.97961" lon="3.44553">
        <ele>620</ele>
        <time>2011-12-28T16:59:34Z</time>
      </trkpt>
      <trkpt lat="43.97962" lon="3.44547">
        <ele>619</ele>
        <time>2011-12-28T16:59:38Z</time>
      </trkpt>
      <trkpt lat="43.97964" lon="3.4454">
        <ele>619</ele>
        <time>2011-12-28T16:59:43Z</time>
      </trkpt>
      <trkpt lat="43.97966" lon="3.44534">
        <ele>618</ele>
        <time>2011-12-28T16:59:47Z</time>
      </trkpt>
      <trkpt lat="43.97968" lon="3.44528">
        <ele>618</ele>
        <time>2011-12-28T16:59:51Z</time>
      </trkpt>
      <trkpt lat="43.97971" lon="3.44511">
        <ele>617</ele>
        <time>2011-12-28T17:00:01Z</time>
      </trkpt>
      <trkpt lat="43.97971" lon="3.44487">
        <ele>617</ele>
        <time>2011-12-28T17:00:14Z</time>
      </trkpt>
      <trkpt lat="43.97963" lon="3.44469">
        <ele>617</ele>
        <time>2011-12-28T17:00:25Z</time>
      </trkpt>
      <trkpt lat="43.9795" lon="3.44451">
        <ele>617</ele>
        <time>2011-12-28T17:00:39Z</time>
      </trkpt>
      <trkpt lat="43.97937" lon="3.44436">
        <ele>616</ele>
        <time>2011-12-28T17:00:52Z</time>
      </trkpt>
      <trkpt lat="43.97925" lon="3.44424">
        <ele>616</ele>
        <time>2011-12-28T17:01:03Z</time>
      </trkpt>
      <trkpt lat="43.97908" lon="3.44409">
        <ele>618</ele>
        <time>2011-12-28T17:01:19Z</time>
      </trkpt>
      <trkpt lat="43.97894" lon="3.44397">
        <ele>618</ele>
        <time>2011-12-28T17:01:32Z</time>
      </trkpt>
      <trkpt lat="43.97882" lon="3.44387">
        <ele>616</ele>
        <time>2011-12-28T17:01:43Z</time>
      </trkpt>
      <trkpt lat="43.9787" lon="3.44377">
        <ele>616</ele>
        <time>2011-12-28T17:01:54Z</time>
      </trkpt>
      <trkpt lat="43.97854" lon="3.44364">
        <ele>617</ele>
        <time>2011-12-28T17:02:09Z</time>
      </trkpt>
      <trkpt lat="43.9784" lon="3.44353">
        <ele>617</ele>
        <time>2011-12-28T17:02:22Z</time>
      </trkpt>
      <trkpt lat="43.97827" lon="3.44344">
        <ele>617</ele>
        <time>2011-12-28T17:02:34Z</time>
      </trkpt>
      <trkpt lat="43.97811" lon="3.44337">
        <ele>617</ele>
        <time>2011-12-28T17:02:47Z</time>
      </trkpt>
      <trkpt lat="43.97796" lon="3.44337">
        <ele>616</ele>
        <time>2011-12-28T17:02:59Z</time>
      </trkpt>
      <trkpt lat="43.97785" lon="3.44347">
        <ele>616</ele>
        <time>2011-12-28T17:03:11Z</time>
      </trkpt>
      <trkpt lat="43.97783" lon="3.44352">
        <ele>616</ele>
        <time>2011-12-28T17:03:18Z</time>
      </trkpt>
      <trkpt lat="43.97782" lon="3.4436">
        <ele>615</ele>
        <time>2011-12-28T17:04:39Z</time>
      </trkpt>
      <trkpt lat="43.97786" lon="3.44365">
        <ele>615</ele>
        <time>2011-12-28T17:04:47Z</time>
      </trkpt>
      <trkpt lat="43.97792" lon="3.44369">
        <ele>614</ele>
        <time>2011-12-28T17:04:54Z</time>
      </trkpt>
      <trkpt lat="43.97805" lon="3.44376">
        <ele>613</ele>
        <time>2011-12-28T17:05:05Z</time>
      </trkpt>
      <trkpt lat="43.9782" lon="3.44375">
        <ele>613</ele>
        <time>2011-12-28T17:05:18Z</time>
      </trkpt>
      <trkpt lat="43.97836" lon="3.44366">
        <ele>612</ele>
        <time>2011-12-28T17:05:33Z</time>
      </trkpt>
      <trkpt lat="43.97844" lon="3.44363">
        <ele>612</ele>
        <time>2011-12-28T17:05:44Z</time>
      </trkpt>
      <trkpt lat="43.97846" lon="3.44362">
        <ele>613</ele>
        <time>2011-12-28T17:05:48Z</time>
      </trkpt>
      <trkpt lat="43.97856" lon="3.4435">
        <ele>613</ele>
        <time>2011-12-28T17:05:55Z</time>
      </trkpt>
      <trkpt lat="43.97866" lon="3.4433">
        <ele>613</ele>
        <time>2011-12-28T17:06:06Z</time>
      </trkpt>
      <trkpt lat="43.97881" lon="3.44325">
        <ele>613</ele>
        <time>2011-12-28T17:06:18Z</time>
      </trkpt>
      <trkpt lat="43.97895" lon="3.44329">
        <ele>613</ele>
        <time>2011-12-28T17:06:30Z</time>
      </trkpt>
      <trkpt lat="43.9791" lon="3.44335">
        <ele>613</ele>
        <time>2011-12-28T17:06:43Z</time>
      </trkpt>
      <trkpt lat="43.97923" lon="3.44338">
        <ele>614</ele>
        <time>2011-12-28T17:06:54Z</time>
      </trkpt>
      <trkpt lat="43.9794" lon="3.44345">
        <ele>616</ele>
        <time>2011-12-28T17:07:09Z</time>
      </trkpt>
      <trkpt lat="43.97952" lon="3.44348">
        <ele>617</ele>
        <time>2011-12-28T17:07:20Z</time>
      </trkpt>
      <trkpt lat="43.97962" lon="3.44347">
        <ele>617</ele>
        <time>2011-12-28T17:07:29Z</time>
      </trkpt>
      <trkpt lat="43.97963" lon="3.44347">
        <ele>616</ele>
        <time>2011-12-28T17:07:30Z</time>
      </trkpt>
      <trkpt lat="43.97968" lon="3.44347">
        <ele>617</ele>
        <time>2011-12-28T17:07:35Z</time>
      </trkpt>
    </trkseg>
  </trk>
</gpx>